[[{"header":{"parameterUnit":"m.s-1","parameterCategory":1,"la1":31.0,"la2":29.5877,"lo1":-88.7671,"lo2":-86.6584,"dy":0.0162,"dx":0.0185,"nx":115,"ny":88,"refTime":"2024-09-02T18:00:00:Z","depth":0,"parameterNumber":2,"parameterNumberName":"U-component_of_WINDS"},"data":[0.0,0.0,0.0,0.0,0.0,0.0,0.0,0.0,0.0,0.0,0.0,0.0,0.0,0.0,0.0,0.0,0.0,0.0,0.0,0.0,0.0,0.0,0.0,0.0,0.0,0.0,0.0,0.0,0.0,0.0,0.0,0.0,0.0,0.0,0.0,0.0,0.0,0.0,0.0,0.0,0.0,0.0,0.0,0.0,0.0,0.0,0.0,0.0,0.0,0.0,0.0,0.0,0.0,0.0,0.0,0.0,0.0,0.0,0.0,0.0,0.0,0.0,0.0,0.0,0.0,0.0,0.0,0.0,0.0,0.0,0.0,0.0,0.0,0.0,0.0,0.0,0.0,0.0,0.0,0.0,0.0,0.0,0.0,0.0,0.0,0.0,0.0,0.0,0.0,0.0,0.0,0.0,0.0,0.0,0.0,0.0,0.0,0.0,0.0,0.0,0.0,0.0,0.0,0.0,0.0,0.0,0.0,0.0,0.0,0.0,0.0,0.0,0.0,0.0,0.0,0.0,0.0,0.0,0.0,0.0,0.0,0.0,0.0,0.0,0.0,0.0,0.0,0.0,0.0,0.0,0.0,0.0,0.0,0.0,0.0,0.0,0.0,0.0,0.0,0.0,0.0,0.0,0.0,0.0,0.0,0.0,0.0,0.0,0.0,0.0,0.0,0.0,0.0,0.0,0.0,0.0,0.0,0.0,0.0,0.0,0.0,0.0,0.0,0.0,0.0,0.0,0.0,0.0,0.0,0.0,0.0,0.0,0.0,0.0,0.0,0.0,0.0,0.0,0.0,0.0,0.0,0.0,0.0,0.0,0.0,0.0,0.0,0.0,0.0,0.0,0.0,0.0,0.0,0.0,0.0,0.0,0.0,0.0,0.0,0.0,0.0,0.0,0.0,0.0,0.0,0.0,0.0,0.0,0.0,0.0,0.0,0.0,0.0,0.0,0.0,0.0,0.0,0.0,0.0,0.0,0.0,0.0,0.0,0.0,0.0,0.0,0.0,0.0,0.0,0.0,0.0,0.0,0.0,0.0,0.0,0.0,0.0,0.0,0.0,0.0,0.0,0.0,0.0,0.0,0.0,0.0,0.0,0.0,0.0,0.0,0.0,0.0,0.0,0.0,0.0,0.0,0.0,0.0,0.0,0.0,0.0,0.0,0.0,0.0,0.0,0.0,0.0,0.0,0.0,0.0,0.0,0.0,0.0,0.0,0.0,0.0,0.0,0.0,0.0,0.0,0.0,0.0,0.0,0.0,0.0,0.0,0.0,0.0,0.0,0.0,0.0,0.0,0.0,0.0,0.0,0.0,0.0,0.0,0.0,0.0,0.0,0.0,0.0,0.0,0.0,0.0,0.0,0.0,0.0,0.0,0.0,0.0,0.0,0.0,0.0,0.0,0.0,0.0,0.0,0.0,0.0,0.0,0.0,0.0,0.0,0.0,0.0,0.0,0.0,0.0,0.0,0.0,0.0,0.0,0.0,0.0,0.0,0.0,0.0,0.0,0.0,0.0,0.0,0.0,0.0,0.0,0.0,0.0,0.0,0.0,0.0,0.0,0.0,0.0,0.0,0.0,0.0,0.0,0.0,0.0,0.0,0.0,0.0,0.0,0.0,0.0,0.0,0.0,0.0,0.0,0.0,0.0,0.0,0.0,0.0,0.0,0.0,0.0,0.0,0.0,0.0,0.0,0.0,0.0,0.0,0.0,0.0,0.0,0.0,0.0,0.0,0.0,0.0,0.0,0.0,0.0,0.0,0.0,0.0,0.0,0.0,0.0,0.0,0.0,0.0,0.0,0.0,0.0,0.0,0.0,0.0,0.0,0.0,0.0,0.0,0.0,0.0,0.0,0.0,0.0,0.0,0.0,0.0,0.0,0.0,0.0,0.0,0.0,0.0,0.0,0.0,0.0,0.0,0.0,0.0,0.0,0.0,0.0,0.0,0.0,0.0,0.0,0.0,0.0,0.0,0.0,0.0,0.0,0.0,0.0,0.0,0.0,0.0,0.0,0.0,0.0,0.0,0.0,0.0,0.0,0.0,0.0,0.0,0.0,0.0,0.0,0.0,0.0,0.0,0.0,0.0,0.0,0.0,0.0,0.0,0.0,0.0,0.0,0.0,0.0,0.0,0.0,0.0,0.0,0.0,0.0,0.0,0.0,0.0,0.0,0.0,0.0,0.0,0.0,0.0,0.0,0.0,0.0,0.0,0.0,0.0,0.0,0.0,0.0,0.0,0.0,0.0,0.0,0.0,0.0,0.0,0.0,0.0,0.0,0.0,0.0,0.0,0.0,0.0,0.0,0.0,0.0,0.0,0.0,0.0,0.0,0.0,0.0,0.0,0.0,0.0,0.0,0.0,0.0,0.0,0.0,0.0,0.0,0.0,0.0,0.0,0.0,0.0,0.0,0.0,0.0,0.0,0.0,0.0,0.0,0.0,0.0,0.0,0.0,0.0,0.0,0.0,0.0,0.0,0.0,0.0,0.0,0.0,0.0,0.0,0.0,0.0,0.0,0.0,0.0,0.0,0.0,0.0,0.0,0.0,0.0,0.0,0.0,0.0,0.0,0.0,0.0,0.0,0.0,0.0,0.0,0.0,0.0,0.0,0.0,0.0,0.0,0.0,0.0,0.0,0.0,0.0,0.0,0.0,0.0,0.0,0.0,0.0,0.0,0.0,0.0,0.0,0.0,0.0,0.0,0.0,0.0,0.0,0.0,0.0,0.0,0.0,0.0,0.0,0.0,0.0,0.0,0.0,0.0,0.0,0.0,0.0,0.0,0.0,0.0,0.0,0.0,0.0,0.0,0.0,0.0,0.0,0.0,0.0,0.0,0.0,0.0,0.0,0.0,0.0,0.0,0.0,0.0,0.0,0.0,0.0,0.0,0.0,0.0,0.0,0.0,0.0,0.0,0.0,0.0,0.0,0.0,0.0,0.0,0.0,0.0,0.0,0.0,0.0,0.0,0.0,0.0,0.0,0.0,0.0,0.0,0.0,0.0,0.0,0.0,0.0,0.0,0.0,0.0,0.0,0.0,0.0,0.0,0.0,0.0,0.0,0.0,0.0,0.0,0.0,0.0,0.0,0.0,0.0,0.0,0.0,0.0,0.0,0.0,0.0,0.0,0.0,0.0,0.0,0.0,0.0,0.0,0.0,0.0,0.0,0.0,0.0,0.0,0.0,0.0,0.0,0.0,0.0,0.0,0.0,0.0,0.0,0.0,0.0,0.0,0.0,0.0,0.0,0.0,0.0,0.0,0.0,0.0,0.0,0.0,0.0,0.0,0.0,0.0,0.0,0.0,0.0,0.0,0.0,0.0,0.0,0.0,0.0,0.0,0.0,0.0,0.0,0.0,0.0,0.0,0.0,0.0,0.0,0.0,0.0,0.0,0.0,0.0,0.0,0.0,0.0,0.0,0.0,0.0,0.0,0.0,0.0,0.0,0.0,0.0,0.0,0.0,0.0,0.0,0.0,0.0,0.0,0.0,0.0,0.0,0.0,0.0,0.0,0.0,0.0,0.0,0.0,0.0,0.0,0.0,0.0,0.0,0.0,0.0,0.0,0.0,0.0,0.0,0.0,0.0,0.0,0.0,0.0,0.0,0.0,0.0,0.0,0.0,0.0,0.0,0.0,0.0,0.0,0.0,0.0,0.0,0.0,0.0,0.0,0.0,0.0,0.0,0.0,0.0,0.0,0.0,0.0,0.0,0.0,0.0,0.0,0.0,0.0,0.0,0.0,0.0,0.0,0.0,0.0,0.0,0.0,0.0,0.0,0.0,0.0,0.0,0.0,0.0,0.0,0.0,0.0,0.0,0.0,0.0,0.0,0.0,0.0,0.0,0.0,0.0,0.0,0.0,0.0,0.0,0.0,0.0,0.0,0.0,0.0,0.0,0.0,0.0,0.0,0.0,0.0,0.0,0.0,0.0,0.0,0.0,0.0,0.0,0.0,0.0,0.0,0.0,0.0,0.0,0.0,0.0,0.0,0.0,0.0,0.0,0.0,0.0,0.0,0.0,0.0,0.0,0.0,0.0,0.0,0.0,0.0,0.0,0.0,0.0,0.0,0.0,0.0,0.0,0.0,0.0,0.0,0.0,0.0,0.0,0.0,0.0,0.0,0.0,0.0,0.0,0.0,0.0,0.0,0.0,0.0,0.0,0.0,0.0,0.0,0.0,0.0,0.0,0.0,0.0,0.0,0.0,0.0,0.0,0.0,0.0,0.0,0.0,0.0,0.0,0.0,0.0,0.0,0.0,0.0,0.0,0.0,0.0,3.0419,0.0,0.0,0.0,0.0,0.0,0.0,0.0,0.0,0.0,0.0,0.0,0.0,0.0,0.0,0.0,0.0,0.0,0.0,0.0,0.0,0.0,0.0,0.0,0.0,0.0,0.0,0.0,0.0,0.0,0.0,0.0,0.0,0.0,0.0,0.0,0.0,0.0,0.0,0.0,0.0,0.0,0.0,0.0,0.0,0.0,0.0,0.0,0.0,0.0,0.0,0.0,0.0,0.0,0.0,0.0,0.0,0.0,0.0,0.0,0.0,0.0,0.0,0.0,0.0,0.0,0.0,0.0,0.0,0.0,0.0,0.0,0.0,0.0,0.0,0.0,0.0,0.0,0.0,0.0,0.0,0.0,0.0,0.0,0.0,0.0,0.0,0.0,0.0,0.0,0.0,0.0,0.0,0.0,0.0,0.0,0.0,0.0,0.0,0.0,0.0,0.0,0.0,0.0,0.0,0.0,0.0,0.0,0.0,0.0,0.0,3.2313,3.2292,3.1871,3.1453,3.1085,0.0,0.0,0.0,0.0,0.0,0.0,0.0,0.0,0.0,0.0,0.0,0.0,0.0,0.0,0.0,0.0,0.0,0.0,0.0,0.0,0.0,0.0,0.0,0.0,0.0,0.0,0.0,0.0,0.0,0.0,0.0,0.0,0.0,0.0,0.0,0.0,0.0,0.0,0.0,0.0,0.0,0.0,0.0,0.0,0.0,0.0,0.0,0.0,0.0,0.0,0.0,0.0,0.0,0.0,0.0,0.0,0.0,0.0,0.0,0.0,0.0,0.0,0.0,0.0,0.0,0.0,0.0,0.0,0.0,0.0,0.0,0.0,0.0,0.0,0.0,0.0,0.0,0.0,0.0,0.0,0.0,0.0,0.0,0.0,0.0,0.0,0.0,0.0,0.0,0.0,0.0,0.0,0.0,0.0,0.0,0.0,0.0,0.0,0.0,0.0,0.0,0.0,0.0,0.0,0.0,0.0,0.0,0.0,0.0,0.0,0.0,0.0,3.2513,3.1985,3.1627,0.0,0.0,0.0,0.0,0.0,0.0,0.0,0.0,0.0,0.0,0.0,0.0,0.0,0.0,0.0,0.0,0.0,0.0,0.0,0.0,0.0,0.0,0.0,0.0,0.0,0.0,0.0,0.0,0.0,0.0,0.0,0.0,0.0,0.0,0.0,0.0,0.0,0.0,0.0,0.0,0.0,0.0,0.0,0.0,0.0,0.0,0.0,0.0,0.0,0.0,0.0,0.0,0.0,0.0,0.0,0.0,0.0,0.0,0.0,0.0,0.0,0.0,0.0,0.0,0.0,0.0,0.0,0.0,0.0,0.0,0.0,0.0,0.0,0.0,0.0,0.0,0.0,0.0,0.0,0.0,0.0,0.0,0.0,0.0,0.0,0.0,0.0,0.0,0.0,0.0,0.0,0.0,0.0,0.0,0.0,0.0,0.0,0.0,0.0,0.0,0.0,0.0,0.0,0.0,0.0,0.0,0.0,0.0,0.0,0.0,3.3982,3.3979,3.3899,0.0,3.1748,0.0,0.0,0.0,0.0,0.0,0.0,0.0,0.0,0.0,0.0,0.0,0.0,0.0,0.0,0.0,0.0,0.0,0.0,0.0,0.0,0.0,0.0,0.0,0.0,0.0,0.0,0.0,0.0,0.0,0.0,0.0,0.0,0.0,0.0,0.0,0.0,0.0,0.0,0.0,0.0,0.0,0.0,0.0,0.0,0.0,0.0,0.0,0.0,0.0,0.0,0.0,0.0,0.0,0.0,0.0,0.0,0.0,0.0,0.0,0.0,0.0,0.0,0.0,0.0,0.0,0.0,0.0,0.0,0.0,0.0,0.0,0.0,0.0,0.0,0.0,0.0,0.0,0.0,0.0,0.0,0.0,0.0,0.0,0.0,0.0,0.0,0.0,0.0,0.0,0.0,0.0,0.0,0.0,0.0,0.0,0.0,0.0,0.0,0.0,0.0,0.0,0.0,0.0,0.0,0.0,0.0,0.0,0.0,0.0,0.0,0.0,3.6192,3.4776,3.3169,0.0,0.0,0.0,0.0,0.0,0.0,0.0,0.0,0.0,0.0,0.0,0.0,0.0,0.0,0.0,0.0,0.0,0.0,0.0,0.0,0.0,0.0,0.0,0.0,0.0,0.0,0.0,0.0,0.0,0.0,0.0,0.0,0.0,0.0,0.0,0.0,0.0,0.0,0.0,0.0,0.0,0.0,0.0,0.0,0.0,0.0,0.0,0.0,0.0,0.0,0.0,0.0,0.0,0.0,0.0,0.0,0.0,0.0,0.0,0.0,0.0,0.0,0.0,0.0,0.0,0.0,0.0,0.0,0.0,0.0,0.0,0.0,0.0,0.0,0.0,0.0,0.0,0.0,0.0,0.0,0.0,0.0,0.0,0.0,0.0,0.0,0.0,0.0,0.0,0.0,0.0,0.0,0.0,0.0,0.0,0.0,0.0,0.0,0.0,0.0,0.0,0.0,0.0,0.0,0.0,0.0,0.0,0.0,0.0,0.0,3.5603,0.0,3.7125,3.5085,3.3286,3.2106,0.0,0.0,0.0,0.0,0.0,0.0,0.0,0.0,0.0,0.0,0.0,0.0,0.0,0.0,0.0,0.0,0.0,0.0,0.0,0.0,0.0,0.0,0.0,0.0,0.0,0.0,0.0,0.0,0.0,0.0,0.0,0.0,0.0,0.0,0.0,0.0,0.0,0.0,0.0,0.0,0.0,0.0,0.0,0.0,0.0,0.0,0.0,0.0,0.0,0.0,0.0,0.0,0.0,0.0,0.0,0.0,0.0,0.0,0.0,0.0,0.0,0.0,0.0,0.0,0.0,0.0,0.0,0.0,0.0,0.0,0.0,0.0,0.0,0.0,0.0,0.0,0.0,0.0,0.0,0.0,0.0,0.0,0.0,0.0,0.0,0.0,0.0,0.0,0.0,0.0,0.0,0.0,0.0,0.0,0.0,0.0,0.0,0.0,0.0,0.0,0.0,0.0,0.0,0.0,0.0,0.0,0.0,0.0,0.0,3.6368,3.636,3.6387,3.471,3.3774,0.0,0.0,0.0,0.0,0.0,0.0,0.0,0.0,0.0,0.0,0.0,0.0,0.0,0.0,0.0,0.0,0.0,0.0,0.0,0.0,0.0,0.0,0.0,0.0,0.0,0.0,0.0,0.0,0.0,0.0,0.0,0.0,0.0,0.0,0.0,0.0,0.0,0.0,0.0,0.0,0.0,0.0,0.0,0.0,0.0,0.0,0.0,0.0,0.0,0.0,0.0,0.0,0.0,0.0,0.0,0.0,0.0,0.0,0.0,0.0,0.0,0.0,0.0,0.0,0.0,0.0,0.0,0.0,0.0,0.0,0.0,0.0,0.0,0.0,0.0,0.0,0.0,0.0,0.0,0.0,0.0,0.0,0.0,0.0,0.0,0.0,0.0,0.0,0.0,0.0,0.0,0.0,0.0,0.0,0.0,0.0,0.0,0.0,0.0,0.0,0.0,0.0,0.0,0.0,0.0,0.0,0.0,0.0,0.0,3.6277,3.6841,3.683,3.624,3.51,3.4477,0.0,0.0,0.0,0.0,0.0,0.0,0.0,0.0,0.0,0.0,0.0,0.0,0.0,0.0,0.0,0.0,0.0,0.0,0.0,0.0,0.0,0.0,0.0,0.0,0.0,0.0,0.0,0.0,0.0,0.0,0.0,0.0,0.0,0.0,0.0,0.0,0.0,0.0,0.0,0.0,0.0,0.0,0.0,0.0,0.0,0.0,0.0,0.0,0.0,0.0,0.0,0.0,0.0,0.0,0.0,0.0,0.0,0.0,0.0,0.0,0.0,0.0,0.0,0.0,0.0,0.0,0.0,0.0,0.0,0.0,0.0,0.0,0.0,0.0,0.0,0.0,0.0,0.0,0.0,0.0,0.0,0.0,0.0,0.0,0.0,0.0,0.0,0.0,0.0,0.0,0.0,0.0,0.0,0.0,0.0,0.0,0.0,0.0,0.0,0.0,0.0,0.0,0.0,0.0,0.0,0.0,0.0,0.0,0.0,3.7421,0.0,3.8444,0.0,3.6366,3.5603,0.0,0.0,0.0,0.0,0.0,0.0,0.0,0.0,0.0,0.0,0.0,0.0,0.0,0.0,0.0,0.0,0.0,0.0,0.0,0.0,0.0,0.0,0.0,0.0,0.0,0.0,0.0,0.0,0.0,0.0,0.0,0.0,0.0,0.0,0.0,0.0,0.0,0.0,0.0,0.0,0.0,0.0,0.0,0.0,0.0,0.0,0.0,0.0,0.0,0.0,0.0,0.0,0.0,0.0,0.0,0.0,0.0,0.0,0.0,0.0,0.0,0.0,0.0,0.0,0.0,0.0,0.0,0.0,0.0,0.0,0.0,0.0,0.0,0.0,0.0,0.0,0.0,0.0,0.0,0.0,0.0,0.0,0.0,0.0,0.0,0.0,0.0,0.0,0.0,0.0,0.0,0.0,0.0,0.0,0.0,0.0,0.0,0.0,0.0,0.0,0.0,0.0,0.0,0.0,0.0,0.0,0.0,0.0,3.7566,3.992,4.1475,4.097,3.8745,3.8364,3.7138,0.0,0.0,0.0,0.0,0.0,0.0,0.0,0.0,0.0,0.0,0.0,0.0,0.0,0.0,0.0,0.0,0.0,0.0,0.0,0.0,0.0,0.0,0.0,0.0,0.0,0.0,0.0,0.0,0.0,0.0,0.0,0.0,0.0,0.0,0.0,0.0,0.0,0.0,0.0,0.0,0.0,0.0,0.0,0.0,0.0,0.0,0.0,0.0,0.0,0.0,0.0,0.0,0.0,0.0,0.0,0.0,0.0,0.0,0.0,0.0,0.0,0.0,0.0,0.0,0.0,0.0,0.0,0.0,0.0,0.0,0.0,0.0,0.0,0.0,0.0,0.0,0.0,0.0,0.0,0.0,0.0,0.0,0.0,0.0,0.0,0.0,0.0,0.0,0.0,0.0,0.0,0.0,0.0,0.0,0.0,0.0,0.0,0.0,0.0,0.0,0.0,0.0,0.0,0.0,0.0,0.0,0.0,0.0,0.0,4.153,4.045,4.0003,4.0181,3.853,3.7142,0.0,0.0,0.0,0.0,0.0,0.0,0.0,0.0,0.0,0.0,0.0,0.0,0.0,0.0,0.0,0.0,0.0,0.0,0.0,0.0,0.0,0.0,0.0,0.0,0.0,0.0,0.0,0.0,0.0,0.0,0.0,0.0,0.0,0.0,0.0,0.0,0.0,0.0,0.0,0.0,0.0,0.0,0.0,0.0,0.0,0.0,0.0,0.0,0.0,0.0,0.0,0.0,0.0,0.0,0.0,0.0,0.0,0.0,0.0,0.0,0.0,0.0,0.0,0.0,0.0,0.0,0.0,0.0,0.0,0.0,0.0,0.0,0.0,0.0,0.0,0.0,0.0,0.0,0.0,0.0,0.0,0.0,0.0,0.0,0.0,0.0,0.0,0.0,0.0,0.0,0.0,0.0,0.0,0.0,0.0,0.0,0.0,0.0,0.0,0.0,0.0,0.0,0.0,0.0,0.0,0.0,0.0,0.0,0.0,4.4688,4.3227,4.2526,4.2838,4.1286,3.9605,3.7785,0.0,0.0,0.0,0.0,0.0,0.0,0.0,0.0,0.0,0.0,0.0,0.0,0.0,0.0,0.0,0.0,0.0,0.0,0.0,0.0,0.0,0.0,0.0,0.0,0.0,0.0,0.0,0.0,0.0,0.0,0.0,0.0,0.0,0.0,0.0,0.0,0.0,0.0,0.0,0.0,0.0,0.0,0.0,0.0,0.0,0.0,0.0,0.0,0.0,0.0,0.0,0.0,0.0,0.0,0.0,0.0,0.0,0.0,0.0,0.0,0.0,0.0,0.0,0.0,0.0,0.0,0.0,0.0,0.0,0.0,0.0,0.0,0.0,0.0,0.0,0.0,0.0,0.0,0.0,0.0,0.0,0.0,0.0,0.0,0.0,0.0,0.0,0.0,0.0,0.0,0.0,0.0,0.0,0.0,0.0,0.0,0.0,0.0,0.0,0.0,0.0,0.0,0.0,0.0,0.0,0.0,0.0,0.0,4.9102,4.8923,4.7923,4.6245,4.5858,4.3741,0.0,0.0,0.0,0.0,0.0,0.0,0.0,0.0,0.0,0.0,0.0,0.0,0.0,0.0,0.0,0.0,0.0,0.0,0.0,0.0,0.0,0.0,0.0,0.0,0.0,0.0,0.0,0.0,0.0,0.0,0.0,0.0,0.0,0.0,0.0,0.0,0.0,0.0,0.0,0.0,0.0,0.0,0.0,0.0,0.0,0.0,0.0,0.0,0.0,0.0,0.0,0.0,0.0,0.0,0.0,0.0,0.0,0.0,0.0,0.0,0.0,0.0,0.0,0.0,0.0,0.0,0.0,0.0,0.0,0.0,0.0,0.0,0.0,0.0,0.0,0.0,0.0,0.0,0.0,0.0,0.0,0.0,0.0,0.0,0.0,0.0,0.0,0.0,0.0,0.0,0.0,0.0,0.0,0.0,0.0,0.0,0.0,0.0,0.0,0.0,0.0,0.0,0.0,0.0,0.0,0.0,0.0,0.0,0.0,4.9793,5.1592,5.1402,4.9106,4.6168,4.3099,0.0,0.0,0.0,0.0,0.0,0.0,0.0,0.0,0.0,0.0,0.0,0.0,0.0,0.0,0.0,0.0,0.0,0.0,0.0,0.0,0.0,0.0,0.0,0.0,0.0,0.0,0.0,0.0,0.0,0.0,0.0,0.0,0.0,0.0,0.0,0.0,0.0,0.0,0.0,0.0,0.0,0.0,0.0,0.0,0.0,0.0,0.0,0.0,0.0,0.0,0.0,0.0,0.0,0.0,0.0,0.0,0.0,0.0,0.0,0.0,0.0,0.0,0.0,0.0,0.0,0.0,0.0,0.0,0.0,0.0,0.0,0.0,0.0,0.0,0.0,0.0,0.0,0.0,0.0,0.0,0.0,0.0,0.0,0.0,0.0,0.0,0.0,0.0,0.0,0.0,0.0,0.0,0.0,0.0,0.0,0.0,0.0,0.0,0.0,0.0,0.0,0.0,0.0,0.0,0.0,0.0,0.0,0.0,4.7305,5.0931,5.2713,5.3082,5.2007,4.8519,4.5125,0.0,0.0,0.0,0.0,0.0,0.0,0.0,0.0,0.0,0.0,0.0,0.0,0.0,0.0,0.0,0.0,0.0,0.0,0.0,0.0,0.0,0.0,0.0,0.0,0.0,0.0,0.0,0.0,0.0,0.0,0.0,0.0,0.0,0.0,0.0,0.0,0.0,0.0,0.0,0.0,0.0,0.0,0.0,0.0,0.0,0.0,0.0,0.0,0.0,0.0,0.0,0.0,0.0,0.0,0.0,0.0,0.0,0.0,0.0,0.0,0.0,0.0,0.0,0.0,0.0,0.0,0.0,0.0,0.0,0.0,0.0,0.0,0.0,0.0,0.0,0.0,0.0,0.0,0.0,0.0,0.0,0.0,0.0,0.0,0.0,0.0,0.0,0.0,0.0,0.0,0.0,0.0,0.0,0.0,0.0,0.0,0.0,0.0,0.0,0.0,0.0,0.0,0.0,0.0,0.0,0.0,0.0,0.0,4.8117,5.1967,5.2747,5.3398,5.4006,5.1477,4.8047,0.0,0.0,0.0,0.0,0.0,0.0,0.0,0.0,0.0,0.0,0.0,0.0,0.0,0.0,0.0,0.0,0.0,0.0,0.0,0.0,0.0,0.0,0.0,0.0,0.0,0.0,0.0,0.0,0.0,0.0,0.0,0.0,0.0,0.0,0.0,0.0,0.0,0.0,0.0,0.0,0.0,0.0,0.0,0.0,0.0,0.0,0.0,0.0,0.0,0.0,0.0,0.0,0.0,0.0,0.0,0.0,0.0,0.0,0.0,0.0,0.0,0.0,0.0,0.0,0.0,0.0,0.0,0.0,0.0,0.0,0.0,0.0,0.0,0.0,0.0,0.0,0.0,0.0,0.0,0.0,0.0,0.0,0.0,0.0,0.0,0.0,0.0,0.0,0.0,0.0,0.0,0.0,0.0,0.0,0.0,0.0,0.0,0.0,0.0,0.0,0.0,0.0,0.0,0.0,0.0,0.0,0.0,0.0,4.8668,5.1908,5.2176,5.2349,5.2501,5.0119,4.7214,0.0,0.0,0.0,0.0,0.0,0.0,0.0,0.0,0.0,0.0,0.0,0.0,0.0,0.0,0.0,0.0,0.0,0.0,0.0,0.0,0.0,0.0,0.0,0.0,0.0,0.0,0.0,0.0,0.0,0.0,0.0,0.0,0.0,0.0,0.0,0.0,0.0,0.0,0.0,0.0,0.0,0.0,0.0,0.0,0.0,0.0,0.0,0.0,3.8136,0.0,0.0,0.0,0.0,0.0,0.0,0.0,0.0,0.0,0.0,0.0,0.0,0.0,0.0,0.0,0.0,0.0,0.0,0.0,0.0,0.0,0.0,0.0,0.0,0.0,0.0,0.0,0.0,0.0,0.0,0.0,0.0,0.0,0.0,0.0,0.0,0.0,0.0,0.0,0.0,0.0,0.0,0.0,0.0,0.0,0.0,0.0,0.0,0.0,0.0,0.0,0.0,0.0,0.0,0.0,0.0,0.0,0.0,0.0,4.8023,5.1803,5.1253,5.1221,5.1877,4.9667,4.6843,0.0,0.0,0.0,0.0,0.0,0.0,0.0,0.0,0.0,0.0,0.0,0.0,0.0,0.0,0.0,0.0,0.0,0.0,0.0,0.0,0.0,0.0,0.0,0.0,0.0,0.0,0.0,0.0,0.0,0.0,0.0,0.0,0.0,0.0,0.0,0.0,0.0,0.0,0.0,0.0,0.0,0.0,0.0,0.0,0.0,0.0,0.0,0.0,0.0,0.0,0.0,0.0,0.0,0.0,0.0,0.0,0.0,0.0,0.0,0.0,0.0,0.0,0.0,0.0,0.0,0.0,0.0,0.0,0.0,0.0,0.0,0.0,0.0,0.0,0.0,0.0,0.0,0.0,0.0,0.0,0.0,0.0,0.0,0.0,0.0,0.0,0.0,0.0,0.0,0.0,0.0,0.0,0.0,0.0,0.0,0.0,0.0,0.0,0.0,0.0,0.0,0.0,0.0,0.0,0.0,0.0,0.0,4.4488,4.7127,5.1505,5.0225,5.0046,5.1358,4.9297,4.6686,4.3579,0.0,0.0,0.0,0.0,0.0,0.0,0.0,0.0,0.0,0.0,0.0,0.0,0.0,0.0,0.0,0.0,0.0,0.0,0.0,0.0,0.0,0.0,0.0,0.0,0.0,0.0,0.0,0.0,0.0,0.0,0.0,0.0,0.0,0.0,0.0,0.0,0.0,0.0,3.3379,3.5122,0.0,0.0,0.0,0.0,0.0,0.0,0.0,0.0,3.8988,0.0,0.0,0.0,0.0,0.0,0.0,0.0,0.0,0.0,0.0,0.0,0.0,0.0,0.0,0.0,0.0,0.0,0.0,0.0,0.0,0.0,0.0,0.0,0.0,0.0,0.0,0.0,0.0,0.0,0.0,0.0,0.0,0.0,0.0,0.0,0.0,0.0,0.0,0.0,0.0,0.0,0.0,0.0,0.0,0.0,0.0,0.0,0.0,0.0,0.0,0.0,0.0,0.0,0.0,0.0,0.0,4.4484,4.5292,4.7425,5.087,4.9366,4.8631,4.8852,4.7856,4.6094,4.3506,0.0,0.0,0.0,0.0,0.0,0.0,0.0,0.0,0.0,0.0,0.0,0.0,0.0,0.0,0.0,0.0,0.0,0.0,0.0,0.0,0.0,0.0,0.0,0.0,0.0,0.0,0.0,0.0,0.0,0.0,0.0,0.0,0.0,0.0,0.0,0.0,0.0,0.0,0.0,3.7837,3.9748,0.0,0.0,0.0,0.0,0.0,0.0,0.0,0.0,4.1466,0.0,0.0,0.0,0.0,0.0,0.0,0.0,0.0,0.0,0.0,0.0,0.0,0.0,0.0,0.0,0.0,0.0,0.0,0.0,0.0,0.0,0.0,0.0,0.0,0.0,0.0,0.0,0.0,0.0,0.0,0.0,0.0,0.0,0.0,0.0,0.0,0.0,0.0,0.0,0.0,0.0,0.0,0.0,0.0,0.0,0.0,0.0,0.0,0.0,0.0,0.0,0.0,0.0,0.0,0.0,4.459,4.5906,4.7893,5.0655,4.9596,4.9155,4.9549,4.7961,4.5984,0.0,0.0,0.0,0.0,0.0,0.0,0.0,0.0,0.0,0.0,0.0,0.0,0.0,0.0,0.0,0.0,0.0,0.0,0.0,0.0,0.0,0.0,0.0,0.0,0.0,0.0,0.0,0.0,0.0,0.0,0.0,0.0,0.0,0.0,0.0,0.0,0.0,0.0,0.0,0.0,3.9135,4.0611,4.1403,0.0,0.0,0.0,0.0,0.0,0.0,4.241,4.2184,0.0,0.0,0.0,0.0,0.0,0.0,0.0,0.0,0.0,0.0,0.0,0.0,0.0,0.0,0.0,0.0,0.0,0.0,0.0,0.0,0.0,0.0,0.0,0.0,0.0,0.0,0.0,0.0,0.0,0.0,0.0,0.0,0.0,0.0,0.0,0.0,0.0,0.0,0.0,0.0,0.0,0.0,0.0,0.0,0.0,0.0,0.0,0.0,0.0,0.0,0.0,0.0,0.0,0.0,0.0,4.4626,4.631,4.8218,5.0398,4.9742,4.9632,5.021,4.8071,4.5801,0.0,0.0,0.0,0.0,0.0,0.0,0.0,0.0,0.0,0.0,0.0,0.0,0.0,0.0,0.0,0.0,0.0,0.0,0.0,0.0,0.0,0.0,0.0,0.0,0.0,0.0,0.0,0.0,0.0,0.0,0.0,0.0,0.0,0.0,0.0,0.0,0.0,0.0,0.0,0.0,0.0,4.1409,4.2329,4.1885,0.0,0.0,0.0,0.0,4.2543,4.2851,0.0,0.0,0.0,0.0,0.0,0.0,0.0,0.0,0.0,0.0,0.0,0.0,0.0,0.0,0.0,0.0,0.0,0.0,0.0,0.0,0.0,0.0,0.0,0.0,0.0,0.0,0.0,0.0,0.0,0.0,0.0,0.0,0.0,0.0,0.0,0.0,0.0,0.0,0.0,0.0,0.0,0.0,0.0,0.0,0.0,0.0,0.0,0.0,0.0,0.0,0.0,0.0,0.0,0.0,0.0,0.0,4.4626,4.6273,4.7966,4.9601,4.8898,4.8485,4.8558,4.6948,4.5227,0.0,0.0,0.0,0.0,0.0,0.0,0.0,0.0,0.0,0.0,0.0,0.0,0.0,0.0,0.0,0.0,0.0,0.0,0.0,0.0,0.0,0.0,0.0,0.0,0.0,0.0,0.0,0.0,0.0,0.0,0.0,0.0,0.0,0.0,0.0,0.0,0.0,0.0,0.0,0.0,0.0,4.3943,4.2609,4.5169,4.6465,0.0,0.0,4.5772,4.512,4.5601,0.0,0.0,0.0,0.0,0.0,0.0,0.0,0.0,0.0,0.0,0.0,0.0,0.0,0.0,0.0,0.0,0.0,0.0,0.0,0.0,0.0,0.0,0.0,0.0,0.0,0.0,0.0,0.0,0.0,0.0,0.0,0.0,0.0,0.0,0.0,0.0,0.0,0.0,0.0,0.0,0.0,0.0,0.0,0.0,0.0,0.0,0.0,0.0,0.0,0.0,0.0,0.0,0.0,0.0,0.0,4.1621,4.4011,4.6503,4.8375,4.9532,4.9233,4.9045,4.905,4.6989,4.4933,0.0,0.0,0.0,0.0,0.0,0.0,0.0,0.0,0.0,0.0,0.0,0.0,0.0,0.0,0.0,0.0,0.0,0.0,0.0,0.0,0.0,0.0,0.0,0.0,0.0,0.0,0.0,0.0,0.0,0.0,0.0,0.0,0.0,0.0,0.0,0.0,0.0,0.0,0.0,0.0,0.0,0.0,4.6348,4.6907,0.0,0.0,0.0,4.6,4.605,0.0,0.0,0.0,0.0,0.0,0.0,0.0,0.0,0.0,0.0,0.0,0.0,0.0,0.0,0.0,0.0,0.0,0.0,0.0,0.0,0.0,0.0,0.0,0.0,0.0,0.0,0.0,0.0,0.0,0.0,0.0,0.0,0.0,0.0,0.0,0.0,0.0,0.0,0.0,0.0,0.0,0.0,0.0,0.0,0.0,0.0,0.0,0.0,0.0,0.0,0.0,0.0,0.0,0.0,0.0,0.0,0.0,4.38,4.6764,4.86,4.9233,4.9275,4.9275,4.9233,4.7063,0.0,0.0,0.0,0.0,0.0,0.0,0.0,0.0,0.0,0.0,0.0,0.0,0.0,0.0,0.0,0.0,0.0,0.0,0.0,0.0,0.0,0.0,0.0,0.0,0.0,0.0,0.0,2.7587,0.0,0.0,0.0,0.0,0.0,0.0,0.0,0.0,0.0,0.0,0.0,0.0,0.0,0.0,4.7555,4.8355,4.8239,4.8335,0.0,0.0,4.6702,4.7128,4.6669,4.6156,0.0,0.0,0.0,0.0,0.0,0.0,0.0,0.0,0.0,0.0,0.0,0.0,0.0,0.0,0.0,0.0,0.0,0.0,0.0,0.0,0.0,0.0,0.0,0.0,0.0,0.0,0.0,0.0,0.0,0.0,0.0,0.0,0.0,0.0,0.0,0.0,0.0,0.0,0.0,0.0,0.0,0.0,0.0,0.0,0.0,0.0,0.0,0.0,0.0,0.0,0.0,0.0,0.0,0.0,0.0,4.4626,4.7053,4.8338,4.8411,4.8375,4.8375,4.8375,4.6764,4.5117,0.0,0.0,0.0,0.0,0.0,0.0,0.0,0.0,0.0,0.0,0.0,0.0,0.0,0.0,0.0,0.0,0.0,0.0,0.0,0.0,0.0,0.0,0.0,0.0,0.0,0.0,0.0,0.0,0.0,0.0,0.0,0.0,0.0,0.0,0.0,0.0,0.0,0.0,0.0,0.0,0.0,4.7496,4.6061,4.9495,5.1388,0.0,0.0,4.9563,4.8857,4.8709,4.8181,4.678,0.0,0.0,0.0,0.0,0.0,0.0,0.0,0.0,0.0,0.0,0.0,0.0,0.0,0.0,0.0,0.0,0.0,0.0,0.0,0.0,0.0,0.0,0.0,0.0,0.0,0.0,0.0,0.0,0.0,0.0,0.0,0.0,0.0,0.0,0.0,0.0,0.0,0.0,0.0,0.0,0.0,0.0,0.0,0.0,0.0,0.0,0.0,0.0,0.0,0.0,0.0,0.0,0.0,4.3089,4.47,4.7085,4.8296,4.8296,4.8296,4.8296,4.8296,4.72,4.5659,0.0,0.0,0.0,0.0,0.0,0.0,0.0,0.0,0.0,0.0,0.0,0.0,0.0,0.0,0.0,0.0,0.0,0.0,0.0,0.0,0.0,0.0,0.0,0.0,0.0,0.0,0.0,0.0,3.335,3.4531,3.5014,0.0,0.0,0.0,0.0,0.0,0.0,0.0,0.0,0.0,0.0,4.9096,4.9861,5.0609,0.0,0.0,5.1045,5.0595,4.9777,4.9624,4.9126,4.7524,4.6335,0.0,0.0,0.0,0.0,0.0,0.0,0.0,0.0,0.0,0.0,0.0,0.0,0.0,0.0,0.0,0.0,0.0,0.0,0.0,0.0,0.0,0.0,0.0,0.0,0.0,0.0,0.0,0.0,0.0,0.0,0.0,0.0,0.0,0.0,0.0,0.0,0.0,0.0,0.0,0.0,0.0,0.0,0.0,0.0,0.0,0.0,0.0,0.0,0.0,0.0,0.0,0.0,4.3424,4.5067,4.7195,4.8411,4.871,4.8411,4.8411,4.8631,4.7636,4.609,0.0,0.0,0.0,0.0,0.0,0.0,0.0,0.0,0.0,0.0,0.0,0.0,0.0,0.0,0.0,0.0,0.0,0.0,0.0,0.0,0.0,0.0,0.0,0.0,0.0,0.0,0.0,0.0,3.4973,3.6345,3.7461,0.0,0.0,0.0,0.0,0.0,0.0,0.0,0.0,0.0,0.0,5.0563,5.2115,5.1689,5.1639,5.2786,5.2271,5.156,5.0924,5.0446,4.9666,4.8291,0.0,0.0,0.0,0.0,0.0,0.0,0.0,0.0,0.0,0.0,0.0,0.0,0.0,0.0,0.0,0.0,0.0,0.0,0.0,0.0,0.0,0.0,0.0,0.0,0.0,0.0,0.0,3.6086,0.0,0.0,3.3583,0.0,0.0,0.0,0.0,0.0,0.0,0.0,0.0,0.0,0.0,0.0,0.0,0.0,0.0,0.0,0.0,0.0,0.0,0.0,0.0,0.0,0.0,4.4277,4.5851,4.7457,4.871,4.95,4.8751,4.8705,4.9444,4.7971,4.6347,4.4737,0.0,0.0,0.0,0.0,0.0,0.0,0.0,0.0,0.0,0.0,0.0,0.0,0.0,0.0,0.0,0.0,0.0,0.0,0.0,0.0,0.0,0.0,0.0,0.0,0.0,0.0,3.4408,3.5739,3.7335,0.0,0.0,0.0,0.0,0.0,0.0,0.0,0.0,0.0,0.0,5.0015,5.1472,5.158,5.2772,5.3636,5.3747,5.3121,5.2563,5.2526,5.1231,4.9893,0.0,0.0,0.0,0.0,0.0,0.0,0.0,0.0,0.0,0.0,0.0,0.0,0.0,0.0,0.0,0.0,0.0,0.0,0.0,0.0,0.0,0.0,0.0,0.0,0.0,0.0,0.0,4.0524,4.0194,0.0,0.0,0.0,0.0,0.0,0.0,0.0,0.0,0.0,0.0,0.0,4.3525,4.4044,0.0,0.0,0.0,0.0,0.0,0.0,0.0,0.0,0.0,0.0,0.0,0.0,4.4819,4.5925,4.7498,4.8715,4.9569,4.9312,4.9137,4.9071,4.8866,4.7719,4.5548,0.0,0.0,0.0,0.0,0.0,0.0,0.0,0.0,0.0,0.0,0.0,0.0,0.0,0.0,0.0,0.0,0.0,0.0,0.0,0.0,0.0,0.0,0.0,0.0,0.0,3.6608,0.0,0.0,0.0,0.0,0.0,0.0,0.0,0.0,0.0,0.0,0.0,4.911,5.0889,5.1354,5.1855,5.2875,5.2991,5.3381,0.0,0.0,0.0,0.0,0.0,0.0,0.0,0.0,0.0,0.0,0.0,0.0,0.0,0.0,4.9563,4.7657,4.7326,4.7351,4.7338,0.0,0.0,0.0,0.0,0.0,0.0,0.0,0.0,0.0,0.0,0.0,0.0,0.0,0.0,4.4346,0.0,4.3236,0.0,0.0,0.0,0.0,0.0,0.0,0.0,0.0,4.6324,4.6828,4.6828,4.7347,4.7168,0.0,4.6397,4.464,0.0,0.0,0.0,0.0,0.0,0.0,0.0,0.0,4.5223,4.6319,4.7939,4.9077,4.9699,4.9731,4.97,4.9641,4.9297,4.8065,4.5739,4.352,4.1665,0.0,0.0,0.0,0.0,0.0,0.0,0.0,0.0,0.0,0.0,0.0,0.0,0.0,0.0,0.0,0.0,0.0,0.0,0.0,0.0,0.0,0.0,0.0,3.842,0.0,0.0,0.0,0.0,0.0,0.0,0.0,0.0,0.0,4.9259,5.0395,5.1815,5.3293,5.3316,5.3521,5.4542,0.0,0.0,0.0,0.0,0.0,0.0,0.0,5.2415,5.1895,5.202,5.227,5.2492,5.2756,5.2914,5.2933,0.0,0.0,5.099,5.0376,5.0196,5.0217,4.9744,4.9344,4.9397,4.9108,4.8944,0.0,0.0,0.0,0.0,0.0,0.0,0.0,0.0,4.6581,4.709,0.0,4.6801,0.0,0.0,0.0,0.0,0.0,4.6415,0.0,0.0,4.9994,5.0834,5.0797,5.0797,5.043,4.9696,4.9596,4.9109,4.8047,4.4347,0.0,0.0,0.0,0.0,0.0,0.0,4.548,4.7071,4.869,4.9699,5.0008,5.002,5.0371,5.1009,4.9273,4.7368,4.5422,4.492,4.3424,4.0741,4.0189,0.0,0.0,0.0,0.0,0.0,0.0,0.0,0.0,0.0,0.0,0.0,0.0,0.0,0.0,0.0,0.0,0.0,0.0,0.0,0.0,3.7711,0.0,0.0,0.0,0.0,0.0,0.0,0.0,0.0,0.0,0.0,5.1636,5.3656,5.5149,5.5099,0.0,0.0,0.0,0.0,5.6278,5.632,5.5572,5.5047,5.5085,5.3789,5.2754,5.2749,0.0,0.0,5.4599,5.4109,5.3664,5.364,5.3795,5.3699,5.3927,5.3134,5.2558,5.2525,5.2446,5.2577,5.2619,5.2742,5.3008,5.2627,0.0,0.0,0.0,0.0,4.871,5.0063,5.2302,5.2082,5.1903,5.1746,5.0692,0.0,0.0,0.0,0.0,0.0,0.0,4.9334,5.0136,5.1169,5.1651,5.1688,5.2228,5.1914,5.0775,5.1135,5.0717,4.9465,4.7736,4.6389,4.5467,0.0,0.0,0.0,0.0,4.6466,4.7121,4.8315,4.9492,5.0561,5.0374,5.0128,4.9787,4.8716,4.776,4.6928,4.5946,4.5089,4.4323,4.2268,0.0,0.0,0.0,0.0,0.0,0.0,0.0,0.0,0.0,0.0,0.0,0.0,0.0,0.0,0.0,0.0,0.0,0.0,0.0,3.7009,3.8343,4.0501,0.0,0.0,0.0,0.0,0.0,0.0,0.0,0.0,0.0,5.5681,5.5347,5.5485,0.0,0.0,5.6315,5.6315,5.6315,5.6501,5.7058,5.6459,0.0,5.6687,5.5907,5.5213,5.5139,5.5172,5.5369,5.5647,5.5886,5.6066,5.6045,5.6557,5.7011,5.6916,5.4939,5.3386,5.3213,5.3163,5.3143,5.3235,5.336,5.3529,5.8421,5.4598,5.2191,5.1935,5.3146,5.3183,5.399,5.5311,5.5023,5.462,5.41,5.3303,5.238,5.1389,5.0577,0.0,0.0,0.0,5.1532,5.2223,5.2504,5.2739,5.2957,5.2928,5.2467,5.1719,5.1774,5.1418,5.0597,4.9717,4.8902,4.7989,0.0,0.0,4.631,4.6844,4.7347,4.7954,4.9081,4.9915,5.0319,5.0482,5.0023,4.893,4.8645,4.8066,4.709,4.6666,4.6169,4.5503,4.3792,4.2026,0.0,0.0,0.0,0.0,0.0,0.0,0.0,0.0,0.0,0.0,0.0,3.8832,3.9485,0.0,0.0,0.0,3.6693,3.6894,3.8718,4.0795,0.0,0.0,0.0,0.0,0.0,0.0,0.0,5.4606,5.6538,5.7913,5.8358,5.7573,5.7202,5.787,5.7541,5.7239,5.7244,0.0,5.743,5.7913,5.7281,5.6932,5.7331,5.6732,5.6279,5.6451,5.5905,5.5761,5.6313,5.6303,5.6223,5.6515,5.6949,5.7297,5.7275,5.5628,5.4496,5.4864,5.4869,5.4838,5.4927,5.5075,5.536,6.2364,6.0802,5.7503,5.6429,5.6905,5.6947,5.6936,5.6868,5.6074,5.5719,5.5615,5.4798,5.4453,5.4382,5.3717,0.0,5.3317,5.3501,5.3857,5.4336,5.3828,5.3857,5.4283,5.3074,5.2428,5.2334,5.1841,5.157,5.1484,5.0658,5.019,4.9953,4.7174,4.6354,4.746,4.7573,4.8138,4.9204,5.0447,5.0581,4.9571,5.0382,5.0037,4.8325,4.8799,4.8121,4.6236,4.6825,4.6545,4.5018,4.4678,4.3365,4.0809,0.0,0.0,0.0,0.0,0.0,0.0,0.0,0.0,0.0,0.0,0.0,0.0,0.0,0.0,0.0,3.9479,0.0,4.091,4.4436,0.0,0.0,0.0,5.2382,5.3938,5.5577,5.6575,5.6575,0.0,0.0,6.0025,5.9945,5.9621,5.8916,5.873,5.8687,5.8687,5.8645,5.8672,5.8629,5.8073,5.7512,5.7444,5.6816,5.6504,5.7007,5.5931,5.5563,5.6499,5.583,5.5196,5.5752,5.5742,5.5829,5.5832,5.5893,5.605,5.694,5.701,5.7015,5.693,5.7413,5.7669,6.3563,6.2592,6.1149,5.9592,5.8099,5.8106,5.8099,5.8034,5.7301,5.6625,5.6015,5.5195,5.4782,5.4638,5.4894,5.4782,5.4361,5.4381,5.4229,5.3981,5.426,5.4242,5.3939,5.3532,5.2862,5.2048,5.1734,5.1379,5.101,5.0753,5.0542,5.025,4.8776,4.8222,4.8597,4.8645,4.8889,4.9341,4.9859,4.9782,4.9049,5.0568,5.0027,4.7094,4.7538,4.7038,4.5344,4.4615,4.4546,4.5125,4.3888,4.3048,4.2761,4.0835,0.0,0.0,0.0,0.0,0.0,0.0,0.0,0.0,0.0,4.3718,4.4098,0.0,4.3972,0.0,4.3113,4.3689,4.5774,4.7404,0.0,0.0,5.4128,5.5535,5.6538,5.8061,5.9027,5.9022,6.0141,6.0884,6.0884,6.029,5.9839,5.9621,5.9096,5.8687,5.8687,5.8614,5.8561,5.8519,5.8349,5.8168,5.8061,5.7519,5.7206,5.7956,5.6885,5.6259,5.7012,5.6486,5.6126,5.661,5.6739,5.6927,5.7269,5.744,5.7452,5.7698,5.731,5.6858,5.6895,5.7508,5.7975,6.3586,6.2848,6.1723,6.046,5.9265,5.9472,5.9365,5.8987,5.8609,5.779,5.6677,5.5934,5.5508,5.5455,5.5763,5.5738,5.5387,5.5134,5.4975,5.4922,5.4618,5.4413,5.436,5.3667,5.2981,5.2383,5.2031,5.1724,5.1442,5.1435,5.1179,5.0731,5.0118,4.9722,4.9539,4.9354,4.9405,4.9654,4.9463,4.918,4.8818,4.9481,4.8822,4.6692,4.6528,4.5936,4.4723,4.3962,4.3834,4.4349,4.3671,4.3084,4.2825,4.183,4.1037,0.0,0.0,0.0,0.0,0.0,0.0,0.0,0.0,0.0,0.0,0.0,4.7598,4.7283,4.6933,4.759,4.9707,5.1305,5.3232,5.5721,5.7132,5.821,5.9064,6.0248,6.1028,6.1028,6.1689,6.2181,6.2144,6.1389,6.0826,6.0826,5.9623,5.8666,5.8593,5.8519,5.8465,5.8513,5.8432,5.8288,5.7971,5.7309,5.6996,5.7266,5.657,5.6117,5.6731,5.6344,5.6089,5.6609,5.674,5.6821,5.7176,5.7224,5.7258,5.7173,5.6877,5.6794,5.7244,5.7703,5.8002,6.3119,6.2376,6.1056,6.0401,6.0255,6.0642,6.0326,5.9593,5.9486,5.8599,5.7143,5.6587,5.6293,5.6193,5.6269,5.6255,5.6152,5.5629,5.5629,5.5998,5.4888,5.4585,5.4969,5.3746,5.314,5.3033,5.2458,5.2195,5.2195,5.2195,5.185,5.1272,5.1141,5.0828,5.033,4.9867,4.9777,5.0012,4.9314,4.8886,4.8679,4.8134,4.7403,4.6479,4.5776,4.5065,4.4358,4.4117,4.3822,4.3411,4.3683,4.3417,4.2558,4.2788,4.239,0.0,4.2428,0.0,0.0,0.0,0.0,0.0,0.0,0.0,0.0,5.0912,5.129,5.0781,5.0967,5.1746,5.3208,5.5501,5.7463,5.8794,5.9685,6.0464,6.1207,6.2029,6.2506,6.2506,6.3009,6.3347,6.3143,6.2499,6.1989,6.1668,6.0205,5.9039,5.8694,5.8415,5.8262,5.8443,5.8329,5.7908,5.7278,5.6596,5.6235,5.6241,5.5752,5.5499,5.609,5.568,5.5479,5.6016,5.6172,5.6225,5.6276,5.6329,5.6323,5.6381,5.6344,5.66,5.7401,5.7648,5.7772,6.3159,6.248,6.2195,6.1341,6.0211,6.0315,5.9861,5.9081,5.8507,5.7388,5.6004,5.6325,5.6134,5.5636,5.6083,5.6034,5.555,5.5433,5.5194,5.485,5.5077,5.4969,5.4606,5.4194,5.3729,5.3291,5.2566,5.2195,5.2195,5.2195,5.2134,5.1996,5.1375,5.1053,5.0917,0.0,0.0,0.0,4.9896,4.9176,4.7996,4.8368,4.7645,4.5707,4.55,0.0,4.4311,4.3712,4.3553,4.3828,4.3641,0.0,0.0,0.0,0.0,0.0,0.0,0.0,0.0,0.0,0.0,0.0,5.2842,5.2852,5.2559,5.3345,5.3883,5.4037,5.5647,5.6932,5.7354,5.8898,6.0069,6.0396,6.1104,6.1695,6.188,6.2551,6.3069,6.3032,6.3162,6.3069,6.2583,6.2187,6.1824,6.139,6.0677,6.0054,5.9541,5.8385,5.7781,5.8116,5.7738,5.7147,5.6592,5.5978,5.5723,5.602,5.5365,5.4987,5.5409,5.5124,5.4888,5.5472,5.5565,5.575,5.617,5.6316,5.6244,5.6283,5.6274,5.6364,5.6579,5.6625,5.6589,6.3367,6.3022,6.2643,6.2022,0.0,6.053,5.9978,5.9521,5.8763,5.7797,5.671,5.6253,5.5854,5.5494,5.5444,5.5239,5.4965,5.4965,5.478,5.451,5.4803,5.4788,5.4494,5.4379,5.4198,5.3942,5.3555,5.3341,5.3341,5.3306,5.3141,5.2804,5.2417,5.2038,5.1644,5.09,5.0392,5.0099,4.9625,4.9024,4.8265,4.8231,4.7713,4.6576,4.6162,0.0,0.0,0.0,0.0,0.0,0.0,0.0,0.0,0.0,0.0,4.7351,4.808,4.9033,5.0223,5.103,5.231,5.4284,5.5516,5.5853,5.5131,5.5917,5.6683,5.7249,5.8407,5.9466,6.0341,6.1057,6.165,6.2025,6.2411,6.2586,6.2629,6.2955,6.3189,6.3177,6.3135,6.2984,6.2669,6.2225,6.188,6.1491,6.0732,6.0112,5.9693,5.8973,5.8336,5.7856,5.695,5.624,5.5894,5.5358,5.5013,5.5246,5.4903,5.4691,5.4903,5.4722,5.4612,5.4896,5.4965,5.5088,5.5351,5.5647,5.5779,5.5546,5.5654,5.5709,5.5521,5.5872,5.6367,6.3712,6.354,6.2953,6.2609,6.2402,6.1125,6.047,6.0151,0.0,0.0,0.0,5.6555,5.5927,5.5754,5.5176,5.4823,5.4693,5.4693,5.4624,5.4486,5.4486,5.4486,5.4486,5.4486,5.4486,5.4486,5.4486,5.4486,5.4486,5.4486,5.4218,5.3624,5.3494,5.2996,5.2195,5.1582,5.0996,5.0383,4.9479,4.8962,4.8782,4.8203,4.7824,4.772,4.7231,4.6996,4.7003,4.658,4.6383,4.641,4.66,4.7017,4.7609,4.8343,4.871,4.8725,4.9536,5.0475,5.1485,5.2209,5.355,5.5825,5.7019,5.7485,5.6971,5.7798,5.8714,5.9649,5.9868,6.0611,6.2122,6.2316,6.258,6.3209,6.3099,6.3002,6.3087,6.302,6.2978,6.3081,6.302,6.2843,6.2568,6.2162,6.1787,6.1477,6.0662,5.99,5.9749,5.9392,5.866,5.7447,5.6489,5.5732,5.5267,5.4873,5.451,5.4589,5.4534,5.4486,5.4486,5.4486,5.4486,5.4534,5.4494,5.4518,5.4534,5.4926,5.5036,5.4589,5.488,5.5162,5.485,5.535,5.6042,6.4152,6.3574,6.3505,6.3091,6.2471,6.2273,6.1436,6.0159,5.9349,5.8599,5.79,5.7667,5.7211,5.6633,5.6529,5.6107,5.5452,5.5452,5.5107,5.4521,5.4486,5.4486,5.4486,5.4486,5.4486,5.4486,5.4486,5.4486,5.4486,5.4486,5.4444,5.4279,5.3693,5.3004,5.2264,5.2099,5.1988,5.185,5.0555,4.9521,4.8817,4.8679,4.8334,4.7748,4.8231,4.8506,4.8472,4.9052,4.9434,4.9547,4.9589,4.9645,4.9742,4.9867,4.9894,4.9857,5.1052,5.2105,5.2811,5.412,5.532,5.6143,5.6427,5.6613,5.6827,5.7602,5.843,5.936,6.0045,6.0752,6.1767,6.2389,6.2757,6.2812,6.2412,6.2265,6.2706,6.2399,6.2265,6.2693,6.2836,6.2343,6.1527,6.1605,6.1393,6.0636,6.0377,6.047,5.9943,5.9186,5.8152,5.7005,5.6523,5.5886,5.5143,5.4623,5.459,5.4486,5.4555,5.4521,5.459,5.4521,5.4521,5.4486,5.4571,5.4563,5.4563,5.4542,5.474,5.4656,5.4744,5.4861,5.5086,5.5013,5.4884,6.4496,6.4152,6.3781,6.3402,6.3057,6.2678,6.185,6.0737,5.9978,5.9211,5.8495,5.8073,5.7728,5.7391,5.6978,5.6598,5.6245,5.5789,5.5409,5.5065,5.4685,5.4486,5.4486,5.4486,5.4486,5.4486,5.4486,5.4486,5.4486,5.4486,5.4486,5.4486,5.4142,5.3797,5.3452,5.3073,5.2866,5.2831,5.1762,5.0996,5.0644,5.0644,5.0479,5.0168,5.0471,5.0644,5.0651,5.0989,5.1198,5.1265,5.0885,5.1057,5.1867,5.1541,5.1442,5.1839,5.2452,5.2968,5.3269,5.4594,5.5644,5.6235,5.6668,5.696,5.7095,5.7807,5.8811,6.0084,6.0835,6.1596,6.2466,6.2763,6.2793,6.2451,6.2092,6.1883,6.1758,6.157,6.1464,6.1737,6.1785,6.1534,6.0953,6.087,6.0719,6.0081,6.0006,5.987,5.9937,5.9286,5.8431,5.7455,5.6955,5.6461,5.5819,5.5349,5.5314,5.5667,5.5046,5.4762,5.4935,5.4866,5.4555,5.4537,5.4791,5.5049,5.5097,5.5772,5.583,5.5221,5.5402,5.5521,5.508,5.4675,5.4518,6.4856,6.4559,6.4017,6.3701,6.3574,6.2988,6.2298,6.1539,6.0953,6.0185,5.9245,5.8478,5.8142,5.8073,5.7556,5.7219,5.6978,5.6418,5.6038,5.5823,5.528,5.5038,5.4969,5.4866,5.4728,5.472,5.4582,5.4486,5.4486,5.4486,5.4486,5.4486,5.4486,5.4486,5.4486,5.3935,5.3659,5.3624,5.3038,5.2548,5.2203,5.2195,5.2195,5.2203,5.2375,5.2402,5.2203,5.2368,5.2479,5.2437,5.1927,5.2176,5.3287,5.2831,5.2659,5.3107,5.3322,5.3494,5.3698,5.4586,5.5409,5.5879,5.6559,5.7069,5.7304,5.8075,5.9131,6.0441,6.1071,6.1739,6.2368,6.2506,6.235,6.1874,6.1598,6.1329,6.0981,6.076,6.0788,6.087,6.0922,6.0907,6.0653,6.029,5.9953,5.9719,5.9308,5.9241,5.9607,5.9291,5.8762,5.8211,5.7521,5.6994,5.6831,5.6288,5.6176,5.6744,5.5874,5.5521,5.5693,5.5383,5.5097,5.5198,5.5505,5.5836,5.5949,5.6607,5.6826,5.6111,5.6183,5.6134,5.5106,5.4664,5.4521,6.549,6.4504,6.4385,6.4043,6.359,6.3496,6.3039,6.2402,6.2298,6.1436,6.0064,5.9245,5.8883,5.8892,5.8797,5.8383,5.7831,5.7728,5.7322,5.6744,5.6624,5.6598,5.646,5.5823,5.5521,5.5417,5.4866,5.4555,5.459,5.4513,5.4486,5.4486,5.4486,5.4486,5.4486,5.4417,5.4383,5.4383,5.4306,5.3616,5.2272,5.2195,5.2195,5.2203,5.29,5.2935,5.2341,5.29,5.3279,5.3279,5.3176,5.3245,5.3391,5.3314,5.3004,5.2479,5.3004,5.3667,5.4322,5.4507,5.467,5.4702,5.5492,5.6219,5.6875,5.8125,5.9092,5.9715,5.9903,6.0439,6.0999,6.1193,6.12,6.1026,6.0598,6.0344,6.0668,6.0421,6.0282,6.0835,6.0773,6.0698,6.0149,5.9969,5.9754,5.9249,5.9123,5.9047,5.9166,5.9123,5.8995,5.8754,5.828,5.7598,5.7081,5.6771,5.6805,5.6874,5.6702,5.6564,5.6564,5.6606,5.6562,5.617,5.6544,5.6659,5.6695,5.6848,5.6925,5.6797,5.6698,5.6512,5.5665,5.5012,5.4683,6.6234,6.5661,6.4769,6.4027,6.343,6.3312,6.314,6.2924,6.2332,6.1718,6.1033,5.9901,5.9235,5.8995,5.8995,5.8832,5.8521,5.8099,5.7771,5.7426,5.7004,5.6797,5.6771,5.6495,5.6322,5.6245,5.5521,5.5168,5.5065,5.4728,5.4486,5.4486,5.4486,5.4486,5.4486,5.4486,5.4486,5.4486,5.4486,5.4168,5.3651,5.3548,5.3582,5.3582,5.3908,5.3935,5.3624,5.3892,5.4038,5.4038,5.3624,5.359,5.3996,5.3667,5.3452,5.3548,5.3866,5.4176,5.4486,5.4892,5.5168,5.5142,5.628,5.7107,5.7426,5.8391,5.9045,5.9311,5.9937,6.0551,6.0829,6.0915,6.0773,6.0444,6.0144,5.9961,5.9741,5.9572,5.9523,5.9741,5.9774,5.9709,5.9491,5.9408,5.9283,5.9038,5.8995,5.8995,5.8995,5.8995,5.8995,5.8969,5.8728,5.8487,5.8073,5.7702,5.7702,5.7805,5.7322,5.6874,5.7322,5.7012,5.6787,5.6836,5.7199,5.7423,5.7452,5.7825,5.8006,5.7667,5.6986,5.6682,5.6365,5.5705,5.5237,6.6643,6.6327,6.5133,6.4193,6.3532,6.3365,6.3256,6.3146,6.2441,6.2034,6.1683,6.0649,5.9914,5.9442,5.9107,5.8952,5.8926,5.8452,5.8202,5.8142,5.7625,5.7426,5.7391,5.7176,5.7107,5.6978,5.6314,5.5789,5.5547,5.4866,5.4486,5.4486,5.4486,5.4486,5.4486,5.4486,5.4486,5.4513,5.4439,5.4407,5.4373,5.4407,5.4431,5.4478,5.4486,5.4417,5.4211,5.4211,5.4211,5.4184,5.3701,5.3728,5.4417,5.3969,5.3935,5.4452,5.4693,5.4797,5.4823,5.5478,5.5935,5.6038,5.7176,5.79,5.8012,5.859,5.8961,5.9072,5.9854,6.0312,6.0386,6.0386,6.0153,5.9768,5.9746,5.9508,5.9115,5.8995,5.903,5.8995,5.9106,5.8995,5.9004,5.903,5.9021,5.9004,5.8995,5.8995,5.8995,5.8995,5.8995,5.8995,5.8995,5.8961,5.8961,5.8556,5.8556,5.859,5.8047,5.7728,5.8107,5.7659,5.7418,5.7873,5.8069,5.8146,5.8193,5.8642,5.8849,5.828,5.7667,5.715,5.7081,5.642,5.604,6.6518,6.5997,6.5405,6.4732,6.4074,6.402,6.363,6.3078,6.2922,6.2503,6.186,6.1655,6.1273,6.0533,5.9438,5.8901,5.9004,5.8918,5.8866,5.8866,5.8823,5.8866,5.8857,5.8176,5.7823,5.778,5.7091,5.6332,5.5582,5.49,5.4486,5.4486,5.4486,5.4486,5.4471,5.4471,5.4478,5.4439,5.4295,5.4223,5.4223,5.4223,5.4311,5.4489,5.4478,5.4168,5.3624,5.3486,5.3486,5.3486,5.3494,5.377,5.4417,5.446,5.4452,5.4555,5.5142,5.5513,5.5582,5.628,5.6736,5.684,5.7529,5.7935,5.8038,5.859,5.8961,5.9004,5.9123,5.9216,5.9224,5.9333,5.9233,5.9123,5.9089,5.9064,5.9012,5.8995,5.8995,5.8995,5.8995,5.8995,5.8995,5.8995,5.8995,5.8995,5.8995,5.8995,5.8995,5.8995,5.8995,5.8995,5.8995,5.8995,5.8995,5.8857,5.8866,5.89,5.8797,5.872,5.8892,5.8926,5.8823,5.8754,5.8754,5.8797,5.8909,5.8969,5.8961,5.8659,5.828,5.7935,5.784,5.7219,5.684,6.6656,6.6004,6.5803,6.5265,6.4584,6.3969,6.3615,6.346,6.2877,6.247,6.212,6.1679,6.1363,6.117,6.0241,5.9661,5.936,5.9046,5.8814,5.8736,5.8892,5.8884,5.8684,5.8505,5.8462,5.835,5.7671,5.6716,5.5685,5.5314,5.4969,5.4555,5.4486,5.4431,5.4335,5.4311,5.4263,5.4175,5.4102,5.407,5.4112,5.407,5.4151,5.4303,5.4311,5.4264,5.4107,5.3954,5.3947,5.4099,5.4107,5.4211,5.4452,5.4486,5.4486,5.4555,5.5203,5.5616,5.5754,5.6797,5.7495,5.7556,5.8176,5.8582,5.8625,5.8832,5.8995,5.8995,5.8995,5.8995,5.8995,5.8995,5.8995,5.8995,5.8995,5.8995,5.8995,5.8995,5.8995,5.8995,5.8995,5.8995,5.8995,5.8995,5.8995,5.8995,5.8995,5.8995,5.8995,5.8995,5.8995,5.8995,5.8995,5.8995,5.8995,5.8995,5.8995,5.8995,5.8926,5.8892,5.8995,5.8995,5.8892,5.8857,5.8961,5.8995,5.8969,5.8969,5.8995,5.8926,5.8547,5.8487,5.8625,5.7944,5.7591,6.6761,6.6309,6.6275,6.5844,6.5098,6.4515,6.4007,6.3686,6.3025,6.2618,6.2323,6.1883,6.1714,6.1675,6.1015,6.0504,6.0084,5.9407,5.8853,5.8534,5.8753,5.8771,5.864,5.8666,5.8762,5.8746,5.8067,5.7206,5.6401,5.6107,5.5728,5.528,5.5189,5.5066,5.4944,5.4879,5.4797,5.4714,5.4682,5.4649,5.4649,5.4649,5.4691,5.4782,5.4764,5.4639,5.4418,5.4271,5.4255,5.4375,5.4455,5.459,5.4823,5.4858,5.5004,5.5288,5.5969,5.634,5.6478,5.7556,5.8245,5.828,5.8685,5.8995,5.8995,5.8995,5.8995,5.8995,5.8995,5.8995,5.8995,5.8995,5.8995,5.8995,5.8995,5.8995,5.8995,5.8995,5.8995,5.8995,5.8995,5.8995,5.8995,5.8995,5.8995,5.8995,5.8995,5.8995,5.8995,5.8995,5.8995,5.8995,5.8995,5.8995,5.8995,5.8995,5.8995,5.8995,5.8995,5.8995,5.8995,5.8995,5.8995,5.8995,5.8995,5.8995,5.8995,5.8995,5.8995,5.8995,5.8926,5.8788,5.8763,5.8617,5.8289,6.6812,6.6779,6.6802,6.6349,6.5761,6.5547,6.4816,6.3812,6.3497,6.3047,6.256,6.2357,6.2299,6.2197,6.1598,6.1284,6.0964,6.0133,5.929,5.8616,5.861,5.8673,5.8675,5.8552,5.8648,5.8849,5.8254,5.7892,5.7642,5.7073,5.6736,5.6703,5.6415,5.6255,5.6403,5.608,5.6073,5.5945,5.5817,5.5842,5.5986,5.5816,5.5791,5.5885,5.5842,5.5374,5.4381,5.4328,5.4336,5.4282,5.4537,5.4892,5.5513,5.5624,5.5935,5.6598,5.7391,5.7797,5.7866,5.8487,5.8857,5.8892,5.8969,5.8995,5.8995,5.8995,5.8995,5.8995,5.8995,5.8995,5.8995,5.8995,5.8995,5.8995,5.8995,5.8995,5.8995,5.8995,5.8995,5.8995,5.8995,5.8995,5.8995,5.8995,5.8995,5.8995,5.8995,5.8995,5.8995,5.8995,5.8995,5.8995,5.8995,5.8995,5.8995,5.8995,5.8995,5.8995,5.8995,5.8995,5.8995,5.8995,5.8995,5.8995,5.8995,5.8995,5.8995,5.8995,5.8995,5.8995,5.8995,5.8995,5.8866,5.878,5.8858,6.6802,6.6802,6.6802,6.6667,6.6406,6.5943,6.5402,6.4884,6.3994,6.3386,6.3081,6.2627,6.2424,6.2357,6.212,6.1782,6.1308,6.0881,6.009,5.9084,5.9141,5.8852,5.8318,5.8277,5.8366,5.8457,5.8626,5.8315,5.7791,5.76,5.7314,5.6892,5.6739,5.6538,5.638,5.6235,5.6116,5.5891,5.5821,5.5795,5.5786,5.5786,5.5856,5.596,5.5865,5.5637,5.5443,5.5543,5.5121,5.4328,5.5424,5.6176,5.6383,5.6418,5.6529,5.6805,5.7495,5.79,5.7969,5.8547,5.8995,5.8995,5.8995,5.8995,5.8995,5.8995,5.8995,5.8995,5.8995,5.8995,5.8995,5.8995,5.8995,5.8995,5.8995,5.8995,5.8995,5.8995,5.8995,5.8995,5.8995,5.8995,5.8995,5.8995,5.8995,5.8995,5.8995,5.8995,5.8995,5.8995,5.8995,5.8995,5.8995,5.8995,5.8995,5.8995,5.8995,5.8995,5.8995,5.8995,5.8995,5.8995,5.8995,5.8995,5.8995,5.8995,5.8995,5.8995,5.8995,5.8995,5.8995,5.8995,5.8995,5.8995,5.8995,6.6802,6.6802,6.6802,6.6802,6.6768,6.6271,6.5943,6.5605,6.4749,6.4028,6.3487,6.3024,6.2661,6.2458,6.2424,6.2154,6.1748,6.1704,6.1018,5.9887,5.9414,5.8873,5.8128,5.8232,5.8286,5.826,5.8605,5.8539,5.8084,5.8093,5.7912,5.7584,5.7397,5.7218,5.6943,5.6856,5.6698,5.6537,5.6528,5.6519,5.6528,5.6519,5.6582,5.6661,5.6591,5.6455,5.6366,5.6702,5.6304,5.5345,5.6084,5.6791,5.7133,5.7211,5.7314,5.7659,5.8012,5.8314,5.8357,5.8763,5.8995,5.8995,5.8995,5.8995,5.8995,5.8995,5.8995,5.8995,5.8995,5.8995,5.8995,5.8995,5.8995,5.8995,5.8995,5.8995,5.8995,5.8995,5.8995,5.8995,5.8995,5.8995,5.8995,5.8995,5.8995,5.8995,5.8995,5.8995,5.8995,5.8995,5.8995,5.8995,5.8995,5.8995,5.8995,5.8995,5.8995,5.8995,5.8995,5.8995,5.8995,5.8995,5.8995,5.8995,5.8995,5.8995,5.8995,5.8995,5.8995,5.8995,5.8995,5.8995,5.8995,5.8995,5.8995,6.6836,6.6802,6.6802,6.6802,6.6802,6.6734,6.6406,6.5842,6.5605,6.4816,6.3825,6.3477,6.3057,6.2526,6.2424,6.2357,6.2391,6.2289,6.1883,6.0917,5.9992,5.9023,5.8423,5.8389,5.833,5.8189,5.8419,5.8562,5.8538,5.8502,5.8587,5.8547,5.8242,5.8182,5.7985,5.7975,5.7776,5.7663,5.7764,5.7755,5.7755,5.7789,5.7798,5.7782,5.773,5.746,5.7081,5.7538,5.7432,5.6362,5.6525,5.7096,5.7721,5.7944,5.8211,5.872,5.8944,5.8918,5.8961,5.8961,5.8995,5.8995,5.8995,5.8995,5.8995,5.8995,5.8995,5.8995,5.8995,5.8995,5.8995,5.8995,5.8995,5.8995,5.8995,5.8995,5.8995,5.8995,5.8995,5.8995,5.8995,5.8995,5.8995,5.8995,5.8995,5.8995,5.8995,5.8995,5.8995,5.8995,5.8995,5.8995,5.8995,5.8995,5.8995,5.8995,5.8995,5.8995,5.8995,5.8995,5.8995,5.8995,5.8995,5.8995,5.8995,5.8995,5.8995,5.8995,5.8995,5.8995,5.8995,5.8995,5.8995,5.8995,5.8995,6.7275,6.6836,6.6802,6.6802,6.6802,6.6802,6.67,6.643,6.5943,6.5233,6.4343,6.3714,6.3149,6.2448,6.2424,6.2424,6.2424,6.2424,6.2009,6.1322,6.095,5.9954,5.893,5.8425,5.8196,5.8079,5.8312,5.8455,5.8384,5.8446,5.8508,5.8569,5.8455,5.833,5.8189,5.8142,5.8027,5.7918,5.79,5.79,5.79,5.79,5.79,5.79,5.79,5.7789,5.762,5.7844,5.8015,5.7873,5.7467,5.7612,5.8238,5.8436,5.8608,5.878,5.8849,5.8901,5.897,5.8995,5.8995,5.8995,5.8995,5.8995,5.8995,5.8995,5.8995,5.8995,5.8995,5.8995,5.8995,5.9038,5.903,5.8995,5.903,5.903,5.8995,5.8995,5.8995,5.8995,5.8995,5.8995,5.8995,5.8995,5.8995,5.8995,5.8995,5.8995,5.8995,5.8995,5.8995,5.8995,5.8995,5.8995,5.8995,5.8995,5.8995,5.8995,5.8995,5.8995,5.8995,5.8995,5.8995,5.8995,5.8995,5.8995,5.8995,5.8995,5.8995,5.8995,5.8995,5.8995,5.8995,5.8995,5.8987,6.7658,6.7242,6.6937,6.6802,6.6802,6.6802,6.6802,6.6734,6.6328,6.573,6.5087,6.4647,6.3825,6.2922,6.2854,6.2695,6.2458,6.2424,6.2154,6.1806,6.1424,6.0409,5.9229,5.8619,5.8329,5.7961,5.8126,5.8198,5.8189,5.8225,5.826,5.8314,5.8303,5.8171,5.8097,5.8063,5.8052,5.7909,5.79,5.79,5.79,5.79,5.79,5.79,5.79,5.79,5.79,5.79,5.8045,5.8228,5.8063,5.8072,5.8448,5.8596,5.8657,5.8666,5.8666,5.8745,5.8892,5.8935,5.8935,5.8978,5.8995,5.8995,5.8995,5.8995,5.8995,5.8995,5.8995,5.8995,5.9038,5.928,5.9314,5.9107,5.928,5.9357,5.9073,5.8995,5.8995,5.8995,5.8995,5.8995,5.8995,5.8995,5.8995,5.8995,5.8995,5.8995,5.8995,5.8995,5.8995,5.8995,5.8995,5.8995,5.8995,5.8995,5.8995,5.8995,5.8995,5.8995,5.8995,5.8995,5.8995,5.8995,5.8995,5.8995,5.8995,5.8995,5.8995,5.8995,5.8995,5.8995,5.8995,5.8961,5.8961,6.8109,6.7963,6.7208,6.6903,6.6937,6.6825,6.6802,6.6802,6.6734,6.6305,6.574,6.5672,6.4783,6.3612,6.3419,6.3125,6.256,6.2458,6.2391,6.2154,6.1704,6.0791,5.9597,5.9075,5.8543,5.8001,5.79,5.8,5.8063,5.7981,5.8009,5.8167,5.8092,5.7986,5.8062,5.8112,5.8127,5.8161,5.833,5.8398,5.833,5.8263,5.8161,5.8161,5.8161,5.8026,5.7958,5.8001,5.8117,5.8187,5.8171,5.8235,5.8428,5.8446,5.8472,5.8472,5.8481,5.8552,5.8727,5.8788,5.8849,5.8927,5.897,5.8987,5.897,5.897,5.8987,5.8944,5.8987,5.9073,5.9306,5.984,5.9909,5.953,5.9806,5.9737,5.9211,5.8995,5.8995,5.8995,5.8995,5.8995,5.8995,5.8995,5.8995,5.8995,5.8995,5.8995,5.8995,5.8995,5.8995,5.8995,5.8995,5.8995,5.8995,5.8995,5.8995,5.8995,5.8995,5.8995,5.8995,5.8995,5.8995,5.8995,5.8995,5.8995,5.8995,5.8995,5.8995,5.8995,5.8995,5.8995,5.8987,5.8927,5.8901,6.936,6.8774,6.7986,6.7658,6.758,6.7039,6.6802,6.6802,6.6802,6.6406,6.5842,6.5706,6.5199,6.4333,6.3859,6.3419,6.3193,6.2753,6.2424,6.2347,6.2289,6.167,6.0612,5.9689,5.865,5.8094,5.79,5.7927,5.7936,5.8004,5.7943,5.8038,5.8469,5.849,5.8127,5.8906,5.9302,5.8998,5.9268,5.9471,5.9336,5.8921,5.866,5.866,5.866,5.8389,5.8118,5.8457,5.8475,5.8142,5.8115,5.8237,5.8133,5.818,5.8234,5.8277,5.8286,5.8366,5.8534,5.8675,5.8797,5.8832,5.8935,5.8944,5.8858,5.8961,5.8953,5.8901,5.8953,5.9228,5.9806,6.0599,6.0599,6.022,6.0082,5.9944,5.9211,5.8995,5.8995,5.8995,5.8995,5.8995,5.8995,5.8995,5.8995,5.8995,5.8995,5.8995,5.8995,5.8995,5.8995,5.8995,5.8995,5.8995,5.8995,5.8995,5.8995,5.8995,5.8995,5.8995,5.8995,5.8995,5.8995,5.8995,5.8995,5.8995,5.8995,5.8995,5.8995,5.8995,5.8995,5.8978,5.8952,5.8884,5.878,6.9766,6.9045,6.8233,6.7692,6.7343,6.6971,6.6802,6.6802,6.6802,6.6599,6.6271,6.6193,6.5797,6.5131,6.4681,6.4377,6.3893,6.325,6.2719,6.2482,6.2357,6.1985,6.1366,6.0477,5.9573,5.8558,5.8026,5.7934,5.7967,5.822,5.8447,5.8423,5.8853,5.8786,5.849,5.9268,5.9293,5.9191,5.9699,6.008,5.9979,5.9394,5.8752,5.8558,5.849,5.8254,5.7992,5.8616,5.8524,5.8213,5.832,5.8348,5.7995,5.7991,5.8045,5.8079,5.8079,5.8178,5.8348,5.8455,5.8552,5.8648,5.8814,5.8788,5.8745,5.8814,5.8875,5.8823,5.8935,5.9254,6.0142,6.1298,6.1367,6.0909,6.0703,6.0358,5.9694,5.9245,5.8995,5.8995,5.8995,5.8995,5.8995,5.8995,5.8995,5.8995,5.8987,5.8987,5.8995,5.8995,5.8995,5.8995,5.8995,5.8995,5.8995,5.8995,5.8995,5.8995,5.8995,5.8995,5.8995,5.8995,5.8995,5.8995,5.8987,5.8995,5.8995,5.8995,5.8987,5.8995,5.8978,5.8952,5.8927,5.884,5.8649,6.9992,6.9383,6.8571,6.7827,6.7174,6.7072,6.6937,6.6802,6.6802,6.6768,6.6802,6.6802,6.6373,6.5909,6.5639,6.5233,6.4546,6.3792,6.3125,6.2719,6.2458,6.212,6.1569,6.1163,6.0554,5.9327,5.8549,5.8186,5.8287,5.865,5.8945,5.9115,5.9394,5.9394,5.9259,5.9496,5.9766,5.9733,6.0317,6.0655,6.052,5.9911,5.9191,5.8389,5.8254,5.8161,5.8161,5.866,5.8887,5.8186,5.8684,5.8592,5.8254,5.806,5.806,5.8137,5.8324,5.8456,5.8482,5.8461,5.8526,5.8523,5.8631,5.8631,5.8552,5.8613,5.8675,5.8864,5.901,5.9561,6.0322,6.17,6.2106,6.1659,6.1392,6.0944,6.0254,5.9495,5.9064,5.8995,5.8995,5.8995,5.8995,5.8995,5.8995,5.8995,5.8978,5.897,5.8961,5.8918,5.8875,5.884,5.8797,5.8866,5.8884,5.897,5.897,5.8927,5.8944,5.8909,5.8918,5.8909,5.8901,5.897,5.8978,5.8961,5.8935,5.8944,5.8944,5.8952,5.897,5.8909,5.8832,5.8745,5.8535,7.1064,7.0861,7.0139,6.9394,6.8662,6.7996,6.7309,6.6869,6.6836,6.6802,6.6802,6.6802,6.6734,6.6474,6.5933,6.53,6.4671,6.4062,6.3521,6.3159,6.2763,6.2323,6.2086,6.1627,6.1163,6.0646,5.9631,5.8921,5.8819,5.8989,5.9496,5.9936,6.0477,6.0511,6.0419,6.0994,6.1129,6.0791,6.1366,6.1748,6.1612,6.1028,6.0003,5.8896,5.8684,5.8423,5.833,5.9142,5.9607,5.8955,5.8945,5.8955,5.8887,5.8853,5.8829,5.8727,5.9201,5.9263,5.8776,5.8954,5.8731,5.8465,5.8505,5.8446,5.8366,5.8462,5.8609,5.8803,5.9574,6.0496,6.0866,6.2199,6.2676,6.232,6.1616,6.0977,6.0219,5.9478,5.8978,5.8927,5.8952,5.8995,5.8995,5.8987,5.897,5.8935,5.8918,5.8866,5.8823,5.8736,5.8631,5.8605,5.8569,5.8675,5.8779,5.8866,5.8927,5.8866,5.8823,5.8736,5.8745,5.8788,5.8823,5.8866,5.8875,5.884,5.8823,5.8814,5.8814,5.8814,5.8814,5.884,5.8684,5.8561,5.8378,7.1064,7.0669,6.9925,6.9417,6.8944,6.7827,6.7377,6.7309,6.6971,6.6802,6.6802,6.6802,6.6802,6.67,6.6474,6.5865,6.5222,6.485,6.4231,6.3632,6.3115,6.2719,6.2458,6.1975,6.1627,6.1221,6.0511,5.9902,5.9665,6.0071,6.0308,6.068,6.1153,6.1095,6.0926,6.1298,6.1637,6.1511,6.2018,6.2424,6.2357,6.167,6.0511,5.9453,5.8955,5.8616,5.833,5.9312,5.9708,5.9293,5.9766,5.9877,5.98,5.98,5.9631,5.893,5.9505,5.9597,5.8795,5.8786,5.8788,5.8248,5.8547,5.8547,5.8407,5.852,5.8821,5.9084,5.9798,6.09,6.1396,6.2566,6.2803,6.2272,6.1564,6.0817,5.9999,5.9226,5.8891,5.8797,5.8892,5.8944,5.8995,5.8978,5.8952,5.8918,5.8832,5.8736,5.8648,5.8543,5.8419,5.8446,5.8446,5.8552,5.8657,5.8736,5.878,5.8745,5.8666,5.8578,5.8552,5.8596,5.864,5.8684,5.8675,5.8718,5.8682,5.8638,5.8639,5.864,5.8631,5.8596,5.8481,5.8332,5.82,7.0928,7.0364,6.9789,6.9451,6.9113,6.7861,6.7523,6.7692,6.7106,6.6802,6.6802,6.6802,6.6802,6.6802,6.6734,6.643,6.5909,6.5774,6.4996,6.4197,6.3589,6.3125,6.2753,6.2391,6.2076,6.1704,6.1501,6.1095,6.0544,6.0815,6.1255,6.1501,6.1535,6.1535,6.1569,6.167,6.1535,6.1714,6.2052,6.2391,6.2221,6.1637,6.0781,5.9487,5.9182,5.8709,5.8423,5.9404,5.9766,5.98,6.0341,6.096,6.0588,6.096,6.0351,5.8998,5.9785,5.9573,5.8998,5.8906,5.8958,5.8105,5.8739,5.8678,5.865,5.8942,5.9482,5.9621,6.0273,6.1059,6.167,6.2588,6.2762,6.2283,6.1473,6.0663,5.9956,5.927,5.8681,5.8666,5.8789,5.8858,5.8875,5.8823,5.8797,5.8779,5.8692,5.8534,5.8446,5.8348,5.8277,5.833,5.8384,5.8464,5.8534,5.8552,5.8587,5.8552,5.8472,5.8393,5.8384,5.8401,5.8437,5.8412,5.8525,5.8508,5.8487,5.8434,5.8453,5.8446,5.8437,5.841,5.8339,5.8198,5.8072,7.1267,7.1165,7.103,7.0669,6.9969,6.9045,6.8402,6.7861,6.7151,6.6802,6.6802,6.6802,6.6802,6.6802,6.6802,6.6734,6.6497,6.6079,6.5615,6.5053,6.4197,6.3589,6.324,6.2651,6.2424,6.2154,6.2188,6.1849,6.1366,6.1332,6.167,6.2042,6.2144,6.2221,6.212,6.2076,6.2289,6.2255,6.2357,6.2424,6.2289,6.1704,6.1231,6.0646,5.9859,5.9081,5.9022,5.9766,6.008,6.0148,6.0825,6.1231,6.1187,6.1221,6.0815,6.0588,6.097,6.1443,5.9979,5.9844,5.937,5.8524,5.8807,5.8939,5.9186,5.949,5.9943,6.005,6.0741,6.1311,6.175,6.2352,6.2667,6.2266,6.1434,6.0847,6.0212,5.8987,5.8425,5.8393,5.8482,5.8648,5.8727,5.8657,5.8587,5.8578,5.8543,5.8384,5.8259,5.8135,5.8081,5.8126,5.8214,5.8269,5.8366,5.8393,5.8393,5.8366,5.8294,5.8223,5.8205,5.8196,5.8117,5.8144,5.8243,5.833,5.825,5.8257,5.825,5.825,5.825,5.825,5.8207,5.8081,5.7954,7.1289,7.1222,7.0387,7.0364,7.0534,6.8696,6.8132,6.8301,6.7309,6.6802,6.6802,6.6802,6.6802,6.6802,6.6802,6.6802,6.6734,6.644,6.6079,6.5784,6.4986,6.4275,6.3555,6.3149,6.2888,6.2492,6.2391,6.2255,6.1951,6.1907,6.2144,6.2323,6.2424,6.2357,6.2424,6.2424,6.2391,6.2391,6.2424,6.2424,6.2323,6.2076,6.1704,6.1342,6.0622,6.0105,5.9902,6.0341,6.0757,6.0926,6.1501,6.1917,6.1907,6.1907,6.1714,6.1569,6.1951,6.1409,5.9877,6.0385,5.981,5.9302,5.9505,6.0317,6.0274,6.0182,6.0385,6.0757,6.1061,6.1491,6.197,6.2455,6.2305,6.1954,6.1306,6.0622,5.9948,5.8892,5.8108,5.8169,5.8205,5.8382,5.8515,5.849,5.8428,5.8401,5.8357,5.8207,5.809,5.7991,5.7954,5.7945,5.8,5.8063,5.816,5.8205,5.8223,5.8196,5.809,5.8018,5.8006,5.7945,5.7954,5.7954,5.8027,5.8045,5.8061,5.807,5.8054,5.8036,5.8009,5.8045,5.8063,5.8018,5.7918,7.1199,7.0928,6.9823,7.0026,7.077,6.8155,6.7726,6.8538,6.7377,6.6802,6.6802,6.6802,6.6802,6.6802,6.6802,6.6802,6.6802,6.6802,6.6464,6.6102,6.5672,6.5063,6.441,6.3937,6.3386,6.2651,6.2787,6.2584,6.2424,6.2357,6.2357,6.2424,6.2424,6.2424,6.2424,6.2424,6.2424,6.2424,6.2424,6.2424,6.2391,6.2391,6.2042,6.1704,6.1366,6.1028,6.0622,6.0883,6.1264,6.1366,6.1917,6.2289,6.2323,6.2289,6.2289,6.2188,6.2391,6.168,6.0689,6.0544,6.0409,6.0206,6.0385,6.1163,6.1434,6.0994,6.0834,6.1535,6.1603,6.1951,6.2285,6.2537,6.2358,6.184,6.1181,6.0359,5.9654,5.9081,5.8591,5.8499,5.8492,5.8221,5.8314,5.832,5.8277,5.8232,5.816,5.8054,5.7981,5.79,5.79,5.79,5.7918,5.7963,5.7991,5.8027,5.8036,5.8027,5.7954,5.7909,5.7909,5.79,5.7918,5.7909,5.79,5.7918,5.7963,5.7927,5.79,5.7927,5.7954,5.7927,5.7918,5.79,5.79,7.0906,7.0274,7.0139,7.0139,7.0172,6.8515,6.785,6.803,6.7174,6.6802,6.6802,6.6802,6.6802,6.6802,6.6802,6.6802,6.6802,6.6802,6.67,6.643,6.6034,6.5672,6.5165,6.4681,6.413,6.3521,6.3419,6.3057,6.2618,6.2627,6.2526,6.2424,6.2424,6.2424,6.2424,6.2424,6.2424,6.2424,6.2424,6.2424,6.2424,6.2424,6.2323,6.2188,6.1704,6.1264,6.1221,6.1366,6.1467,6.1477,6.2052,6.2391,6.2424,6.2424,6.2424,6.2424,6.2424,6.1849,6.1366,6.1129,6.0825,6.0588,6.0825,6.167,6.2018,6.2255,6.2289,6.2154,6.212,6.2221,6.2357,6.241,6.2318,6.2024,6.1491,6.1032,6.0438,5.9998,5.95,5.9099,5.8804,5.8629,5.8275,5.8334,5.8228,5.8149,5.8036,5.7963,5.7954,5.79,5.79,5.79,5.79,5.7909,5.7909,5.7936,5.7963,5.7963,5.7927,5.79,5.79,5.79,5.79,5.79,5.79,5.79,5.79,5.79,5.79,5.79,5.79,5.79,5.79,5.79,5.79,7.0543,7.0793,6.9925,6.9519,6.9428,6.7861,6.7489,6.7726,6.714,6.6802,6.6802,6.6802,6.6802,6.6802,6.6802,6.6802,6.6802,6.6802,6.6802,6.6768,6.6508,6.6102,6.5774,6.5368,6.4884,6.4299,6.413,6.3792,6.3149,6.3091,6.2719,6.256,6.2526,6.2424,6.2424,6.2424,6.2424,6.2424,6.2424,6.2424,6.2424,6.2424,6.2424,6.2357,6.2255,6.1985,6.1975,6.1975,6.1985,6.2052,6.2255,6.2357,6.2424,6.2424,6.2424,6.2424,6.2424,6.2221,6.2052,6.1951,6.1782,6.1714,6.1849,6.2052,6.2323,6.2391,6.2391,6.2391,6.2424,6.2424,6.2424,6.2391,6.2367,6.2221,6.1975,6.1603,6.1197,6.0723,6.0182,5.9631,5.9361,5.921,5.877,5.8383,5.8225,5.8108,5.7995,5.79,5.79,5.79,5.79,5.79,5.79,5.79,5.79,5.79,5.79,5.79,5.79,5.79,5.79,5.79,5.79,5.79,5.79,5.79,5.79,5.79,5.79,5.79,5.79,5.79,5.79,5.79,5.79,6.941,6.9619,6.8931,6.8816,6.8888,6.7444,6.7072,6.7411,6.7028,6.6802,6.6802,6.6802,6.6802,6.6802,6.6802,6.6802,6.6802,6.6802,6.6802,6.6768,6.67,6.6474,6.617,6.5909,6.5662,6.5087,6.4884,6.4546,6.3859,6.3825,6.3599,6.3226,6.2821,6.2719,6.2424,6.2424,6.2424,6.2424,6.2424,6.2424,6.2424,6.2424,6.2424,6.2424,6.2357,6.2323,6.2323,6.2289,6.2323,6.2323,6.2391,6.2391,6.2424,6.2424,6.2424,6.2424,6.2424,6.2424,6.2424,6.2391,6.2289,6.1839,6.2188,6.2188,6.2154,6.2255,6.2424,6.2424,6.2424,6.2424,6.2424,6.2594,6.255,6.2448,6.2618,6.2313,6.1839,6.1366,6.0714,6.0129,6.0037,6.0047,5.9539,5.9066,5.8543,5.8299,5.7943,5.7891,5.79,5.79,5.79,5.79,5.79,5.79,5.79,5.79,5.79,5.79,5.79,5.79,5.79,5.79,5.79,5.79,5.79,5.79,5.79,5.79,5.79,5.79,5.79,5.79,5.79,5.79,5.79,6.7381,6.6201,6.7186,6.8115,6.8723,6.7444,6.6836,6.6937,6.6836,6.6802,6.6802,6.6802,6.6802,6.6802,6.6802,6.6802,6.6802,6.6802,6.6802,6.6802,6.6802,6.6734,6.67,6.6531,6.6237,6.5808,6.5605,6.529,6.4569,6.4569,6.4478,6.414,6.3565,6.3014,6.2492,6.2424,6.2424,6.2424,6.2492,6.2526,6.256,6.2492,6.2424,6.2424,6.2424,6.2424,6.2424,6.2424,6.2424,6.2424,6.2424,6.2424,6.2424,6.2424,6.2424,6.2424,6.2424,6.2424,6.2424,6.2424,6.2144,6.1806,6.2178,6.2178,6.1772,6.1941,6.2424,6.2424,6.2424,6.2424,6.2618,6.2922,6.2821,6.2719,6.2821,6.2821,6.2313,6.2245,6.1627,6.0984,6.1028,6.1028,6.0452,5.9877,5.9099,5.8601,5.8094,5.7891,5.7924,5.79,5.79,5.79,5.79,5.79,5.79,5.79,5.79,5.79,5.79,5.79,5.79,5.79,5.79,5.79,5.79,5.79,5.79,5.79,5.79,5.79,5.79,5.79,5.79,5.79,5.79,6.6534,6.6704,6.6754,6.6965,6.7246,6.6952,6.6802,6.6802,6.6802,6.6802,6.6802,6.6802,6.6802,6.6802,6.6802,6.6802,6.6802,6.6802,6.6802,6.6802,6.6802,6.6802,6.6802,6.6768,6.6633,6.6497,6.6362,6.6,6.5334,6.5324,6.4952,6.458,6.4038,6.3125,6.2753,6.2787,6.3149,6.3149,6.3159,6.3125,6.3091,6.2719,6.2424,6.2424,6.2424,6.2424,6.2424,6.2424,6.2424,6.2424,6.2424,6.2424,6.2424,6.2424,6.2424,6.2424,6.2424,6.2424,6.2424,6.2391,6.2323,6.2178,6.2154,6.2255,6.2086,6.2212,6.2391,6.2424,6.2424,6.2424,6.2526,6.3091,6.3115,6.2753,6.2753,6.2821,6.2651,6.2912,6.2743,6.1999,6.1772,6.1637,6.1231,6.0655,5.9911,5.9201,5.8693,5.8152,5.7992,5.7934,5.79,5.79,5.79,5.79,5.79,5.79,5.79,5.79,5.79,5.79,5.79,5.79,5.79,5.79,5.79,5.79,5.79,5.79,5.79,5.79,5.79,5.79,5.79,5.79,5.79,6.5047,6.5254,6.5302,6.5185,6.5215,6.6263,6.6802,6.6802,6.6802,6.6802,6.6802,6.6802,6.6802,6.6802,6.6802,6.6802,6.6802,6.6802,6.6802,6.6802,6.6802,6.6802,6.6802,6.6802,6.6768,6.6802,6.6768,6.6464,6.6112,6.6079,6.5706,6.5087,6.4478,6.4038,6.3565,6.3487,6.3443,6.3521,6.3599,6.368,6.3453,6.3057,6.2685,6.2492,6.2424,6.2424,6.2424,6.2424,6.2424,6.2424,6.2424,6.2424,6.2424,6.2424,6.2424,6.2424,6.2424,6.2424,6.2424,6.2424,6.2357,6.2357,6.2424,6.2255,6.2188,6.2221,6.2357,6.2424,6.2424,6.2391,6.2492,6.3091,6.3081,6.2685,6.2753,6.2811,6.2415,6.2642,6.298,6.2347,6.2144,6.2009,6.1873,6.1366,6.0723,6.0047,5.9361,5.8727,5.8094,5.7958,5.79,5.79,5.79,5.79,5.79,5.79,5.79,5.79,5.79,5.79,5.79,5.79,5.79,5.79,5.79,5.79,5.79,5.79,5.79,5.79,5.79,5.79,5.79,5.79,5.79,6.2993,6.2029,6.2869,6.2995,6.2934,6.5371,6.6535,6.6654,6.6696,6.6696,6.6707,6.6717,6.6802,6.6802,6.6802,6.6802,6.6802,6.6802,6.6802,6.6802,6.6802,6.6802,6.6802,6.6802,6.6802,6.6802,6.6802,6.6768,6.6724,6.6346,6.5962,6.5769,6.5229,6.4818,6.4387,6.413,6.3961,6.413,6.4377,6.4367,6.4062,6.3521,6.3081,6.2753,6.2526,6.2424,6.2424,6.2424,6.2424,6.2424,6.2424,6.2424,6.2424,6.2424,6.2424,6.2424,6.2424,6.2424,6.2424,6.2424,6.2424,6.2424,6.2424,6.1975,6.1873,6.2154,6.2323,6.2424,6.2424,6.2323,6.24,6.2618,6.2844,6.2777,6.2835,6.2463,6.183,6.1965,6.2448,6.2424,6.2357,6.2289,6.2221,6.1815,6.1095,6.025,5.9496,5.8829,5.8263,5.7967,5.79,5.79,5.79,5.79,5.79,5.79,5.79,5.79,5.79,5.79,5.79,5.79,5.79,5.79,5.79,5.79,5.79,5.79,5.79,5.79,5.79,5.79,5.79,5.79,5.79,6.2135,6.1853,6.238,6.2484,6.2541,6.3996,6.4664,6.4732,6.5371,6.5724,6.5767,6.6493,6.6791,6.6802,6.6802,6.6802,6.6802,6.6802,6.6802,6.6802,6.6802,6.6802,6.6802,6.6802,6.6802,6.6802,6.6802,6.6739,6.6546,6.6213,6.6169,6.6327,6.5194,6.4964,6.5099,6.5134,6.5012,6.5053,6.5266,6.5053,6.4613,6.4028,6.3521,6.3057,6.2594,6.2458,6.2424,6.2424,6.2424,6.2424,6.2424,6.2424,6.2424,6.2424,6.2424,6.2424,6.2424,6.2424,6.2424,6.2424,6.2424,6.2424,6.2424,6.2357,6.2221,6.2221,6.2424,6.2424,6.2255,6.212,6.212,6.2279,6.2067,6.1762,6.21,6.2439,6.1897,6.2067,6.2516,6.2458,6.2424,6.2391,6.2357,6.1951,6.1231,6.0351,5.9607,5.8973,5.8398,5.8094,5.79,5.79,5.79,5.79,5.79,5.79,5.79,5.79,5.79,5.79,5.79,5.79,5.79,5.79,5.79,5.79,5.79,5.79,5.79,5.79,5.79,5.79,5.79,5.79,5.79,6.1405,6.1269,6.1458,6.1614,6.1816,6.2349,6.2588,6.2916,6.4492,6.5293,6.5415,6.6375,6.6802,6.6802,6.6802,6.6802,6.6802,6.6802,6.6802,6.6802,6.6802,6.6802,6.6802,6.6802,6.6802,6.6802,6.6717,6.6546,6.6127,6.5337,6.5081,6.5293,6.434,6.4785,6.5198,6.5411,6.571,6.5922,6.6068,6.5764,6.5121,6.4377,6.3825,6.3115,6.2594,6.2458,6.2424,6.2424,6.2424,6.2424,6.2424,6.2424,6.2424,6.2424,6.2424,6.2424,6.2424,6.2424,6.2424,6.2424,6.2424,6.2424,6.2424,6.2391,6.2391,6.2391,6.2424,6.2391,6.2076,6.1873,6.1907,6.1839,6.1095,6.0385,6.1356,6.2371,6.2472,6.2506,6.2516,6.2424,6.2424,6.2424,6.2221,6.1849,6.1467,6.0825,6.0114,5.937,5.8703,5.8161,5.7958,5.79,5.79,5.79,5.79,5.79,5.79,5.79,5.79,5.79,5.79,5.79,5.79,5.79,5.79,5.79,5.79,5.79,5.79,5.79,5.79,5.79,5.79,5.79,5.79,6.0688,6.0394,6.0364,6.0573,6.0716,6.0832,6.0845,6.1059,6.3668,6.5058,6.5248,6.6084,6.6418,6.6375,6.6235,6.6343,6.6375,6.644,6.6588,6.676,6.6802,6.6802,6.6802,6.6802,6.6802,6.6802,6.6686,6.6397,6.5271,6.4401,6.3773,6.3773,6.365,6.4042,6.4838,6.5282,6.5533,6.5784,6.6047,6.5956,6.5087,6.4444,6.3903,6.2864,6.2492,6.2424,6.2424,6.2424,6.2424,6.2424,6.2424,6.2424,6.2424,6.2424,6.2424,6.2424,6.2424,6.2424,6.2424,6.2424,6.2424,6.2424,6.2424,6.2424,6.2424,6.2424,6.2424,6.2289,6.1975,6.14,6.1298,6.1163,6.0588,6.0419,6.0984,6.1661,6.1864,6.1941,6.1907,6.1815,6.1612,6.1646,6.1612,6.1163,6.0825,6.0723,6.0274,5.9471,5.8896,5.8229,5.8026,5.79,5.79,5.79,5.79,5.79,5.79,5.79,5.79,5.79,5.79,5.79,5.79,5.79,5.79,5.79,5.79,5.79,5.79,5.79,5.79,5.79,5.79,5.79,5.79,6.0177,6.0078,6.0078,6.0131,6.0184,6.0184,6.0197,6.0342,6.1928,6.33,6.41,6.4481,6.498,6.5514,6.5024,6.5058,6.5592,6.5899,6.617,6.644,6.6633,6.645,6.6675,6.6429,6.6654,6.6802,6.6654,6.603,6.4834,6.3691,6.3012,6.3549,6.3168,6.3156,6.4061,6.4598,6.5183,6.512,6.5583,6.5733,6.5189,6.4231,6.3453,6.3024,6.2821,6.2458,6.2424,6.2424,6.2424,6.2424,6.2424,6.2424,6.2424,6.2424,6.2424,6.2424,6.2424,6.2424,6.2424,6.2424,6.2424,6.2424,6.2424,6.2424,6.2424,6.2424,6.2357,6.2154,6.1714,6.1071,6.0588,6.0419,6.0274,6.0409,6.0578,6.0926,6.1231,6.1264,6.1274,6.1061,6.0825,6.0757,6.0791,6.0588,6.0216,5.9877,5.953,5.8989,5.8558,5.8026,5.7992,5.79,5.79,5.79,5.79,5.79,5.79,5.79,5.79,5.79,5.79,5.79,5.79,5.79,5.79,5.79,5.79,5.79,5.79,5.79,5.79,5.79,5.79,5.79,5.79,5.968,5.9787,5.9933,5.9986,5.9986,5.9986,5.9986,6.0131,6.0763,6.1753,6.2988,6.3549,6.4077,6.4504,6.3961,6.3937,6.4664,6.5159,6.5181,6.5492,6.5943,6.5669,6.5702,6.568,6.5778,6.5921,6.5504,6.4833,6.3972,6.268,6.1972,6.2411,6.1947,6.2057,6.288,6.3796,6.4318,6.3846,6.4669,6.4886,6.4789,6.394,6.325,6.299,6.2685,6.2424,6.2424,6.2424,6.2424,6.2424,6.2424,6.2424,6.2424,6.2424,6.2424,6.2424,6.2424,6.2424,6.2424,6.2424,6.2424,6.2424,6.2797,6.2922,6.2526,6.256,6.2651,6.2381,6.1163,6.0419,6.0182,5.9979,5.9665,5.9631,6.0071,6.0511,6.0622,6.0631,6.0622,6.052,6.0385,6.0385,6.0385,6.0385,6.0047,5.9911,5.9428,5.8979,5.849,5.7958,5.7934,5.79,5.79,5.79,5.79,5.79,5.79,5.79,5.79,5.79,5.79,5.79,5.79,5.79,5.79,5.79,5.79,5.79,5.79,5.79,5.79,5.79,5.79,5.79,5.79,5.9247,5.9489,5.976,5.9897,5.9897,5.9897,5.9853,5.9866,5.9946,6.0516,6.1514,6.2661,6.3156,6.3395,6.3288,6.3466,6.3726,6.4112,6.4124,6.4389,6.4833,6.4765,6.4492,6.4239,6.4934,6.4855,6.4297,6.3502,6.2632,6.1576,6.0995,6.0832,6.0864,6.0985,6.1603,6.2432,6.3135,6.2846,6.3159,6.3505,6.3424,6.3302,6.2946,6.2627,6.2424,6.2424,6.2424,6.2424,6.2424,6.2424,6.2424,6.2424,6.2424,6.2424,6.2424,6.2424,6.2424,6.2424,6.2424,6.2424,6.2424,6.256,6.3115,6.3125,6.2695,6.2661,6.2753,6.2042,6.0825,6.0114,5.9877,5.937,5.9056,5.9081,5.9631,6.0003,5.9979,5.9945,5.9911,5.9844,5.9742,5.9742,5.9776,5.981,5.981,5.9742,5.9539,5.9158,5.8718,5.8229,5.79,5.79,5.79,5.79,5.79,5.79,5.79,5.79,5.79,5.79,5.79,5.79,5.79,5.79,5.79,5.79,5.79,5.79,5.79,5.79,5.79,5.79,5.79,5.79,5.79,5.9113,5.918,5.9247,5.9261,5.9274,5.9261,5.9261,5.9331,5.9533,5.9676,5.9965,6.0451,6.1246,6.2467,6.1639,6.174,6.257,6.3032,6.3538,6.3867,6.3926,6.3879,6.3856,6.3844,6.4901,6.4447,6.3443,6.2595,6.1947,6.1213,6.0794,6.0794,6.0794,6.0838,6.0914,6.1549,6.1746,6.1443,6.1446,6.1759,6.1953,6.2078,6.251,6.2424,6.2424,6.2424,6.2424,6.2424,6.2424,6.2424,6.2424,6.2424,6.2424,6.2424,6.2424,6.2424,6.2424,6.2424,6.2424,6.2424,6.2424,6.2424,6.283,6.2797,6.256,6.2594,6.2347,6.167,6.0689,6.0139,5.9708,5.877,5.8287,5.8853,5.9428,5.9361,5.9336,5.9201,5.9066,5.8795,5.8567,5.8567,5.8601,5.8727,5.8964,5.893,5.8998,5.865,5.8346,5.8094,5.7881,5.7863,5.7854,5.79,5.79,5.79,5.79,5.79,5.79,5.79,5.79,5.79,5.79,5.79,5.79,5.79,5.79,5.79,5.79,5.79,5.79,5.79,5.79,5.79,5.79]},{"header":{"parameterUnit":"m.s-1","parameterCategory":1,"la1":31.0,"la2":29.5877,"lo1":-88.7671,"lo2":-86.6584,"dy":0.0162,"dx":0.0185,"nx":115,"ny":88,"refTime":"2024-09-02T18:00:00:Z","depth":0,"parameterNumber":3,"parameterNumberName":"V-component_of_WINDS"},"data":[0.0,0.0,0.0,0.0,0.0,0.0,0.0,0.0,0.0,0.0,0.0,0.0,0.0,0.0,0.0,0.0,0.0,0.0,0.0,0.0,0.0,0.0,0.0,0.0,0.0,0.0,0.0,0.0,0.0,0.0,0.0,0.0,0.0,0.0,0.0,0.0,0.0,0.0,0.0,0.0,0.0,0.0,0.0,0.0,0.0,0.0,0.0,0.0,0.0,0.0,0.0,0.0,0.0,0.0,0.0,0.0,0.0,0.0,0.0,0.0,0.0,0.0,0.0,0.0,0.0,0.0,0.0,0.0,0.0,0.0,0.0,0.0,0.0,0.0,0.0,0.0,0.0,0.0,0.0,0.0,0.0,0.0,0.0,0.0,0.0,0.0,0.0,0.0,0.0,0.0,0.0,0.0,0.0,0.0,0.0,0.0,0.0,0.0,0.0,0.0,0.0,0.0,0.0,0.0,0.0,0.0,0.0,0.0,0.0,0.0,0.0,0.0,0.0,0.0,0.0,0.0,0.0,0.0,0.0,0.0,0.0,0.0,0.0,0.0,0.0,0.0,0.0,0.0,0.0,0.0,0.0,0.0,0.0,0.0,0.0,0.0,0.0,0.0,0.0,0.0,0.0,0.0,0.0,0.0,0.0,0.0,0.0,0.0,0.0,0.0,0.0,0.0,0.0,0.0,0.0,0.0,0.0,0.0,0.0,0.0,0.0,0.0,0.0,0.0,0.0,0.0,0.0,0.0,0.0,0.0,0.0,0.0,0.0,0.0,0.0,0.0,0.0,0.0,0.0,0.0,0.0,0.0,0.0,0.0,0.0,0.0,0.0,0.0,0.0,0.0,0.0,0.0,0.0,0.0,0.0,0.0,0.0,0.0,0.0,0.0,0.0,0.0,0.0,0.0,0.0,0.0,0.0,0.0,0.0,0.0,0.0,0.0,0.0,0.0,0.0,0.0,0.0,0.0,0.0,0.0,0.0,0.0,0.0,0.0,0.0,0.0,0.0,0.0,0.0,0.0,0.0,0.0,0.0,0.0,0.0,0.0,0.0,0.0,0.0,0.0,0.0,0.0,0.0,0.0,0.0,0.0,0.0,0.0,0.0,0.0,0.0,0.0,0.0,0.0,0.0,0.0,0.0,0.0,0.0,0.0,0.0,0.0,0.0,0.0,0.0,0.0,0.0,0.0,0.0,0.0,0.0,0.0,0.0,0.0,0.0,0.0,0.0,0.0,0.0,0.0,0.0,0.0,0.0,0.0,0.0,0.0,0.0,0.0,0.0,0.0,0.0,0.0,0.0,0.0,0.0,0.0,0.0,0.0,0.0,0.0,0.0,0.0,0.0,0.0,0.0,0.0,0.0,0.0,0.0,0.0,0.0,0.0,0.0,0.0,0.0,0.0,0.0,0.0,0.0,0.0,0.0,0.0,0.0,0.0,0.0,0.0,0.0,0.0,0.0,0.0,0.0,0.0,0.0,0.0,0.0,0.0,0.0,0.0,0.0,0.0,0.0,0.0,0.0,0.0,0.0,0.0,0.0,0.0,0.0,0.0,0.0,0.0,0.0,0.0,0.0,0.0,0.0,0.0,0.0,0.0,0.0,0.0,0.0,0.0,0.0,0.0,0.0,0.0,0.0,0.0,0.0,0.0,0.0,0.0,0.0,0.0,0.0,0.0,0.0,0.0,0.0,0.0,0.0,0.0,0.0,0.0,0.0,0.0,0.0,0.0,0.0,0.0,0.0,0.0,0.0,0.0,0.0,0.0,0.0,0.0,0.0,0.0,0.0,0.0,0.0,0.0,0.0,0.0,0.0,0.0,0.0,0.0,0.0,0.0,0.0,0.0,0.0,0.0,0.0,0.0,0.0,0.0,0.0,0.0,0.0,0.0,0.0,0.0,0.0,0.0,0.0,0.0,0.0,0.0,0.0,0.0,0.0,0.0,0.0,0.0,0.0,0.0,0.0,0.0,0.0,0.0,0.0,0.0,0.0,0.0,0.0,0.0,0.0,0.0,0.0,0.0,0.0,0.0,0.0,0.0,0.0,0.0,0.0,0.0,0.0,0.0,0.0,0.0,0.0,0.0,0.0,0.0,0.0,0.0,0.0,0.0,0.0,0.0,0.0,0.0,0.0,0.0,0.0,0.0,0.0,0.0,0.0,0.0,0.0,0.0,0.0,0.0,0.0,0.0,0.0,0.0,0.0,0.0,0.0,0.0,0.0,0.0,0.0,0.0,0.0,0.0,0.0,0.0,0.0,0.0,0.0,0.0,0.0,0.0,0.0,0.0,0.0,0.0,0.0,0.0,0.0,0.0,0.0,0.0,0.0,0.0,0.0,0.0,0.0,0.0,0.0,0.0,0.0,0.0,0.0,0.0,0.0,0.0,0.0,0.0,0.0,0.0,0.0,0.0,0.0,0.0,0.0,0.0,0.0,0.0,0.0,0.0,0.0,0.0,0.0,0.0,0.0,0.0,0.0,0.0,0.0,0.0,0.0,0.0,0.0,0.0,0.0,0.0,0.0,0.0,0.0,0.0,0.0,0.0,0.0,0.0,0.0,0.0,0.0,0.0,0.0,0.0,0.0,0.0,0.0,0.0,0.0,0.0,0.0,0.0,0.0,0.0,0.0,0.0,0.0,0.0,0.0,0.0,0.0,0.0,0.0,0.0,0.0,0.0,0.0,0.0,0.0,0.0,0.0,0.0,0.0,0.0,0.0,0.0,0.0,0.0,0.0,0.0,0.0,0.0,0.0,0.0,0.0,0.0,0.0,0.0,0.0,0.0,0.0,0.0,0.0,0.0,0.0,0.0,0.0,0.0,0.0,0.0,0.0,0.0,0.0,0.0,0.0,0.0,0.0,0.0,0.0,0.0,0.0,0.0,0.0,0.0,0.0,0.0,0.0,0.0,0.0,0.0,0.0,0.0,0.0,0.0,0.0,0.0,0.0,0.0,0.0,0.0,0.0,0.0,0.0,0.0,0.0,0.0,0.0,0.0,0.0,0.0,0.0,0.0,0.0,0.0,0.0,0.0,0.0,0.0,0.0,0.0,0.0,0.0,0.0,0.0,0.0,0.0,0.0,0.0,0.0,0.0,0.0,0.0,0.0,0.0,0.0,0.0,0.0,0.0,0.0,0.0,0.0,0.0,0.0,0.0,0.0,0.0,0.0,0.0,0.0,0.0,0.0,0.0,0.0,0.0,0.0,0.0,0.0,0.0,0.0,0.0,0.0,0.0,0.0,0.0,0.0,0.0,0.0,0.0,0.0,0.0,0.0,0.0,0.0,0.0,0.0,0.0,0.0,0.0,0.0,0.0,0.0,0.0,0.0,0.0,0.0,0.0,0.0,0.0,0.0,0.0,0.0,0.0,0.0,0.0,0.0,0.0,0.0,0.0,0.0,0.0,0.0,0.0,0.0,0.0,0.0,0.0,0.0,0.0,0.0,0.0,0.0,0.0,0.0,0.0,0.0,0.0,0.0,0.0,0.0,0.0,0.0,0.0,0.0,0.0,0.0,0.0,0.0,0.0,0.0,0.0,0.0,0.0,0.0,0.0,0.0,0.0,0.0,0.0,0.0,0.0,0.0,0.0,0.0,0.0,0.0,0.0,0.0,0.0,0.0,0.0,0.0,0.0,0.0,0.0,0.0,0.0,0.0,0.0,0.0,0.0,0.0,0.0,0.0,0.0,0.0,0.0,0.0,0.0,0.0,0.0,0.0,0.0,0.0,0.0,0.0,0.0,0.0,0.0,0.0,0.0,0.0,0.0,0.0,0.0,0.0,0.0,0.0,0.0,0.0,0.0,0.0,0.0,0.0,0.0,0.0,0.0,0.0,0.0,0.0,0.0,0.0,0.0,0.0,0.0,0.0,0.0,0.0,0.0,0.0,0.0,0.0,0.0,0.0,0.0,0.0,0.0,0.0,0.0,0.0,0.0,0.0,0.0,0.0,0.0,0.0,0.0,0.0,0.0,0.0,0.0,0.0,0.0,0.0,0.0,0.0,0.0,0.0,0.0,0.0,0.0,0.0,0.0,0.0,0.0,0.0,0.0,0.0,0.0,0.0,0.0,0.0,0.0,0.0,0.0,0.0,0.0,0.0,0.0,0.0,0.0,0.0,0.0,0.0,0.0,0.0,0.0,0.0,0.0,0.0,0.0,0.0,0.0,0.0,0.0,0.0,0.0,0.0,0.0,0.0,0.0,0.0,0.0,0.0,0.0,0.0,0.0,0.0,0.0,0.0,0.0,0.0,0.0,0.0,0.0,0.0,0.0,0.0,0.0,0.5424,0.0,0.0,0.0,0.0,0.0,0.0,0.0,0.0,0.0,0.0,0.0,0.0,0.0,0.0,0.0,0.0,0.0,0.0,0.0,0.0,0.0,0.0,0.0,0.0,0.0,0.0,0.0,0.0,0.0,0.0,0.0,0.0,0.0,0.0,0.0,0.0,0.0,0.0,0.0,0.0,0.0,0.0,0.0,0.0,0.0,0.0,0.0,0.0,0.0,0.0,0.0,0.0,0.0,0.0,0.0,0.0,0.0,0.0,0.0,0.0,0.0,0.0,0.0,0.0,0.0,0.0,0.0,0.0,0.0,0.0,0.0,0.0,0.0,0.0,0.0,0.0,0.0,0.0,0.0,0.0,0.0,0.0,0.0,0.0,0.0,0.0,0.0,0.0,0.0,0.0,0.0,0.0,0.0,0.0,0.0,0.0,0.0,0.0,0.0,0.0,0.0,0.0,0.0,0.0,0.0,0.0,0.0,0.0,0.0,0.0,0.5925,0.604,0.5952,0.5847,0.5691,0.0,0.0,0.0,0.0,0.0,0.0,0.0,0.0,0.0,0.0,0.0,0.0,0.0,0.0,0.0,0.0,0.0,0.0,0.0,0.0,0.0,0.0,0.0,0.0,0.0,0.0,0.0,0.0,0.0,0.0,0.0,0.0,0.0,0.0,0.0,0.0,0.0,0.0,0.0,0.0,0.0,0.0,0.0,0.0,0.0,0.0,0.0,0.0,0.0,0.0,0.0,0.0,0.0,0.0,0.0,0.0,0.0,0.0,0.0,0.0,0.0,0.0,0.0,0.0,0.0,0.0,0.0,0.0,0.0,0.0,0.0,0.0,0.0,0.0,0.0,0.0,0.0,0.0,0.0,0.0,0.0,0.0,0.0,0.0,0.0,0.0,0.0,0.0,0.0,0.0,0.0,0.0,0.0,0.0,0.0,0.0,0.0,0.0,0.0,0.0,0.0,0.0,0.0,0.0,0.0,0.0,0.0,0.0,0.0,0.0,0.0,0.0,0.6338,0.619,0.5978,0.0,0.0,0.0,0.0,0.0,0.0,0.0,0.0,0.0,0.0,0.0,0.0,0.0,0.0,0.0,0.0,0.0,0.0,0.0,0.0,0.0,0.0,0.0,0.0,0.0,0.0,0.0,0.0,0.0,0.0,0.0,0.0,0.0,0.0,0.0,0.0,0.0,0.0,0.0,0.0,0.0,0.0,0.0,0.0,0.0,0.0,0.0,0.0,0.0,0.0,0.0,0.0,0.0,0.0,0.0,0.0,0.0,0.0,0.0,0.0,0.0,0.0,0.0,0.0,0.0,0.0,0.0,0.0,0.0,0.0,0.0,0.0,0.0,0.0,0.0,0.0,0.0,0.0,0.0,0.0,0.0,0.0,0.0,0.0,0.0,0.0,0.0,0.0,0.0,0.0,0.0,0.0,0.0,0.0,0.0,0.0,0.0,0.0,0.0,0.0,0.0,0.0,0.0,0.0,0.0,0.0,0.0,0.0,0.0,0.0,0.6557,0.6576,0.658,0.0,0.618,0.0,0.0,0.0,0.0,0.0,0.0,0.0,0.0,0.0,0.0,0.0,0.0,0.0,0.0,0.0,0.0,0.0,0.0,0.0,0.0,0.0,0.0,0.0,0.0,0.0,0.0,0.0,0.0,0.0,0.0,0.0,0.0,0.0,0.0,0.0,0.0,0.0,0.0,0.0,0.0,0.0,0.0,0.0,0.0,0.0,0.0,0.0,0.0,0.0,0.0,0.0,0.0,0.0,0.0,0.0,0.0,0.0,0.0,0.0,0.0,0.0,0.0,0.0,0.0,0.0,0.0,0.0,0.0,0.0,0.0,0.0,0.0,0.0,0.0,0.0,0.0,0.0,0.0,0.0,0.0,0.0,0.0,0.0,0.0,0.0,0.0,0.0,0.0,0.0,0.0,0.0,0.0,0.0,0.0,0.0,0.0,0.0,0.0,0.0,0.0,0.0,0.0,0.0,0.0,0.0,0.0,0.0,0.0,0.0,0.0,0.0,0.7652,0.7362,0.7031,0.0,0.0,0.0,0.0,0.0,0.0,0.0,0.0,0.0,0.0,0.0,0.0,0.0,0.0,0.0,0.0,0.0,0.0,0.0,0.0,0.0,0.0,0.0,0.0,0.0,0.0,0.0,0.0,0.0,0.0,0.0,0.0,0.0,0.0,0.0,0.0,0.0,0.0,0.0,0.0,0.0,0.0,0.0,0.0,0.0,0.0,0.0,0.0,0.0,0.0,0.0,0.0,0.0,0.0,0.0,0.0,0.0,0.0,0.0,0.0,0.0,0.0,0.0,0.0,0.0,0.0,0.0,0.0,0.0,0.0,0.0,0.0,0.0,0.0,0.0,0.0,0.0,0.0,0.0,0.0,0.0,0.0,0.0,0.0,0.0,0.0,0.0,0.0,0.0,0.0,0.0,0.0,0.0,0.0,0.0,0.0,0.0,0.0,0.0,0.0,0.0,0.0,0.0,0.0,0.0,0.0,0.0,0.0,0.0,0.0,0.7416,0.0,0.8326,0.7959,0.7589,0.732,0.0,0.0,0.0,0.0,0.0,0.0,0.0,0.0,0.0,0.0,0.0,0.0,0.0,0.0,0.0,0.0,0.0,0.0,0.0,0.0,0.0,0.0,0.0,0.0,0.0,0.0,0.0,0.0,0.0,0.0,0.0,0.0,0.0,0.0,0.0,0.0,0.0,0.0,0.0,0.0,0.0,0.0,0.0,0.0,0.0,0.0,0.0,0.0,0.0,0.0,0.0,0.0,0.0,0.0,0.0,0.0,0.0,0.0,0.0,0.0,0.0,0.0,0.0,0.0,0.0,0.0,0.0,0.0,0.0,0.0,0.0,0.0,0.0,0.0,0.0,0.0,0.0,0.0,0.0,0.0,0.0,0.0,0.0,0.0,0.0,0.0,0.0,0.0,0.0,0.0,0.0,0.0,0.0,0.0,0.0,0.0,0.0,0.0,0.0,0.0,0.0,0.0,0.0,0.0,0.0,0.0,0.0,0.0,0.0,0.7948,0.8165,0.84,0.8193,0.8079,0.0,0.0,0.0,0.0,0.0,0.0,0.0,0.0,0.0,0.0,0.0,0.0,0.0,0.0,0.0,0.0,0.0,0.0,0.0,0.0,0.0,0.0,0.0,0.0,0.0,0.0,0.0,0.0,0.0,0.0,0.0,0.0,0.0,0.0,0.0,0.0,0.0,0.0,0.0,0.0,0.0,0.0,0.0,0.0,0.0,0.0,0.0,0.0,0.0,0.0,0.0,0.0,0.0,0.0,0.0,0.0,0.0,0.0,0.0,0.0,0.0,0.0,0.0,0.0,0.0,0.0,0.0,0.0,0.0,0.0,0.0,0.0,0.0,0.0,0.0,0.0,0.0,0.0,0.0,0.0,0.0,0.0,0.0,0.0,0.0,0.0,0.0,0.0,0.0,0.0,0.0,0.0,0.0,0.0,0.0,0.0,0.0,0.0,0.0,0.0,0.0,0.0,0.0,0.0,0.0,0.0,0.0,0.0,0.0,0.8177,0.8516,0.8736,0.8847,0.8741,0.8816,0.0,0.0,0.0,0.0,0.0,0.0,0.0,0.0,0.0,0.0,0.0,0.0,0.0,0.0,0.0,0.0,0.0,0.0,0.0,0.0,0.0,0.0,0.0,0.0,0.0,0.0,0.0,0.0,0.0,0.0,0.0,0.0,0.0,0.0,0.0,0.0,0.0,0.0,0.0,0.0,0.0,0.0,0.0,0.0,0.0,0.0,0.0,0.0,0.0,0.0,0.0,0.0,0.0,0.0,0.0,0.0,0.0,0.0,0.0,0.0,0.0,0.0,0.0,0.0,0.0,0.0,0.0,0.0,0.0,0.0,0.0,0.0,0.0,0.0,0.0,0.0,0.0,0.0,0.0,0.0,0.0,0.0,0.0,0.0,0.0,0.0,0.0,0.0,0.0,0.0,0.0,0.0,0.0,0.0,0.0,0.0,0.0,0.0,0.0,0.0,0.0,0.0,0.0,0.0,0.0,0.0,0.0,0.0,0.0,0.8779,0.0,0.9374,0.0,0.9468,0.9602,0.0,0.0,0.0,0.0,0.0,0.0,0.0,0.0,0.0,0.0,0.0,0.0,0.0,0.0,0.0,0.0,0.0,0.0,0.0,0.0,0.0,0.0,0.0,0.0,0.0,0.0,0.0,0.0,0.0,0.0,0.0,0.0,0.0,0.0,0.0,0.0,0.0,0.0,0.0,0.0,0.0,0.0,0.0,0.0,0.0,0.0,0.0,0.0,0.0,0.0,0.0,0.0,0.0,0.0,0.0,0.0,0.0,0.0,0.0,0.0,0.0,0.0,0.0,0.0,0.0,0.0,0.0,0.0,0.0,0.0,0.0,0.0,0.0,0.0,0.0,0.0,0.0,0.0,0.0,0.0,0.0,0.0,0.0,0.0,0.0,0.0,0.0,0.0,0.0,0.0,0.0,0.0,0.0,0.0,0.0,0.0,0.0,0.0,0.0,0.0,0.0,0.0,0.0,0.0,0.0,0.0,0.0,0.0,0.8846,0.9584,0.9969,1.0061,0.9941,1.0313,1.0354,0.0,0.0,0.0,0.0,0.0,0.0,0.0,0.0,0.0,0.0,0.0,0.0,0.0,0.0,0.0,0.0,0.0,0.0,0.0,0.0,0.0,0.0,0.0,0.0,0.0,0.0,0.0,0.0,0.0,0.0,0.0,0.0,0.0,0.0,0.0,0.0,0.0,0.0,0.0,0.0,0.0,0.0,0.0,0.0,0.0,0.0,0.0,0.0,0.0,0.0,0.0,0.0,0.0,0.0,0.0,0.0,0.0,0.0,0.0,0.0,0.0,0.0,0.0,0.0,0.0,0.0,0.0,0.0,0.0,0.0,0.0,0.0,0.0,0.0,0.0,0.0,0.0,0.0,0.0,0.0,0.0,0.0,0.0,0.0,0.0,0.0,0.0,0.0,0.0,0.0,0.0,0.0,0.0,0.0,0.0,0.0,0.0,0.0,0.0,0.0,0.0,0.0,0.0,0.0,0.0,0.0,0.0,0.0,0.0,1.0559,1.005,1.0067,1.0626,1.0448,1.0486,0.0,0.0,0.0,0.0,0.0,0.0,0.0,0.0,0.0,0.0,0.0,0.0,0.0,0.0,0.0,0.0,0.0,0.0,0.0,0.0,0.0,0.0,0.0,0.0,0.0,0.0,0.0,0.0,0.0,0.0,0.0,0.0,0.0,0.0,0.0,0.0,0.0,0.0,0.0,0.0,0.0,0.0,0.0,0.0,0.0,0.0,0.0,0.0,0.0,0.0,0.0,0.0,0.0,0.0,0.0,0.0,0.0,0.0,0.0,0.0,0.0,0.0,0.0,0.0,0.0,0.0,0.0,0.0,0.0,0.0,0.0,0.0,0.0,0.0,0.0,0.0,0.0,0.0,0.0,0.0,0.0,0.0,0.0,0.0,0.0,0.0,0.0,0.0,0.0,0.0,0.0,0.0,0.0,0.0,0.0,0.0,0.0,0.0,0.0,0.0,0.0,0.0,0.0,0.0,0.0,0.0,0.0,0.0,0.0,1.2511,1.133,1.0924,1.1428,1.1183,1.1251,1.162,0.0,0.0,0.0,0.0,0.0,0.0,0.0,0.0,0.0,0.0,0.0,0.0,0.0,0.0,0.0,0.0,0.0,0.0,0.0,0.0,0.0,0.0,0.0,0.0,0.0,0.0,0.0,0.0,0.0,0.0,0.0,0.0,0.0,0.0,0.0,0.0,0.0,0.0,0.0,0.0,0.0,0.0,0.0,0.0,0.0,0.0,0.0,0.0,0.0,0.0,0.0,0.0,0.0,0.0,0.0,0.0,0.0,0.0,0.0,0.0,0.0,0.0,0.0,0.0,0.0,0.0,0.0,0.0,0.0,0.0,0.0,0.0,0.0,0.0,0.0,0.0,0.0,0.0,0.0,0.0,0.0,0.0,0.0,0.0,0.0,0.0,0.0,0.0,0.0,0.0,0.0,0.0,0.0,0.0,0.0,0.0,0.0,0.0,0.0,0.0,0.0,0.0,0.0,0.0,0.0,0.0,0.0,0.0,1.5217,1.3611,1.2673,1.2445,1.2529,1.2556,0.0,0.0,0.0,0.0,0.0,0.0,0.0,0.0,0.0,0.0,0.0,0.0,0.0,0.0,0.0,0.0,0.0,0.0,0.0,0.0,0.0,0.0,0.0,0.0,0.0,0.0,0.0,0.0,0.0,0.0,0.0,0.0,0.0,0.0,0.0,0.0,0.0,0.0,0.0,0.0,0.0,0.0,0.0,0.0,0.0,0.0,0.0,0.0,0.0,0.0,0.0,0.0,0.0,0.0,0.0,0.0,0.0,0.0,0.0,0.0,0.0,0.0,0.0,0.0,0.0,0.0,0.0,0.0,0.0,0.0,0.0,0.0,0.0,0.0,0.0,0.0,0.0,0.0,0.0,0.0,0.0,0.0,0.0,0.0,0.0,0.0,0.0,0.0,0.0,0.0,0.0,0.0,0.0,0.0,0.0,0.0,0.0,0.0,0.0,0.0,0.0,0.0,0.0,0.0,0.0,0.0,0.0,0.0,0.0,1.5625,1.5758,1.5577,1.5072,1.4129,1.3473,0.0,0.0,0.0,0.0,0.0,0.0,0.0,0.0,0.0,0.0,0.0,0.0,0.0,0.0,0.0,0.0,0.0,0.0,0.0,0.0,0.0,0.0,0.0,0.0,0.0,0.0,0.0,0.0,0.0,0.0,0.0,0.0,0.0,0.0,0.0,0.0,0.0,0.0,0.0,0.0,0.0,0.0,0.0,0.0,0.0,0.0,0.0,0.0,0.0,0.0,0.0,0.0,0.0,0.0,0.0,0.0,0.0,0.0,0.0,0.0,0.0,0.0,0.0,0.0,0.0,0.0,0.0,0.0,0.0,0.0,0.0,0.0,0.0,0.0,0.0,0.0,0.0,0.0,0.0,0.0,0.0,0.0,0.0,0.0,0.0,0.0,0.0,0.0,0.0,0.0,0.0,0.0,0.0,0.0,0.0,0.0,0.0,0.0,0.0,0.0,0.0,0.0,0.0,0.0,0.0,0.0,0.0,0.0,1.6072,1.6933,1.7638,1.789,1.7654,1.5765,1.458,0.0,0.0,0.0,0.0,0.0,0.0,0.0,0.0,0.0,0.0,0.0,0.0,0.0,0.0,0.0,0.0,0.0,0.0,0.0,0.0,0.0,0.0,0.0,0.0,0.0,0.0,0.0,0.0,0.0,0.0,0.0,0.0,0.0,0.0,0.0,0.0,0.0,0.0,0.0,0.0,0.0,0.0,0.0,0.0,0.0,0.0,0.0,0.0,0.0,0.0,0.0,0.0,0.0,0.0,0.0,0.0,0.0,0.0,0.0,0.0,0.0,0.0,0.0,0.0,0.0,0.0,0.0,0.0,0.0,0.0,0.0,0.0,0.0,0.0,0.0,0.0,0.0,0.0,0.0,0.0,0.0,0.0,0.0,0.0,0.0,0.0,0.0,0.0,0.0,0.0,0.0,0.0,0.0,0.0,0.0,0.0,0.0,0.0,0.0,0.0,0.0,0.0,0.0,0.0,0.0,0.0,0.0,0.0,1.7069,1.8482,1.9084,1.9468,1.9623,1.7271,1.5698,0.0,0.0,0.0,0.0,0.0,0.0,0.0,0.0,0.0,0.0,0.0,0.0,0.0,0.0,0.0,0.0,0.0,0.0,0.0,0.0,0.0,0.0,0.0,0.0,0.0,0.0,0.0,0.0,0.0,0.0,0.0,0.0,0.0,0.0,0.0,0.0,0.0,0.0,0.0,0.0,0.0,0.0,0.0,0.0,0.0,0.0,0.0,0.0,0.0,0.0,0.0,0.0,0.0,0.0,0.0,0.0,0.0,0.0,0.0,0.0,0.0,0.0,0.0,0.0,0.0,0.0,0.0,0.0,0.0,0.0,0.0,0.0,0.0,0.0,0.0,0.0,0.0,0.0,0.0,0.0,0.0,0.0,0.0,0.0,0.0,0.0,0.0,0.0,0.0,0.0,0.0,0.0,0.0,0.0,0.0,0.0,0.0,0.0,0.0,0.0,0.0,0.0,0.0,0.0,0.0,0.0,0.0,0.0,1.7384,1.8765,1.8942,1.9037,1.9076,1.7733,1.6575,0.0,0.0,0.0,0.0,0.0,0.0,0.0,0.0,0.0,0.0,0.0,0.0,0.0,0.0,0.0,0.0,0.0,0.0,0.0,0.0,0.0,0.0,0.0,0.0,0.0,0.0,0.0,0.0,0.0,0.0,0.0,0.0,0.0,0.0,0.0,0.0,0.0,0.0,0.0,0.0,0.0,0.0,0.0,0.0,0.0,0.0,0.0,0.0,0.6414,0.0,0.0,0.0,0.0,0.0,0.0,0.0,0.0,0.0,0.0,0.0,0.0,0.0,0.0,0.0,0.0,0.0,0.0,0.0,0.0,0.0,0.0,0.0,0.0,0.0,0.0,0.0,0.0,0.0,0.0,0.0,0.0,0.0,0.0,0.0,0.0,0.0,0.0,0.0,0.0,0.0,0.0,0.0,0.0,0.0,0.0,0.0,0.0,0.0,0.0,0.0,0.0,0.0,0.0,0.0,0.0,0.0,0.0,0.0,1.7331,1.8823,1.8623,1.8595,1.885,1.7955,1.6919,0.0,0.0,0.0,0.0,0.0,0.0,0.0,0.0,0.0,0.0,0.0,0.0,0.0,0.0,0.0,0.0,0.0,0.0,0.0,0.0,0.0,0.0,0.0,0.0,0.0,0.0,0.0,0.0,0.0,0.0,0.0,0.0,0.0,0.0,0.0,0.0,0.0,0.0,0.0,0.0,0.0,0.0,0.0,0.0,0.0,0.0,0.0,0.0,0.0,0.0,0.0,0.0,0.0,0.0,0.0,0.0,0.0,0.0,0.0,0.0,0.0,0.0,0.0,0.0,0.0,0.0,0.0,0.0,0.0,0.0,0.0,0.0,0.0,0.0,0.0,0.0,0.0,0.0,0.0,0.0,0.0,0.0,0.0,0.0,0.0,0.0,0.0,0.0,0.0,0.0,0.0,0.0,0.0,0.0,0.0,0.0,0.0,0.0,0.0,0.0,0.0,0.0,0.0,0.0,0.0,0.0,0.0,1.6192,1.7167,1.873,1.8249,1.8169,1.8677,1.7943,1.7007,1.5835,0.0,0.0,0.0,0.0,0.0,0.0,0.0,0.0,0.0,0.0,0.0,0.0,0.0,0.0,0.0,0.0,0.0,0.0,0.0,0.0,0.0,0.0,0.0,0.0,0.0,0.0,0.0,0.0,0.0,0.0,0.0,0.0,0.0,0.0,0.0,0.0,0.0,0.0,0.4719,0.522,0.0,0.0,0.0,0.0,0.0,0.0,0.0,0.0,0.9113,0.0,0.0,0.0,0.0,0.0,0.0,0.0,0.0,0.0,0.0,0.0,0.0,0.0,0.0,0.0,0.0,0.0,0.0,0.0,0.0,0.0,0.0,0.0,0.0,0.0,0.0,0.0,0.0,0.0,0.0,0.0,0.0,0.0,0.0,0.0,0.0,0.0,0.0,0.0,0.0,0.0,0.0,0.0,0.0,0.0,0.0,0.0,0.0,0.0,0.0,0.0,0.0,0.0,0.0,0.0,0.0,1.6205,1.6499,1.7261,1.8531,1.7983,1.7715,1.7796,1.7448,1.6805,1.5808,0.0,0.0,0.0,0.0,0.0,0.0,0.0,0.0,0.0,0.0,0.0,0.0,0.0,0.0,0.0,0.0,0.0,0.0,0.0,0.0,0.0,0.0,0.0,0.0,0.0,0.0,0.0,0.0,0.0,0.0,0.0,0.0,0.0,0.0,0.0,0.0,0.0,0.0,0.0,0.6067,0.6953,0.0,0.0,0.0,0.0,0.0,0.0,0.0,0.0,1.0495,0.0,0.0,0.0,0.0,0.0,0.0,0.0,0.0,0.0,0.0,0.0,0.0,0.0,0.0,0.0,0.0,0.0,0.0,0.0,0.0,0.0,0.0,0.0,0.0,0.0,0.0,0.0,0.0,0.0,0.0,0.0,0.0,0.0,0.0,0.0,0.0,0.0,0.0,0.0,0.0,0.0,0.0,0.0,0.0,0.0,0.0,0.0,0.0,0.0,0.0,0.0,0.0,0.0,0.0,0.0,1.6257,1.6751,1.7461,1.8437,1.8036,1.7876,1.805,1.7501,1.6765,0.0,0.0,0.0,0.0,0.0,0.0,0.0,0.0,0.0,0.0,0.0,0.0,0.0,0.0,0.0,0.0,0.0,0.0,0.0,0.0,0.0,0.0,0.0,0.0,0.0,0.0,0.0,0.0,0.0,0.0,0.0,0.0,0.0,0.0,0.0,0.0,0.0,0.0,0.0,0.0,0.7055,0.8078,0.8494,0.0,0.0,0.0,0.0,0.0,0.0,1.1513,1.1451,0.0,0.0,0.0,0.0,0.0,0.0,0.0,0.0,0.0,0.0,0.0,0.0,0.0,0.0,0.0,0.0,0.0,0.0,0.0,0.0,0.0,0.0,0.0,0.0,0.0,0.0,0.0,0.0,0.0,0.0,0.0,0.0,0.0,0.0,0.0,0.0,0.0,0.0,0.0,0.0,0.0,0.0,0.0,0.0,0.0,0.0,0.0,0.0,0.0,0.0,0.0,0.0,0.0,0.0,0.0,1.627,1.6898,1.7595,1.8343,1.8089,1.8049,1.829,1.7541,1.6698,0.0,0.0,0.0,0.0,0.0,0.0,0.0,0.0,0.0,0.0,0.0,0.0,0.0,0.0,0.0,0.0,0.0,0.0,0.0,0.0,0.0,0.0,0.0,0.0,0.0,0.0,0.0,0.0,0.0,0.0,0.0,0.0,0.0,0.0,0.0,0.0,0.0,0.0,0.0,0.0,0.0,0.9216,0.9748,1.0431,0.0,0.0,0.0,0.0,1.2754,1.2541,0.0,0.0,0.0,0.0,0.0,0.0,0.0,0.0,0.0,0.0,0.0,0.0,0.0,0.0,0.0,0.0,0.0,0.0,0.0,0.0,0.0,0.0,0.0,0.0,0.0,0.0,0.0,0.0,0.0,0.0,0.0,0.0,0.0,0.0,0.0,0.0,0.0,0.0,0.0,0.0,0.0,0.0,0.0,0.0,0.0,0.0,0.0,0.0,0.0,0.0,0.0,0.0,0.0,0.0,0.0,0.0,1.627,1.6885,1.7488,1.8022,1.7782,1.7662,1.7689,1.7088,1.6447,0.0,0.0,0.0,0.0,0.0,0.0,0.0,0.0,0.0,0.0,0.0,0.0,0.0,0.0,0.0,0.0,0.0,0.0,0.0,0.0,0.0,0.0,0.0,0.0,0.0,0.0,0.0,0.0,0.0,0.0,0.0,0.0,0.0,0.0,0.0,0.0,0.0,0.0,0.0,0.0,0.0,1.0398,1.0266,1.1932,1.3118,0.0,0.0,1.3953,1.4078,1.4241,0.0,0.0,0.0,0.0,0.0,0.0,0.0,0.0,0.0,0.0,0.0,0.0,0.0,0.0,0.0,0.0,0.0,0.0,0.0,0.0,0.0,0.0,0.0,0.0,0.0,0.0,0.0,0.0,0.0,0.0,0.0,0.0,0.0,0.0,0.0,0.0,0.0,0.0,0.0,0.0,0.0,0.0,0.0,0.0,0.0,0.0,0.0,0.0,0.0,0.0,0.0,0.0,0.0,0.0,0.0,1.5162,1.6019,1.694,1.7622,1.7982,1.7889,1.7836,1.7822,1.7088,1.6341,0.0,0.0,0.0,0.0,0.0,0.0,0.0,0.0,0.0,0.0,0.0,0.0,0.0,0.0,0.0,0.0,0.0,0.0,0.0,0.0,0.0,0.0,0.0,0.0,0.0,0.0,0.0,0.0,0.0,0.0,0.0,0.0,0.0,0.0,0.0,0.0,0.0,0.0,0.0,0.0,0.0,0.0,1.2514,1.3561,0.0,0.0,0.0,1.4407,1.4506,0.0,0.0,0.0,0.0,0.0,0.0,0.0,0.0,0.0,0.0,0.0,0.0,0.0,0.0,0.0,0.0,0.0,0.0,0.0,0.0,0.0,0.0,0.0,0.0,0.0,0.0,0.0,0.0,0.0,0.0,0.0,0.0,0.0,0.0,0.0,0.0,0.0,0.0,0.0,0.0,0.0,0.0,0.0,0.0,0.0,0.0,0.0,0.0,0.0,0.0,0.0,0.0,0.0,0.0,0.0,0.0,0.0,1.5915,1.7021,1.7689,1.7889,1.7889,1.7889,1.7889,1.7115,0.0,0.0,0.0,0.0,0.0,0.0,0.0,0.0,0.0,0.0,0.0,0.0,0.0,0.0,0.0,0.0,0.0,0.0,0.0,0.0,0.0,0.0,0.0,0.0,0.0,0.0,0.0,0.7062,0.0,0.0,0.0,0.0,0.0,0.0,0.0,0.0,0.0,0.0,0.0,0.0,0.0,0.0,1.3426,1.4037,1.4835,1.5443,0.0,0.0,1.4907,1.4987,1.4883,1.4691,0.0,0.0,0.0,0.0,0.0,0.0,0.0,0.0,0.0,0.0,0.0,0.0,0.0,0.0,0.0,0.0,0.0,0.0,0.0,0.0,0.0,0.0,0.0,0.0,0.0,0.0,0.0,0.0,0.0,0.0,0.0,0.0,0.0,0.0,0.0,0.0,0.0,0.0,0.0,0.0,0.0,0.0,0.0,0.0,0.0,0.0,0.0,0.0,0.0,0.0,0.0,0.0,0.0,0.0,0.0,1.627,1.7141,1.7608,1.7635,1.7622,1.7622,1.7622,1.7021,1.6407,0.0,0.0,0.0,0.0,0.0,0.0,0.0,0.0,0.0,0.0,0.0,0.0,0.0,0.0,0.0,0.0,0.0,0.0,0.0,0.0,0.0,0.0,0.0,0.0,0.0,0.0,0.0,0.0,0.0,0.0,0.0,0.0,0.0,0.0,0.0,0.0,0.0,0.0,0.0,0.0,0.0,1.3914,1.3671,1.5532,1.6666,0.0,0.0,1.6089,1.586,1.5812,1.5539,1.4792,0.0,0.0,0.0,0.0,0.0,0.0,0.0,0.0,0.0,0.0,0.0,0.0,0.0,0.0,0.0,0.0,0.0,0.0,0.0,0.0,0.0,0.0,0.0,0.0,0.0,0.0,0.0,0.0,0.0,0.0,0.0,0.0,0.0,0.0,0.0,0.0,0.0,0.0,0.0,0.0,0.0,0.0,0.0,0.0,0.0,0.0,0.0,0.0,0.0,0.0,0.0,0.0,0.0,1.5697,1.6297,1.7167,1.7608,1.7608,1.7608,1.7608,1.7608,1.7194,1.6632,0.0,0.0,0.0,0.0,0.0,0.0,0.0,0.0,0.0,0.0,0.0,0.0,0.0,0.0,0.0,0.0,0.0,0.0,0.0,0.0,0.0,0.0,0.0,0.0,0.0,0.0,0.0,0.0,0.9958,1.0372,1.0528,0.0,0.0,0.0,0.0,0.0,0.0,0.0,0.0,0.0,0.0,1.4703,1.5408,1.6154,0.0,0.0,1.6585,1.6454,1.6189,1.6154,1.5918,1.5284,1.4901,0.0,0.0,0.0,0.0,0.0,0.0,0.0,0.0,0.0,0.0,0.0,0.0,0.0,0.0,0.0,0.0,0.0,0.0,0.0,0.0,0.0,0.0,0.0,0.0,0.0,0.0,0.0,0.0,0.0,0.0,0.0,0.0,0.0,0.0,0.0,0.0,0.0,0.0,0.0,0.0,0.0,0.0,0.0,0.0,0.0,0.0,0.0,0.0,0.0,0.0,0.0,0.0,1.5805,1.6431,1.7207,1.7635,1.7729,1.7635,1.7635,1.7715,1.7367,1.6818,0.0,0.0,0.0,0.0,0.0,0.0,0.0,0.0,0.0,0.0,0.0,0.0,0.0,0.0,0.0,0.0,0.0,0.0,0.0,0.0,0.0,0.0,0.0,0.0,0.0,0.0,0.0,0.0,1.1058,1.1514,1.161,0.0,0.0,0.0,0.0,0.0,0.0,0.0,0.0,0.0,0.0,1.5519,1.6447,1.6624,1.6779,1.7167,1.6984,1.6769,1.6577,1.6406,1.6152,1.5705,0.0,0.0,0.0,0.0,0.0,0.0,0.0,0.0,0.0,0.0,0.0,0.0,0.0,0.0,0.0,0.0,0.0,0.0,0.0,0.0,0.0,0.0,0.0,0.0,0.0,0.0,0.0,1.3123,0.0,0.0,1.2234,0.0,0.0,0.0,0.0,0.0,0.0,0.0,0.0,0.0,0.0,0.0,0.0,0.0,0.0,0.0,0.0,0.0,0.0,0.0,0.0,0.0,0.0,1.6088,1.6674,1.7288,1.7729,1.7955,1.7729,1.7742,1.7996,1.7475,1.6912,1.631,0.0,0.0,0.0,0.0,0.0,0.0,0.0,0.0,0.0,0.0,0.0,0.0,0.0,0.0,0.0,0.0,0.0,0.0,0.0,0.0,0.0,0.0,0.0,0.0,0.0,0.0,1.0901,1.1483,1.2007,0.0,0.0,0.0,0.0,0.0,0.0,0.0,0.0,0.0,0.0,1.544,1.6275,1.6325,1.6956,1.746,1.7496,1.7276,1.7095,1.7083,1.6646,1.6211,0.0,0.0,0.0,0.0,0.0,0.0,0.0,0.0,0.0,0.0,0.0,0.0,0.0,0.0,0.0,0.0,0.0,0.0,0.0,0.0,0.0,0.0,0.0,0.0,0.0,0.0,0.0,1.475,1.4629,0.0,0.0,0.0,0.0,0.0,0.0,0.0,0.0,0.0,0.0,0.0,1.5869,1.6044,0.0,0.0,0.0,0.0,0.0,0.0,0.0,0.0,0.0,0.0,0.0,0.0,1.6313,1.6701,1.7288,1.7716,1.7996,1.7902,1.8265,1.9098,1.8209,1.7368,1.6592,0.0,0.0,0.0,0.0,0.0,0.0,0.0,0.0,0.0,0.0,0.0,0.0,0.0,0.0,0.0,0.0,0.0,0.0,0.0,0.0,0.0,0.0,0.0,0.0,0.0,1.1718,0.0,0.0,0.0,0.0,0.0,0.0,0.0,0.0,0.0,0.0,0.0,1.4927,1.5786,1.613,1.649,1.7021,1.717,1.7361,0.0,0.0,0.0,0.0,0.0,0.0,0.0,0.0,0.0,0.0,0.0,0.0,0.0,0.0,1.5835,1.4998,1.5007,1.5314,1.5853,0.0,0.0,0.0,0.0,0.0,0.0,0.0,0.0,0.0,0.0,0.0,0.0,0.0,0.0,1.6127,0.0,1.575,0.0,0.0,0.0,0.0,0.0,0.0,0.0,0.0,1.686,1.7073,1.7073,1.7247,1.7168,0.0,1.6887,1.6234,0.0,0.0,0.0,0.0,0.0,0.0,0.0,0.0,1.6572,1.6873,1.7448,1.809,1.8767,1.8795,1.9203,1.9993,1.8616,1.7673,1.7315,1.6109,1.5384,0.0,0.0,0.0,0.0,0.0,0.0,0.0,0.0,0.0,0.0,0.0,0.0,0.0,0.0,0.0,0.0,0.0,0.0,0.0,0.0,0.0,0.0,0.0,1.246,0.0,0.0,0.0,0.0,0.0,0.0,0.0,0.0,0.0,1.5369,1.5663,1.6228,1.6995,1.7051,1.718,1.7705,0.0,0.0,0.0,0.0,0.0,0.0,0.0,1.7046,1.6877,1.6997,1.7236,1.7436,1.7508,1.7529,1.7471,0.0,0.0,1.6629,1.6368,1.6416,1.6726,1.6539,1.6256,1.6095,1.6223,1.6347,0.0,0.0,0.0,0.0,0.0,0.0,0.0,0.0,1.6954,1.7154,0.0,1.7034,0.0,0.0,0.0,0.0,0.0,1.6951,0.0,0.0,1.8196,1.8518,1.8504,1.8504,1.8371,1.8103,1.8036,1.7889,1.7607,1.6237,0.0,0.0,0.0,0.0,0.0,0.0,1.6891,1.7205,1.7782,1.8767,2.0125,2.0305,2.0479,2.0674,1.8791,1.7976,1.8337,1.7159,1.6479,1.6577,1.5314,0.0,0.0,0.0,0.0,0.0,0.0,0.0,0.0,0.0,0.0,0.0,0.0,0.0,0.0,0.0,0.0,0.0,0.0,0.0,0.0,1.2242,0.0,0.0,0.0,0.0,0.0,0.0,0.0,0.0,0.0,0.0,1.6405,1.7014,1.7604,1.7886,0.0,0.0,0.0,0.0,1.8303,1.83,1.8073,1.7919,1.7931,1.7493,1.7141,1.7155,0.0,0.0,1.8767,1.8631,1.8363,1.8192,1.8343,1.8261,1.7701,1.736,1.7236,1.7463,1.7326,1.7179,1.7176,1.7551,1.7865,1.9187,0.0,0.0,0.0,0.0,1.7729,1.8237,1.9052,1.8972,1.8891,1.8866,1.845,0.0,0.0,0.0,0.0,0.0,0.0,1.7956,1.8264,1.8624,1.8784,1.8797,1.9026,1.9426,1.9889,1.9055,1.8947,1.9485,1.8864,1.8127,1.7368,0.0,0.0,0.0,0.0,1.7489,1.7296,1.8561,1.92,1.903,2.0882,2.1764,2.1567,2.0695,1.9844,1.899,1.912,1.8432,1.6751,1.6437,0.0,0.0,0.0,0.0,0.0,0.0,0.0,0.0,0.0,0.0,0.0,0.0,0.0,0.0,0.0,0.0,0.0,0.0,0.0,1.2002,1.2447,1.3135,0.0,0.0,0.0,0.0,0.0,0.0,0.0,0.0,0.0,1.7991,1.7883,1.7961,0.0,0.0,1.8315,1.8315,1.8315,1.8375,1.8557,1.8379,0.0,1.8436,1.8182,1.804,1.8266,1.8661,1.893,1.8839,1.9107,1.9305,1.9247,1.944,1.9561,1.9355,1.8616,1.8089,1.8112,1.8257,1.8315,1.8168,1.8406,1.8513,2.2645,2.18,1.9578,1.8919,1.936,1.9373,1.9667,2.0149,2.0027,1.988,1.9708,1.9384,1.9065,1.8704,1.8424,0.0,0.0,0.0,1.9331,1.904,1.9745,1.9784,1.9308,1.9838,2.0387,2.0896,2.0656,2.0807,2.1363,2.1136,2.0758,2.0108,0.0,0.0,1.8432,1.857,1.8785,1.9162,1.9814,2.0357,2.0811,2.2509,2.3144,2.2622,2.1929,2.1212,2.0521,2.0125,1.9598,1.8863,1.7471,1.6304,0.0,0.0,0.0,0.0,0.0,0.0,0.0,0.0,0.0,0.0,0.0,1.3799,1.3825,0.0,0.0,0.0,1.2088,1.1976,1.2557,1.3243,0.0,0.0,0.0,0.0,0.0,0.0,0.0,1.7759,1.8387,1.8834,1.8979,1.8741,1.862,1.8838,1.8714,1.8633,1.8617,0.0,1.8677,1.8834,1.8629,1.8567,1.8853,1.8673,1.8677,1.9266,1.9883,2.0055,1.9665,2.0163,2.0498,2.0152,2.0097,2.0167,2.0229,1.9614,1.9064,1.8958,1.9061,1.915,1.9014,1.9301,1.9434,2.6332,2.6991,2.2633,2.0958,2.1135,2.1133,2.1164,2.1121,2.0791,2.0625,2.0569,2.0301,2.0106,1.9961,1.9618,0.0,1.9686,2.1176,2.1232,2.0197,2.1305,2.1232,2.0228,2.0873,2.1332,2.1561,2.2524,2.3045,2.3141,2.307,2.3154,2.3293,2.2044,2.0927,2.0054,1.9888,2.0557,2.202,2.1316,2.2092,2.4362,2.4573,2.4388,2.3798,2.2626,2.2136,2.2379,2.0542,2.0208,2.1578,1.8506,1.6633,1.6514,0.0,0.0,0.0,0.0,0.0,0.0,0.0,0.0,0.0,0.0,0.0,0.0,0.0,0.0,0.0,1.2994,0.0,1.3268,1.4425,0.0,0.0,0.0,1.702,1.7542,1.8058,1.8399,1.8399,0.0,0.0,1.9539,1.9532,1.939,1.9161,1.91,1.9104,1.9104,1.9108,1.9152,1.9156,1.8974,1.893,1.9255,1.9286,1.9473,2.0047,2.1173,2.1695,2.1106,2.1764,2.1881,2.0984,2.0564,2.0441,2.0546,2.0378,2.0176,1.9884,1.9804,1.9788,1.9794,2.019,2.0404,2.7989,2.7868,2.6489,2.5564,2.498,2.4964,2.498,2.4934,2.4563,2.4255,2.3994,2.3625,2.2796,2.1592,2.049,2.0567,2.155,2.192,2.2497,2.3087,2.2423,2.2468,2.3087,2.2037,2.2524,2.4253,2.344,2.3466,2.4348,2.4344,2.3786,2.2834,2.412,2.383,2.1939,2.1833,2.1767,2.1711,2.2657,2.3928,2.5482,2.4187,2.3778,2.4499,2.3363,2.2515,2.207,2.2047,2.1114,1.9256,1.9554,1.8648,1.6134,1.6343,0.0,0.0,0.0,0.0,0.0,0.0,0.0,0.0,0.0,1.5912,1.6009,0.0,1.5194,0.0,1.4321,1.4195,1.4859,1.5403,0.0,0.0,1.7587,1.8061,1.8387,1.8883,1.9197,1.9213,1.9559,1.9801,1.9801,1.9608,1.9479,1.939,1.9237,1.9104,1.9104,1.9328,1.9488,1.9491,1.963,1.9798,1.9992,2.0935,2.1335,2.0292,2.239,2.3718,2.2386,2.3379,2.3933,2.2764,2.244,2.2066,2.1163,2.0924,2.0893,2.0787,2.0594,2.0467,2.048,2.0736,2.094,3.001,3.0378,2.9834,2.9305,2.8725,2.7279,2.6567,2.6456,2.6248,2.5881,2.5401,2.4958,2.428,2.3414,2.2671,2.2732,2.3475,2.4062,2.4423,2.4543,2.4264,2.4244,2.4363,2.3807,2.4284,2.5637,2.5289,2.5472,2.6123,2.6137,2.5604,2.4658,2.5882,2.5712,2.4162,2.3557,2.3449,2.3834,2.4493,2.5228,2.5923,2.4721,2.4292,2.4761,2.3979,2.3248,2.2619,2.2219,2.1424,2.024,1.9845,1.8957,1.7466,1.742,1.709,0.0,0.0,0.0,0.0,0.0,0.0,0.0,0.0,0.0,0.0,0.0,1.6302,1.5892,1.5462,1.5463,1.6151,1.667,1.7312,1.8122,1.8581,1.8931,1.9209,1.9612,1.9866,1.9866,2.023,2.0485,2.0473,2.0392,2.0352,2.0352,2.0493,2.0272,1.9516,1.9616,1.9775,1.9631,1.9871,2.0409,2.1064,2.2593,2.3372,2.2702,2.4286,2.5408,2.4008,2.4902,2.5377,2.3793,2.3684,2.359,2.2504,2.2595,2.2826,2.2828,2.2728,2.2193,2.1118,2.1002,2.1093,3.2031,3.3122,3.2443,3.2095,3.1786,2.8925,2.7572,2.7296,2.7247,2.684,2.6173,2.5602,2.5303,2.524,2.5071,2.5102,2.5331,2.6459,2.6459,2.5575,2.629,2.6109,2.5196,2.578,2.6134,2.6351,2.7308,2.7807,2.7807,2.7807,2.7624,2.7298,2.721,2.6884,2.6235,2.5084,2.5175,2.6505,2.6238,2.6044,2.5934,2.5627,2.5254,2.4746,2.4404,2.3993,2.3493,2.1996,2.1536,2.2268,2.0008,1.8878,1.9367,1.8757,1.8103,0.0,1.8311,0.0,0.0,0.0,0.0,0.0,0.0,0.0,0.0,1.7951,1.7457,1.6638,1.6699,1.6954,1.7385,1.8167,1.8827,1.9281,1.9573,1.9829,2.0072,2.0323,2.0498,2.0498,2.0968,2.1311,2.1549,2.1501,2.142,2.163,2.1894,2.1671,2.0551,2.04,2.0364,1.9839,2.0173,2.1238,2.2671,2.4224,2.5148,2.5132,2.6201,2.6732,2.5469,2.6353,2.6592,2.4775,2.4808,2.4978,2.4178,2.4547,2.4948,2.501,2.4902,2.4116,2.2358,2.1823,2.1492,3.323,3.3177,3.3048,3.2573,3.1952,3.1335,3.0851,3.049,3.0153,2.9596,2.8786,2.7624,2.6944,2.6537,2.5485,2.5592,2.6626,2.6868,2.7444,2.8212,2.7329,2.7369,2.8086,2.691,2.688,2.7908,2.7858,2.7807,2.7807,2.7807,2.7757,2.7683,2.7353,2.7127,2.6966,0.0,0.0,0.0,2.6391,2.6164,2.5554,2.5769,2.5383,2.4367,2.4257,0.0,2.3499,2.2876,2.2161,2.1435,2.1551,0.0,0.0,0.0,0.0,0.0,0.0,0.0,0.0,0.0,0.0,0.0,1.9396,1.9253,1.9146,1.9038,1.8685,1.8113,1.8839,1.9308,1.9156,1.9957,2.0519,2.0649,2.0872,2.1074,2.1137,2.1347,2.1524,2.1511,2.1614,2.2121,2.3011,2.227,2.1893,2.2858,2.231,2.2081,2.2781,2.2412,2.1693,2.0777,2.1695,2.2998,2.4332,2.5714,2.6262,2.5622,2.7097,2.7942,2.7006,2.7672,2.8137,2.6608,2.6503,2.6479,2.595,2.5443,2.5318,2.5984,2.5535,2.4856,2.4363,2.4255,2.3639,3.3671,3.3488,3.3286,3.2956,0.0,3.2184,3.1891,3.1669,3.1265,3.0751,3.0133,2.9069,2.8478,2.8238,2.738,2.7353,2.7987,2.7987,2.8346,2.8945,2.8301,2.8331,2.8975,2.8101,2.8026,2.8682,2.8495,2.8399,2.8399,2.8381,2.8274,2.8077,2.7889,2.7687,2.7514,2.7082,2.6706,2.6341,2.6317,2.6118,2.5714,2.5695,2.542,2.4814,2.4593,0.0,0.0,0.0,0.0,0.0,0.0,0.0,0.0,0.0,0.0,2.2855,2.3321,2.3322,2.2706,2.204,2.1517,2.1212,2.0722,2.026,1.9845,1.9733,1.9552,1.9225,1.9578,1.9861,1.9952,2.0522,2.0965,2.1074,2.1395,2.1607,2.1603,2.1735,2.1777,2.1811,2.1932,2.2362,2.3003,2.3304,2.3444,2.4125,2.4134,2.4211,2.4821,2.4108,2.3182,2.3119,2.3991,2.504,2.5897,2.7112,2.7804,2.7338,2.8107,2.8603,2.8107,2.8543,2.8752,2.8122,2.7987,2.7917,2.7654,2.6785,2.6326,2.7261,2.677,2.6292,2.6687,2.5942,2.4655,3.3854,3.3763,3.3451,3.3268,3.3158,3.2479,3.2131,3.1983,0.0,0.0,0.0,3.0091,2.9776,2.9684,2.9357,2.9188,2.91,2.91,2.9063,2.899,2.899,2.899,2.899,2.899,2.899,2.899,2.899,2.899,2.899,2.899,2.8828,2.8531,2.8443,2.8215,2.7807,2.7463,2.7151,2.6807,2.6343,2.6068,2.5989,2.5664,2.5462,2.5407,2.5163,2.5021,2.5008,2.4556,2.4258,2.4208,2.384,2.3795,2.4095,2.4202,2.4253,2.431,2.4698,2.4738,2.4351,2.3433,2.2903,2.3034,2.2263,2.1368,2.0384,2.0272,2.0253,2.0176,2.0013,2.0133,2.0541,2.0945,2.1262,2.1476,2.2035,2.231,2.207,2.2259,2.2379,2.2087,2.2259,2.264,2.3277,2.4232,2.5278,2.572,2.6141,2.6806,2.6856,2.5632,2.4862,2.569,2.6191,2.6788,2.7386,2.8167,2.8945,2.8797,2.8901,2.899,2.899,2.899,2.899,2.8901,2.8975,2.8931,2.8901,2.8062,2.7759,2.8797,2.8152,2.7597,2.8212,2.7127,2.5854,3.411,3.3781,3.3744,3.3524,3.3194,3.3067,3.2644,3.1966,3.1577,3.1157,3.0806,3.0662,3.0439,3.0112,3.0057,2.9852,2.9504,2.9504,2.932,2.9008,2.899,2.899,2.899,2.899,2.899,2.899,2.899,2.899,2.899,2.899,2.8986,2.888,2.8568,2.8201,2.7844,2.7738,2.7697,2.7624,2.6898,2.6348,2.6008,2.5934,2.575,2.5438,2.5695,2.5842,2.5824,2.6064,2.6094,2.5879,2.5797,2.5775,2.5842,2.5856,2.5973,2.6214,2.6878,2.68,2.5651,2.5995,2.5833,2.4777,2.4517,2.3378,2.0894,2.0823,2.0943,2.0893,2.13,2.1644,2.1702,2.217,2.2532,2.2726,2.3802,2.4077,2.3017,2.3836,2.4077,2.3051,2.2774,2.3873,2.5702,2.5616,2.6119,2.7833,2.7834,2.7538,2.8211,2.7246,2.6501,2.7114,2.7396,2.7807,2.8496,2.8815,2.9045,2.899,2.9027,2.9008,2.9045,2.9008,2.9008,2.899,2.8997,2.9012,2.9012,2.8886,2.8762,2.9004,2.8669,2.8274,2.7747,2.7804,2.8229,3.4293,3.411,3.3891,3.3689,3.3506,3.3304,3.2864,3.2294,3.1891,3.1504,3.1102,3.0898,3.0715,3.0516,3.0296,3.0094,2.9926,2.9702,2.9501,2.9317,2.9115,2.899,2.899,2.899,2.899,2.899,2.899,2.899,2.899,2.899,2.899,2.899,2.8807,2.8623,2.844,2.8238,2.8128,2.8109,2.754,2.7151,2.6981,2.6981,2.6875,2.671,2.6889,2.6981,2.6967,2.7165,2.7187,2.7061,2.686,2.6952,2.7343,2.7207,2.7226,2.7563,2.7907,2.785,2.727,2.7071,2.6429,2.5148,2.523,2.4859,2.354,2.2607,2.2282,2.2558,2.2105,2.1718,2.1833,2.2283,2.2893,2.37,2.4518,2.5042,2.5246,2.57,2.5853,2.5297,2.5179,2.5685,2.6939,2.7221,2.7651,2.9101,2.9166,2.9444,2.9395,2.9216,2.9093,2.9294,2.9157,2.9177,2.9562,2.9449,2.943,2.9599,2.9269,2.9137,2.9229,2.9192,2.9027,2.8979,2.8999,2.9097,2.9257,2.9149,2.9121,2.9188,2.8248,2.7663,2.7932,2.8633,2.8931,3.478,3.4508,3.4196,3.3959,3.3781,3.3469,3.3103,3.2699,3.2388,3.2001,3.1522,3.1134,3.0935,3.0898,3.0623,3.0424,3.0296,3.0017,2.9816,2.9721,2.9412,2.9284,2.9247,2.9192,2.9118,2.9133,2.906,2.899,2.899,2.899,2.899,2.899,2.899,2.899,2.899,2.8696,2.855,2.8531,2.8219,2.7977,2.7793,2.7807,2.7807,2.7793,2.7885,2.7918,2.7793,2.7899,2.794,2.7936,2.7646,2.7761,2.8333,2.8109,2.8018,2.8256,2.8352,2.8443,2.8476,2.7869,2.7006,2.602,2.6318,2.6612,2.6569,2.5233,2.4342,2.4439,2.3481,2.2815,2.3144,2.3331,2.3856,2.4959,2.5633,2.627,2.6971,2.737,2.7403,2.7221,2.7104,2.7138,2.7701,2.8575,2.9363,2.9836,3.073,3.0859,3.0146,3.0762,3.1183,3.0972,3.0605,3.0264,3.0238,2.9929,2.9889,3.0152,2.9709,2.954,2.9632,2.9467,2.9257,2.9233,2.9068,2.9279,2.9651,2.9743,2.9661,2.9678,2.8607,2.7835,2.882,2.8989,2.9008,3.5906,3.5023,3.4913,3.4479,3.3834,3.3762,3.354,3.3158,3.3103,3.2644,3.1979,3.1522,3.1371,3.1355,3.1284,3.1063,3.077,3.0715,3.0479,3.0152,3.0128,3.0094,3.002,2.9721,2.954,2.9485,2.9192,2.9027,2.9045,2.9023,2.899,2.899,2.899,2.899,2.899,2.8953,2.8935,2.8935,2.8913,2.8546,2.783,2.7807,2.7807,2.7793,2.8146,2.8164,2.7867,2.8146,2.8348,2.8348,2.8293,2.8329,2.8388,2.8366,2.8201,2.794,2.8201,2.8535,2.8883,2.8868,2.8725,2.8666,2.8926,2.9305,2.9568,2.8743,2.7634,2.6743,2.6319,2.6065,2.6543,2.6488,2.6472,2.6773,2.7916,2.846,2.7668,2.8295,2.8592,2.7205,2.7436,2.7602,2.8871,2.933,2.9853,3.0843,3.1168,3.1313,3.1087,3.1168,3.141,3.1281,3.1008,3.0626,3.0351,3.0185,3.0204,3.0241,3.0149,3.0075,3.0075,3.0078,2.9995,2.965,2.9357,2.9475,3.0244,3.0786,3.0807,3.0219,2.9653,2.9418,2.952,2.925,2.9037,3.6173,3.5674,3.5189,3.4673,3.4216,3.4353,3.426,3.3921,3.3865,3.3685,3.3311,3.2693,3.2037,3.141,3.141,3.1302,3.1137,3.0932,3.0717,3.0534,3.0329,3.0219,3.0185,3.0039,2.9947,2.9926,2.954,2.9372,2.9317,2.9118,2.899,2.899,2.899,2.899,2.899,2.899,2.899,2.899,2.899,2.884,2.8564,2.8509,2.8528,2.8528,2.8663,2.8696,2.8531,2.8693,2.8751,2.8751,2.8531,2.8513,2.8748,2.8535,2.844,2.8509,2.866,2.8825,2.899,2.9225,2.9372,2.9339,2.9944,3.0384,3.0534,3.0376,3.0045,2.943,2.7949,2.6979,2.7122,2.7121,2.7436,2.8246,2.897,2.9346,2.9705,3.0129,3.0226,2.9705,2.9639,2.977,3.0374,3.0536,3.0779,3.1329,3.141,3.141,3.141,3.141,3.141,3.1375,3.1247,3.1118,3.0898,3.0681,3.0681,3.0736,3.0479,3.0241,3.0479,3.0314,3.0155,3.0062,2.9875,2.9952,3.0568,3.103,3.1188,3.0662,3.028,3.0019,2.995,2.9444,2.9158,3.6727,3.6412,3.5664,3.5104,3.4765,3.4988,3.4861,3.4576,3.4478,3.4408,3.4235,3.3683,3.2913,3.2065,3.1697,3.149,3.1373,3.11,3.0987,3.0935,3.066,3.0534,3.0516,3.0421,3.0384,3.0296,2.9962,2.9702,2.9574,2.9192,2.899,2.899,2.899,2.899,2.899,2.899,2.899,2.9023,2.9079,2.9138,2.912,2.9138,2.9094,2.9005,2.899,2.8953,2.8843,2.8843,2.8843,2.881,2.8553,2.8586,2.8953,2.8715,2.8696,2.8972,2.91,2.9155,2.9188,2.9537,2.9761,2.9816,3.0421,3.0806,3.0846,3.1173,3.1391,3.1182,2.9476,2.8345,2.8279,2.8279,2.8772,2.9738,2.987,3.0341,3.1184,3.141,3.1345,3.141,3.1118,3.141,3.1394,3.1345,3.1361,3.1394,3.141,3.141,3.141,3.141,3.141,3.141,3.141,3.1391,3.1391,3.1155,3.1155,3.1173,3.0864,3.0715,3.0917,3.0678,3.055,3.0691,3.0572,3.0592,3.0922,3.1242,3.1352,3.1008,3.0662,3.0387,3.0351,2.9763,2.9562,3.8067,3.7244,3.6464,3.5905,3.5562,3.5578,3.5316,3.4942,3.4901,3.469,3.44,3.4286,3.4008,3.3489,3.2482,3.1752,3.1476,3.1389,3.1403,3.1403,3.1318,3.132,3.1336,3.0953,3.0786,3.0783,3.0416,3.0012,2.9592,2.921,2.899,2.899,2.899,2.899,2.902,2.902,2.9005,2.9079,2.9346,2.9479,2.9479,2.9479,2.9316,2.9068,2.9005,2.884,2.8531,2.8458,2.8458,2.8458,2.8443,2.859,2.8953,2.8957,2.8972,2.9027,2.9339,2.9556,2.9592,2.9944,3.0167,3.0222,3.0589,3.0825,3.088,3.1173,3.1391,3.1394,3.1085,3.0908,3.0892,3.0682,3.0876,3.1085,3.1233,3.1281,3.1377,3.141,3.141,3.141,3.141,3.141,3.141,3.141,3.141,3.141,3.141,3.141,3.141,3.141,3.141,3.141,3.141,3.141,3.141,3.1336,3.132,3.1339,3.1284,3.1263,3.1355,3.1373,3.1318,3.1281,3.1199,3.1201,3.1322,3.1375,3.1391,3.121,3.1008,3.0825,3.0754,3.0424,3.0222,3.7904,3.7391,3.7111,3.6714,3.6331,3.6307,3.606,3.5699,3.562,3.5546,3.537,3.5119,3.4806,3.4432,3.3693,3.3049,3.2461,3.1976,3.183,3.1974,3.1603,3.1619,3.1987,3.1662,3.1495,3.1455,3.1069,3.0454,2.9647,2.943,2.9247,2.9027,2.899,2.9094,2.9272,2.9316,2.9405,2.9568,2.9701,2.976,2.9764,2.976,2.9612,2.9331,2.9316,2.9157,2.8788,2.8991,2.9005,2.8803,2.8788,2.8843,2.8972,2.899,2.899,2.9027,2.939,2.9611,2.9684,3.0219,3.0571,3.0623,3.0953,3.1189,3.1192,3.1302,3.141,3.141,3.141,3.141,3.141,3.141,3.141,3.141,3.141,3.141,3.141,3.141,3.141,3.141,3.141,3.141,3.141,3.141,3.141,3.141,3.141,3.141,3.141,3.141,3.141,3.141,3.141,3.141,3.141,3.141,3.141,3.141,3.1373,3.1355,3.141,3.141,3.1355,3.1336,3.1391,3.141,3.1375,3.1375,3.141,3.1373,3.1171,3.1118,3.1192,3.0891,3.0723,3.8036,3.7803,3.7784,3.7514,3.7089,3.7084,3.6792,3.6331,3.6227,3.6152,3.5959,3.5706,3.5451,3.5205,3.4785,3.4341,3.3735,3.2782,3.233,3.2342,3.1942,3.191,3.215,3.2102,3.1926,3.171,3.1323,3.0698,3.0048,2.9852,2.9651,2.9412,2.9499,2.9646,2.9871,2.9991,3.014,3.029,3.0428,3.0488,3.0488,3.0488,3.0413,3.0249,3.02,2.986,2.9201,2.939,2.942,2.9198,2.9049,2.9045,2.9188,2.9207,2.9265,2.9397,2.9779,2.9996,3.007,3.0623,3.099,3.1008,3.1244,3.141,3.141,3.141,3.141,3.141,3.141,3.141,3.141,3.141,3.141,3.141,3.141,3.141,3.141,3.141,3.141,3.141,3.141,3.141,3.141,3.141,3.141,3.141,3.141,3.141,3.141,3.141,3.141,3.141,3.141,3.141,3.141,3.141,3.141,3.141,3.141,3.141,3.141,3.141,3.141,3.141,3.141,3.141,3.141,3.141,3.141,3.141,3.1373,3.13,3.1348,3.1372,3.1156,3.8574,3.8555,3.8592,3.8283,3.7895,3.7796,3.7422,3.6818,3.666,3.6423,3.6096,3.5979,3.5923,3.5864,3.5496,3.5338,3.4954,3.3806,3.2992,3.2596,3.2446,3.2252,3.2086,3.231,3.2134,3.16,3.1056,3.0822,3.0709,3.0366,3.0167,3.0229,3.0353,3.0485,3.0704,3.0886,3.1142,3.1211,3.1439,3.1634,3.1696,3.16,3.1565,3.1558,3.1554,3.0952,2.968,2.9613,2.9598,2.9453,2.9227,2.9225,2.9556,2.9595,2.9761,3.0094,3.0516,3.0751,3.0788,3.1118,3.1336,3.1355,3.1375,3.141,3.141,3.141,3.141,3.141,3.141,3.141,3.141,3.141,3.141,3.141,3.141,3.141,3.141,3.141,3.141,3.141,3.141,3.141,3.141,3.141,3.141,3.141,3.141,3.141,3.141,3.141,3.141,3.141,3.141,3.141,3.141,3.141,3.141,3.141,3.141,3.141,3.141,3.141,3.141,3.141,3.141,3.141,3.141,3.141,3.141,3.141,3.141,3.141,3.1403,3.1398,3.1419,3.8592,3.8592,3.8592,3.8514,3.834,3.8048,3.7736,3.7461,3.697,3.6619,3.6443,3.6135,3.6018,3.5979,3.5842,3.5647,3.5374,3.4862,3.4279,3.3598,3.3099,3.2896,3.289,3.2804,3.2645,3.232,3.1604,3.1191,3.1093,3.0788,3.0495,3.029,3.0328,3.0618,3.1071,3.1172,3.1386,3.1864,3.1985,3.2031,3.2046,3.2046,3.1924,3.1742,3.1909,3.1678,3.1069,3.0808,3.028,2.9613,2.9722,2.9889,2.9999,3.0017,3.0057,3.0204,3.0571,3.0806,3.0843,3.1171,3.141,3.141,3.141,3.141,3.141,3.141,3.141,3.141,3.141,3.141,3.141,3.141,3.141,3.141,3.141,3.141,3.141,3.141,3.141,3.141,3.141,3.141,3.141,3.141,3.141,3.141,3.141,3.141,3.141,3.141,3.141,3.141,3.141,3.141,3.141,3.141,3.141,3.141,3.141,3.141,3.141,3.141,3.141,3.141,3.141,3.141,3.141,3.141,3.141,3.141,3.141,3.141,3.141,3.141,3.141,3.8592,3.8592,3.8592,3.8592,3.8573,3.8262,3.8048,3.7853,3.7383,3.699,3.6677,3.6387,3.6155,3.6038,3.6018,3.5862,3.5628,3.5625,3.5251,3.4554,3.3808,3.3415,3.3223,3.2883,3.2788,3.2753,3.2131,3.1681,3.1537,3.1439,3.1199,3.0901,3.1083,3.1411,3.1828,3.1983,3.2262,3.2621,3.2637,3.2652,3.2637,3.2652,3.2544,3.2405,3.2529,3.2451,3.2134,3.1938,3.137,3.0521,3.0392,3.0395,3.0418,3.0439,3.0495,3.0678,3.0846,3.1027,3.1029,3.1265,3.141,3.141,3.141,3.141,3.141,3.141,3.141,3.141,3.141,3.141,3.141,3.141,3.141,3.141,3.141,3.141,3.141,3.141,3.141,3.141,3.141,3.141,3.141,3.141,3.141,3.141,3.141,3.141,3.141,3.141,3.141,3.141,3.141,3.141,3.141,3.141,3.141,3.141,3.141,3.141,3.141,3.141,3.141,3.141,3.141,3.141,3.141,3.141,3.141,3.141,3.141,3.141,3.141,3.141,3.141,3.8612,3.8592,3.8592,3.8592,3.8592,3.8553,3.834,3.799,3.7853,3.7422,3.6873,3.6695,3.6406,3.6077,3.6018,3.5979,3.5999,3.594,3.5706,3.5192,3.4528,3.3863,3.318,3.2762,3.2708,3.288,3.2549,3.2211,3.2011,3.2158,3.2246,3.1913,3.2305,3.2813,3.2764,3.3177,3.321,3.325,3.3308,3.3324,3.3324,3.3344,3.3328,3.3277,3.3289,3.3133,3.2852,3.2761,3.2473,3.1746,3.1051,3.0819,3.0893,3.0891,3.1053,3.1345,3.1423,3.1389,3.1391,3.1391,3.141,3.141,3.141,3.141,3.141,3.141,3.141,3.141,3.141,3.141,3.141,3.141,3.141,3.141,3.141,3.141,3.141,3.141,3.141,3.141,3.141,3.141,3.141,3.141,3.141,3.141,3.141,3.141,3.141,3.141,3.141,3.141,3.141,3.141,3.141,3.141,3.141,3.141,3.141,3.141,3.141,3.141,3.141,3.141,3.141,3.141,3.141,3.141,3.141,3.141,3.141,3.141,3.141,3.141,3.141,3.8866,3.8612,3.8592,3.8592,3.8592,3.8592,3.8534,3.8377,3.8048,3.7638,3.7148,3.6832,3.6482,3.6055,3.6018,3.6018,3.6018,3.6018,3.5801,3.5427,3.5212,3.4593,3.3788,3.3097,3.2947,3.3153,3.274,3.2485,3.2613,3.2501,3.239,3.2278,3.2485,3.2708,3.288,3.3042,3.3165,3.3355,3.3386,3.3386,3.3386,3.3386,3.3386,3.3386,3.3386,3.3344,3.3246,3.3249,3.2949,3.2245,3.1527,3.1424,3.1827,3.1708,3.1636,3.1728,3.1766,3.1669,3.1458,3.141,3.141,3.141,3.141,3.141,3.141,3.141,3.141,3.141,3.141,3.141,3.141,3.1412,3.1428,3.141,3.1428,3.1428,3.141,3.141,3.141,3.141,3.141,3.141,3.141,3.141,3.141,3.141,3.141,3.141,3.141,3.141,3.141,3.141,3.141,3.141,3.141,3.141,3.141,3.141,3.141,3.141,3.141,3.141,3.141,3.141,3.141,3.141,3.141,3.141,3.141,3.141,3.141,3.141,3.141,3.141,3.1426,3.9062,3.8846,3.8671,3.8592,3.8592,3.8592,3.8592,3.8553,3.8319,3.7949,3.7578,3.7324,3.6873,3.6328,3.6289,3.6174,3.6038,3.6018,3.5862,3.5684,3.5485,3.4899,3.4131,3.3546,3.3422,3.3358,3.2991,3.2864,3.288,3.2816,3.2753,3.2657,3.2756,3.2912,3.3121,3.3102,3.32,3.3371,3.3386,3.3386,3.3386,3.3386,3.3386,3.3386,3.3386,3.3386,3.3386,3.3386,3.3133,3.2651,3.2226,3.2128,3.2336,3.223,3.2118,3.2102,3.2102,3.1958,3.1685,3.1605,3.1522,3.1442,3.141,3.141,3.141,3.141,3.141,3.141,3.141,3.141,3.1412,3.154,3.1559,3.1449,3.154,3.1561,3.143,3.141,3.141,3.141,3.141,3.141,3.141,3.141,3.141,3.141,3.141,3.141,3.141,3.141,3.141,3.141,3.141,3.141,3.141,3.141,3.141,3.141,3.141,3.141,3.141,3.141,3.141,3.141,3.141,3.141,3.141,3.141,3.141,3.141,3.141,3.141,3.141,3.1474,3.1474,3.9298,3.9238,3.8827,3.8651,3.8671,3.863,3.8592,3.8592,3.8553,3.8281,3.7931,3.7892,3.7402,3.6773,3.6638,3.6445,3.6096,3.6038,3.5999,3.5862,3.5625,3.5098,3.443,3.4085,3.3757,3.3445,3.3386,3.3212,3.3102,3.3244,3.3197,3.3077,3.3287,3.3394,3.3417,3.3488,3.3539,3.3558,3.3656,3.3695,3.3656,3.3617,3.3558,3.3558,3.3558,3.348,3.3441,3.3445,3.3322,3.2962,3.2912,3.2718,3.2533,3.2501,3.2453,3.2453,3.2438,3.231,3.199,3.1878,3.1766,3.1538,3.1458,3.1426,3.1458,3.1458,3.1426,3.1506,3.1426,3.143,3.1575,3.1818,3.1854,3.1653,3.1799,3.1763,3.1504,3.141,3.141,3.141,3.141,3.141,3.141,3.141,3.141,3.141,3.141,3.141,3.141,3.141,3.141,3.141,3.141,3.141,3.141,3.141,3.141,3.141,3.141,3.141,3.141,3.141,3.141,3.141,3.141,3.141,3.141,3.141,3.141,3.141,3.141,3.141,3.1426,3.1538,3.1587,4.002,3.9707,3.9276,3.9062,3.9042,3.8729,3.8592,3.8592,3.8592,3.834,3.799,3.7912,3.7619,3.7166,3.6892,3.6638,3.6484,3.623,3.6018,3.5996,3.594,3.5605,3.5016,3.4505,3.3883,3.3519,3.3386,3.3339,3.3323,3.3362,3.339,3.3382,3.3651,3.3769,3.3539,3.3988,3.4238,3.4062,3.4219,3.4336,3.4258,3.4039,3.3867,3.3867,3.3867,3.3711,3.3555,3.375,3.3718,3.3357,3.3089,3.3033,3.3058,3.2896,3.28,3.2804,3.2788,3.2645,3.2342,3.2086,3.1862,3.1798,3.1605,3.1506,3.175,3.1557,3.1573,3.1669,3.1573,3.1554,3.1799,3.2221,3.2221,3.2019,3.1946,3.1873,3.1504,3.141,3.141,3.141,3.141,3.141,3.141,3.141,3.141,3.141,3.141,3.141,3.141,3.141,3.141,3.141,3.141,3.141,3.141,3.141,3.141,3.141,3.141,3.141,3.141,3.141,3.141,3.141,3.141,3.141,3.141,3.141,3.141,3.141,3.141,3.1442,3.149,3.1619,3.1811,4.0254,3.9863,3.9394,3.9082,3.8905,3.869,3.8592,3.8592,3.8592,3.8475,3.8262,3.8241,3.7988,3.758,3.7344,3.7168,3.6912,3.6541,3.6211,3.6074,3.5979,3.5764,3.543,3.4938,3.4394,3.3809,3.348,3.3406,3.3425,3.3613,3.3766,3.373,3.4,3.3961,3.3769,3.4219,3.4254,3.4196,3.4489,3.4687,3.4629,3.4313,3.3942,3.3809,3.3769,3.3633,3.3461,3.3864,3.3789,3.3546,3.3438,3.3391,3.3378,3.3228,3.3133,3.3153,3.3153,3.2978,3.2676,3.2485,3.231,3.2134,3.183,3.1878,3.1958,3.183,3.1717,3.1814,3.1771,3.1755,3.1999,3.2571,3.2608,3.2386,3.2276,3.2093,3.1761,3.1522,3.141,3.141,3.141,3.141,3.141,3.141,3.141,3.141,3.1426,3.1426,3.141,3.141,3.141,3.141,3.141,3.141,3.141,3.141,3.141,3.141,3.141,3.141,3.141,3.141,3.141,3.141,3.1426,3.141,3.141,3.141,3.1426,3.141,3.1442,3.149,3.1621,3.1782,3.2051,4.041,4.0059,3.959,3.916,3.8807,3.8749,3.8671,3.8592,3.8592,3.8573,3.8592,3.8592,3.832,3.8029,3.7873,3.7638,3.7266,3.6853,3.6445,3.6211,3.6038,3.5842,3.5547,3.5312,3.4961,3.4274,3.3824,3.3594,3.3652,3.3883,3.4075,3.4173,3.4313,3.4313,3.4235,3.4372,3.4528,3.4508,3.4824,3.5019,3.4941,3.459,3.4196,3.3711,3.3633,3.3558,3.3558,3.3867,3.402,3.3594,3.3903,3.3828,3.3633,3.35,3.35,3.3523,3.3589,3.3516,3.3235,3.3034,3.2839,3.2523,3.2166,3.2166,3.231,3.2198,3.2086,3.2148,3.2206,3.2255,3.2243,3.2979,3.3131,3.2806,3.2643,3.2404,3.2038,3.1634,3.1446,3.141,3.141,3.141,3.141,3.141,3.141,3.141,3.1442,3.1458,3.1474,3.1554,3.1635,3.1699,3.1779,3.1651,3.1619,3.1458,3.1458,3.1538,3.1506,3.157,3.1554,3.157,3.1587,3.1458,3.1442,3.1474,3.1522,3.1589,3.1589,3.149,3.1541,3.1653,3.1798,3.1958,3.2259,4.1054,4.0937,4.0469,4.004,3.9667,3.9258,3.8885,3.8631,3.8612,3.8592,3.8592,3.8592,3.8553,3.8379,3.8066,3.7677,3.7361,3.701,3.6697,3.6465,3.6213,3.5959,3.5823,3.5603,3.5312,3.5036,3.445,3.4039,3.3981,3.4079,3.4372,3.4626,3.4938,3.4958,3.4883,3.5215,3.5293,3.5098,3.543,3.5628,3.555,3.5234,3.4665,3.4004,3.3903,3.373,3.3656,3.4124,3.4414,3.4059,3.4075,3.4059,3.402,3.4,3.3965,3.3906,3.418,3.4151,3.3742,3.3589,3.3271,3.2868,3.2555,3.2501,3.2645,3.2552,3.2529,3.2742,3.3044,3.3232,3.2962,3.3618,3.3721,3.3311,3.2805,3.2508,3.2103,3.175,3.1525,3.1538,3.149,3.141,3.141,3.1426,3.1458,3.1522,3.1637,3.1733,3.1814,3.1974,3.2166,3.2214,3.2278,3.2086,3.1894,3.1651,3.1538,3.1733,3.1814,3.1974,3.1958,3.1878,3.1814,3.1733,3.1717,3.1782,3.1814,3.183,3.183,3.183,3.183,3.1864,3.207,3.2294,3.2463,4.1054,4.0801,4.0371,4.0078,3.9805,3.916,3.8925,3.8885,3.869,3.8592,3.8592,3.8592,3.8592,3.8534,3.8379,3.8027,3.7656,3.7441,3.7107,3.6738,3.6462,3.6211,3.6038,3.5781,3.5603,3.5368,3.4958,3.4606,3.4469,3.4704,3.4841,3.5056,3.5329,3.5273,3.5176,3.5391,3.5586,3.5491,3.5784,3.6018,3.5979,3.5605,3.4958,3.4368,3.4059,3.3864,3.3656,3.4222,3.4473,3.4254,3.4528,3.457,3.4547,3.4547,3.445,3.4023,3.4355,3.443,3.3945,3.3726,3.3643,3.325,3.304,3.304,3.3129,3.3088,3.311,3.328,3.3446,3.3714,3.3705,3.417,3.4144,3.3811,3.3231,3.2807,3.2513,3.2136,3.1934,3.1779,3.1603,3.1506,3.141,3.1442,3.149,3.1637,3.1798,3.1974,3.2134,3.2326,3.2549,3.2501,3.2501,3.231,3.2118,3.1974,3.1811,3.1958,3.2102,3.2262,3.231,3.223,3.215,3.207,3.2086,3.2089,3.2236,3.2316,3.2233,3.215,3.2166,3.223,3.2438,3.2626,3.2781,4.0976,4.0625,4.0293,4.0098,3.9902,3.918,3.8984,3.9082,3.8768,3.8592,3.8592,3.8592,3.8592,3.8592,3.8553,3.8377,3.8029,3.7951,3.7502,3.7088,3.6736,3.6445,3.623,3.5999,3.584,3.5625,3.5508,3.5273,3.4977,3.5134,3.5388,3.5508,3.5527,3.5527,3.5547,3.5605,3.5527,3.5608,3.5803,3.5999,3.5901,3.5586,3.5114,3.4388,3.4212,3.3938,3.373,3.4297,3.4528,3.4547,3.486,3.5195,3.498,3.5195,3.4844,3.4062,3.4495,3.4394,3.4062,3.3988,3.3975,3.3421,3.3572,3.3601,3.3649,3.3688,3.3846,3.3839,3.4036,3.4151,3.4338,3.4537,3.4544,3.428,3.3726,3.3173,3.2999,3.2706,3.2318,3.2102,3.1795,3.1667,3.1635,3.1731,3.1862,3.1894,3.2054,3.2342,3.2501,3.2676,3.2804,3.2708,3.2613,3.2469,3.2342,3.231,3.2246,3.231,3.2453,3.2597,3.2613,3.2581,3.2517,3.2482,3.2358,3.239,3.2587,3.2683,3.2568,3.2501,3.2517,3.2565,3.2692,3.2864,3.3086,4.1172,4.1113,4.1035,4.0801,4.0371,3.9863,3.9492,3.918,3.8769,3.8592,3.8592,3.8592,3.8592,3.8592,3.8592,3.8553,3.8416,3.8126,3.7835,3.7559,3.7088,3.6736,3.6558,3.6172,3.6018,3.5862,3.5881,3.5686,3.543,3.541,3.5605,3.582,3.5879,3.5901,3.5842,3.584,3.594,3.592,3.5979,3.6018,3.594,3.5625,3.5351,3.5036,3.4603,3.4153,3.4098,3.4528,3.4687,3.4726,3.5117,3.5351,3.5349,3.5368,3.5134,3.498,3.5179,3.5452,3.4629,3.4551,3.4277,3.3789,3.3846,3.4007,3.4128,3.4303,3.4456,3.4583,3.487,3.4976,3.4914,3.512,3.5118,3.4714,3.4119,3.3728,3.3505,3.3055,3.2699,3.2597,3.2355,3.2134,3.199,3.2118,3.2246,3.2262,3.2326,3.2613,3.2835,3.2975,3.307,3.2991,3.2915,3.2737,3.2645,3.2597,3.2597,3.2645,3.2772,3.2899,3.2931,3.2947,3.3007,3.2959,3.2785,3.2708,3.2851,3.2918,3.2851,3.2851,3.2851,3.2851,3.2848,3.307,3.3292,4.1211,4.1172,4.0664,4.0625,4.0723,3.9687,3.9336,3.9434,3.8885,3.8592,3.8592,3.8592,3.8592,3.8592,3.8592,3.8592,3.8553,3.8359,3.8126,3.7933,3.7519,3.7109,3.6716,3.6482,3.6309,3.6057,3.5999,3.592,3.5745,3.5742,3.5879,3.5959,3.6018,3.5979,3.6018,3.6018,3.5999,3.5999,3.6018,3.6018,3.5959,3.584,3.5625,3.5393,3.5,3.4723,3.4606,3.486,3.5078,3.5176,3.5508,3.5725,3.5742,3.5742,3.5608,3.5547,3.5745,3.5432,3.457,3.4863,3.4531,3.4238,3.4355,3.4824,3.4821,3.4746,3.4863,3.5078,3.5254,3.5368,3.5397,3.5493,3.5362,3.503,3.4509,3.4211,3.3895,3.3383,3.3022,3.2994,3.2931,3.2696,3.2456,3.2422,3.2533,3.2581,3.2661,3.2848,3.3054,3.3228,3.3292,3.3307,3.3212,3.3102,3.301,3.2931,3.2899,3.2947,3.3054,3.3181,3.3279,3.3307,3.3292,3.3292,3.3165,3.3133,3.3184,3.3169,3.3118,3.3149,3.3197,3.3133,3.3102,3.3181,3.3355,4.1133,4.0976,4.0312,4.043,4.0859,3.9374,3.9101,3.957,3.8925,3.8592,3.8592,3.8592,3.8592,3.8592,3.8592,3.8592,3.8592,3.8592,3.8397,3.8164,3.7892,3.7541,3.7187,3.6914,3.6619,3.6172,3.625,3.6133,3.6018,3.5979,3.5979,3.6018,3.6018,3.6018,3.6018,3.6018,3.6018,3.6018,3.6018,3.6018,3.5999,3.5999,3.582,3.5625,3.543,3.5234,3.5,3.5173,3.5371,3.543,3.5725,3.594,3.5959,3.594,3.594,3.5881,3.5999,3.5589,3.5039,3.4977,3.4899,3.4782,3.4863,3.5312,3.5469,3.5215,3.5101,3.5527,3.5566,3.5745,3.5869,3.5743,3.5663,3.5389,3.4968,3.4673,3.4333,3.3918,3.3594,3.352,3.3452,3.3297,3.3055,3.2807,3.2804,3.2883,3.301,3.3118,3.3244,3.3386,3.3386,3.3386,3.3355,3.3276,3.3228,3.3165,3.3149,3.3165,3.3292,3.3371,3.3371,3.3386,3.3355,3.3371,3.3386,3.3355,3.3276,3.3339,3.3386,3.3339,3.3292,3.3339,3.3355,3.3386,3.3386,4.0937,4.0547,4.0469,4.0469,4.0489,3.9532,3.9198,3.9277,3.8807,3.8592,3.8592,3.8592,3.8592,3.8592,3.8592,3.8592,3.8592,3.8592,3.8534,3.8377,3.8125,3.7892,3.7599,3.7344,3.7049,3.6697,3.6638,3.6406,3.6152,3.6135,3.6077,3.6018,3.6018,3.6018,3.6018,3.6018,3.6018,3.6018,3.6018,3.6018,3.6018,3.6018,3.5959,3.5881,3.5625,3.5371,3.5368,3.543,3.5488,3.5471,3.5803,3.5999,3.6018,3.6018,3.6018,3.6018,3.6018,3.5686,3.543,3.5293,3.5117,3.498,3.5117,3.5605,3.5784,3.592,3.594,3.5862,3.5842,3.5901,3.5979,3.5964,3.5889,3.5697,3.5368,3.5148,3.485,3.4596,3.4287,3.4121,3.3929,3.3764,3.3518,3.3256,3.3049,3.3109,3.3149,3.3276,3.3292,3.3386,3.3386,3.3386,3.3386,3.3371,3.3371,3.3323,3.3276,3.3276,3.3339,3.3386,3.3386,3.3386,3.3386,3.3386,3.3386,3.3386,3.3386,3.3386,3.3386,3.3386,3.3386,3.3386,3.3386,3.3386,3.3386,4.1943,4.0898,4.0371,4.0137,4.0059,3.918,3.8965,3.9101,3.8788,3.8592,3.8592,3.8592,3.8592,3.8592,3.8592,3.8592,3.8592,3.8592,3.8592,3.8573,3.8398,3.8164,3.7951,3.7716,3.7461,3.7146,3.7049,3.6853,3.6482,3.6426,3.6211,3.6096,3.6077,3.6018,3.6018,3.6018,3.6018,3.6018,3.6018,3.6018,3.6018,3.6018,3.6018,3.5979,3.592,3.5764,3.5781,3.5781,3.5764,3.5803,3.592,3.5979,3.6018,3.6018,3.6018,3.6018,3.6018,3.5901,3.5803,3.5745,3.5647,3.5608,3.5686,3.5803,3.5959,3.5999,3.5999,3.5999,3.6018,3.6018,3.6018,3.5999,3.5962,3.5901,3.5781,3.5566,3.5332,3.5059,3.4746,3.445,3.4293,3.4163,3.391,3.3644,3.3447,3.3338,3.3378,3.3386,3.3386,3.3386,3.3386,3.3386,3.3386,3.3386,3.3386,3.3386,3.3386,3.3386,3.3386,3.3386,3.3386,3.3386,3.3386,3.3386,3.3386,3.3386,3.3386,3.3386,3.3386,3.3386,3.3386,3.3386,3.3386,3.3386,3.3386,4.3425,4.2116,4.1061,4.0334,3.9823,3.8964,3.8749,3.8944,3.8747,3.8592,3.8592,3.8592,3.8592,3.8592,3.8592,3.8592,3.8592,3.8592,3.8592,3.8573,3.8534,3.8379,3.8203,3.8029,3.791,3.7578,3.7461,3.7266,3.6892,3.6873,3.6719,3.6504,3.6269,3.6211,3.6018,3.6018,3.6018,3.6018,3.6018,3.6018,3.6018,3.6018,3.6018,3.6018,3.5979,3.5959,3.5959,3.594,3.5959,3.5959,3.5999,3.5999,3.6018,3.6018,3.6018,3.6018,3.6018,3.6018,3.6018,3.5999,3.594,3.5703,3.5881,3.5881,3.5862,3.592,3.6018,3.6018,3.6018,3.6018,3.6018,3.6116,3.6113,3.6055,3.6152,3.5976,3.5703,3.543,3.5075,3.4759,3.4684,3.4668,3.4375,3.4101,3.3757,3.3553,3.339,3.3402,3.3386,3.3386,3.3386,3.3386,3.3386,3.3386,3.3386,3.3386,3.3386,3.3386,3.3386,3.3386,3.3386,3.3386,3.3386,3.3386,3.3386,3.3386,3.3386,3.3386,3.3386,3.3386,3.3386,3.3386,3.3386,3.3386,3.3386,4.5262,4.4286,4.2777,4.1282,3.9952,3.8964,3.8612,3.8671,3.8612,3.8592,3.8592,3.8592,3.8592,3.8592,3.8592,3.8592,3.8592,3.8592,3.8592,3.8592,3.8592,3.8553,3.8534,3.8436,3.8242,3.797,3.7853,3.7695,3.7303,3.7303,3.7226,3.7031,3.6699,3.6404,3.6057,3.6018,3.6018,3.6018,3.6057,3.6077,3.6096,3.6057,3.6018,3.6018,3.6018,3.6018,3.6018,3.6018,3.6018,3.6018,3.6018,3.6018,3.6018,3.6018,3.6018,3.6018,3.6018,3.6018,3.6018,3.6018,3.5879,3.5684,3.5898,3.5898,3.5664,3.5762,3.6018,3.6018,3.6018,3.6018,3.6152,3.6328,3.6269,3.6211,3.6269,3.6269,3.5976,3.5937,3.5603,3.5231,3.5234,3.5234,3.4902,3.457,3.4121,3.3812,3.3519,3.3402,3.3422,3.3386,3.3386,3.3386,3.3386,3.3386,3.3386,3.3386,3.3386,3.3386,3.3386,3.3386,3.3386,3.3386,3.3386,3.3386,3.3386,3.3386,3.3386,3.3386,3.3386,3.3386,3.3386,3.3386,3.3386,3.3386,3.3386,4.6156,4.4728,4.2655,4.1439,4.0756,3.9266,3.8592,3.8592,3.8592,3.8592,3.8592,3.8592,3.8592,3.8592,3.8592,3.8592,3.8592,3.8592,3.8592,3.8592,3.8592,3.8592,3.8592,3.8573,3.8495,3.8416,3.8338,3.8105,3.7697,3.7715,3.75,3.7285,3.6973,3.6445,3.623,3.625,3.6482,3.6482,3.6465,3.6445,3.6426,3.6211,3.6018,3.6018,3.6018,3.6018,3.6018,3.6018,3.6018,3.6018,3.6018,3.6018,3.6018,3.6018,3.6018,3.6018,3.6018,3.6018,3.6018,3.5999,3.5959,3.5898,3.5862,3.592,3.5823,3.5918,3.5999,3.6018,3.6018,3.6018,3.6077,3.6426,3.6462,3.623,3.623,3.6269,3.6172,3.6345,3.6247,3.5818,3.5664,3.5586,3.5351,3.5019,3.459,3.418,3.3887,3.3574,3.3461,3.3406,3.3386,3.3386,3.3386,3.3386,3.3386,3.3386,3.3386,3.3386,3.3386,3.3386,3.3386,3.3386,3.3386,3.3386,3.3386,3.3386,3.3386,3.3386,3.3386,3.3386,3.3386,3.3386,3.3386,3.3386,3.3386,4.7504,4.601,4.3943,4.2992,4.2376,3.9815,3.8592,3.8592,3.8592,3.8592,3.8592,3.8592,3.8592,3.8592,3.8592,3.8592,3.8592,3.8592,3.8592,3.8592,3.8592,3.8592,3.8592,3.8592,3.8573,3.8592,3.8573,3.8397,3.8146,3.8126,3.7912,3.7578,3.7226,3.6973,3.6699,3.6677,3.6675,3.6697,3.6719,3.6812,3.6658,3.6406,3.6191,3.6057,3.6018,3.6018,3.6018,3.6018,3.6018,3.6018,3.6018,3.6018,3.6018,3.6018,3.6018,3.6018,3.6018,3.6018,3.6018,3.6018,3.5979,3.5979,3.6018,3.592,3.5881,3.5901,3.5979,3.6018,3.6018,3.5999,3.6057,3.6426,3.6443,3.6191,3.623,3.6287,3.6035,3.6189,3.6384,3.5996,3.5879,3.5801,3.5723,3.543,3.5059,3.4668,3.4293,3.3906,3.3519,3.3441,3.3386,3.3386,3.3386,3.3386,3.3386,3.3386,3.3386,3.3386,3.3386,3.3386,3.3386,3.3386,3.3386,3.3386,3.3386,3.3386,3.3386,3.3386,3.3386,3.3386,3.3386,3.3386,3.3386,3.3386,3.3386,4.9188,4.8136,4.6707,4.5611,4.4555,4.0749,3.8973,3.8847,3.8774,3.8774,3.8756,3.8738,3.8592,3.8592,3.8592,3.8592,3.8592,3.8592,3.8592,3.8592,3.8592,3.8592,3.8592,3.8592,3.8592,3.8592,3.8592,3.8573,3.8571,3.891,3.8637,3.8115,3.8112,3.773,3.7385,3.7049,3.6951,3.7049,3.7168,3.7185,3.701,3.6697,3.6443,3.623,3.6077,3.6018,3.6018,3.6018,3.6018,3.6018,3.6018,3.6018,3.6018,3.6018,3.6018,3.6018,3.6018,3.6018,3.6018,3.6018,3.6018,3.6018,3.6018,3.5781,3.5723,3.5862,3.5959,3.6018,3.6018,3.5959,3.5982,3.6152,3.6306,3.6267,3.6323,3.6108,3.572,3.5798,3.6055,3.6018,3.5979,3.594,3.5901,3.5667,3.5273,3.4785,3.4372,3.3965,3.3617,3.3425,3.3386,3.3386,3.3386,3.3386,3.3386,3.3386,3.3386,3.3386,3.3386,3.3386,3.3386,3.3386,3.3386,3.3386,3.3386,3.3386,3.3386,3.3386,3.3386,3.3386,3.3386,3.3386,3.3386,3.3386,3.3386,4.8572,4.8108,4.6317,4.545,4.4971,4.2735,4.1718,4.1612,4.0675,4.0177,4.0105,3.9045,3.8611,3.8592,3.8592,3.8592,3.8592,3.8592,3.8592,3.8592,3.8592,3.8592,3.8592,3.8592,3.8592,3.8592,3.8592,3.8702,3.8955,3.9442,3.944,3.8632,3.9318,3.8866,3.8179,3.7653,3.7629,3.7559,3.7658,3.7559,3.7305,3.699,3.6697,3.6406,3.6116,3.6038,3.6018,3.6018,3.6018,3.6018,3.6018,3.6018,3.6018,3.6018,3.6018,3.6018,3.6018,3.6018,3.6018,3.6018,3.6018,3.6018,3.6018,3.5979,3.5901,3.5901,3.6018,3.6018,3.592,3.5842,3.5842,3.5957,3.5857,3.5681,3.5876,3.6072,3.5759,3.5857,3.6094,3.6038,3.6018,3.5999,3.5979,3.5745,3.5351,3.4844,3.4414,3.4027,3.3695,3.3519,3.3386,3.3386,3.3386,3.3386,3.3386,3.3386,3.3386,3.3386,3.3386,3.3386,3.3386,3.3386,3.3386,3.3386,3.3386,3.3386,3.3386,3.3386,3.3386,3.3386,3.3386,3.3386,3.3386,3.3386,3.3386,4.8489,4.803,4.6893,4.6298,4.6029,4.517,4.4772,4.431,4.1982,4.08,4.0603,3.9245,3.8592,3.8592,3.8592,3.8592,3.8592,3.8592,3.8592,3.8592,3.8592,3.8592,3.8592,3.8592,3.8592,3.8592,3.8738,3.8955,3.9586,4.0728,4.1063,4.0651,4.1137,4.0286,3.9539,3.9109,3.8682,3.8396,3.8144,3.7969,3.7598,3.7168,3.6873,3.6462,3.6116,3.6038,3.6018,3.6018,3.6018,3.6018,3.6018,3.6018,3.6018,3.6018,3.6018,3.6018,3.6018,3.6018,3.6018,3.6018,3.6018,3.6018,3.6018,3.5999,3.5999,3.5999,3.6018,3.5999,3.584,3.5723,3.5742,3.5703,3.5273,3.4863,3.5446,3.6033,3.6091,3.6111,3.6094,3.6018,3.6018,3.6018,3.5901,3.5686,3.5488,3.5117,3.4707,3.4277,3.3871,3.3558,3.3441,3.3386,3.3386,3.3386,3.3386,3.3386,3.3386,3.3386,3.3386,3.3386,3.3386,3.3386,3.3386,3.3386,3.3386,3.3386,3.3386,3.3386,3.3386,3.3386,3.3386,3.3386,3.3386,3.3386,3.3386,4.8762,4.8067,4.8042,4.7779,4.7597,4.7447,4.7431,4.7091,4.3223,4.1173,4.0871,3.9658,3.9172,3.9245,3.9405,3.9299,3.9245,3.9136,3.8882,3.8665,3.8592,3.8592,3.8592,3.8592,3.8592,3.8592,3.8793,3.9208,4.0835,4.2123,4.3066,4.3066,4.3109,4.2313,4.1083,4.0447,3.9815,3.9016,3.8493,3.8104,3.7578,3.7207,3.6894,3.6272,3.6057,3.6018,3.6018,3.6018,3.6018,3.6018,3.6018,3.6018,3.6018,3.6018,3.6018,3.6018,3.6018,3.6018,3.6018,3.6018,3.6018,3.6018,3.6018,3.6018,3.6018,3.6018,3.6018,3.594,3.5781,3.5449,3.5391,3.5312,3.498,3.4883,3.5231,3.5622,3.5739,3.5762,3.5742,3.5667,3.555,3.5569,3.555,3.5312,3.5117,3.5059,3.4821,3.4336,3.4004,3.3597,3.348,3.3386,3.3386,3.3386,3.3386,3.3386,3.3386,3.3386,3.3386,3.3386,3.3386,3.3386,3.3386,3.3386,3.3386,3.3386,3.3386,3.3386,3.3386,3.3386,3.3386,3.3386,3.3386,3.3386,3.3386,4.8649,4.8461,4.8461,4.8395,4.833,4.833,4.8313,4.8133,4.5746,4.3759,4.2578,4.2,4.1223,4.0443,4.1226,4.1173,4.0392,3.9964,3.9514,3.9136,3.8883,3.9118,3.8811,3.9154,3.8847,3.8592,3.8847,3.9748,4.1453,4.3188,4.4173,4.3396,4.3949,4.3966,4.2426,4.1675,4.0533,3.9516,3.8511,3.8022,3.7637,3.7107,3.6658,3.6387,3.6269,3.6038,3.6018,3.6018,3.6018,3.6018,3.6018,3.6018,3.6018,3.6018,3.6018,3.6018,3.6018,3.6018,3.6018,3.6018,3.6018,3.6018,3.6018,3.6018,3.6018,3.6018,3.5979,3.5862,3.5608,3.5237,3.498,3.4883,3.4821,3.4899,3.4997,3.5176,3.5351,3.5371,3.5354,3.5254,3.5117,3.5078,3.5098,3.498,3.4766,3.457,3.4391,3.4079,3.3809,3.348,3.3461,3.3386,3.3386,3.3386,3.3386,3.3386,3.3386,3.3386,3.3386,3.3386,3.3386,3.3386,3.3386,3.3386,3.3386,3.3386,3.3386,3.3386,3.3386,3.3386,3.3386,3.3386,3.3386,3.3386,3.3386,4.8951,4.8821,4.8641,4.8576,4.8576,4.8576,4.8576,4.8395,4.7473,4.5982,4.4207,4.3396,4.2613,4.1964,4.2788,4.2823,4.1718,4.1013,4.0977,4.0553,3.9892,4.0267,4.0213,4.0249,4.0087,3.9928,4.0535,4.1527,4.277,4.4709,4.5752,4.5085,4.5786,4.5372,4.3748,4.2401,4.1099,3.9798,3.8522,3.7769,3.7547,3.6986,3.6541,3.6367,3.6191,3.6018,3.6018,3.6018,3.6018,3.6018,3.6018,3.6018,3.6018,3.6018,3.6018,3.6018,3.6018,3.6018,3.6018,3.6018,3.6018,3.6018,3.6233,3.6328,3.6077,3.6096,3.6172,3.6016,3.5312,3.4883,3.4746,3.4629,3.4469,3.445,3.4704,3.4958,3.5,3.4983,3.5,3.4941,3.4863,3.4863,3.4863,3.4863,3.4668,3.459,3.4333,3.4095,3.3769,3.3441,3.3406,3.3386,3.3386,3.3386,3.3386,3.3386,3.3386,3.3386,3.3386,3.3386,3.3386,3.3386,3.3386,3.3386,3.3386,3.3386,3.3386,3.3386,3.3386,3.3386,3.3386,3.3386,3.3386,3.3386,3.3386,4.9412,4.9121,4.8853,4.8747,4.8747,4.8747,4.8739,4.8723,4.8625,4.7787,4.6301,4.467,4.3966,4.3621,4.3777,4.3517,4.3136,4.2561,4.2543,4.214,4.1527,4.1633,4.1982,4.2368,4.1368,4.1492,4.228,4.3465,4.4778,4.6348,4.7174,4.7447,4.7152,4.6611,4.5066,4.3639,4.2335,4.0715,3.9275,3.7805,3.7174,3.6686,3.6365,3.6135,3.6018,3.6018,3.6018,3.6018,3.6018,3.6018,3.6018,3.6018,3.6018,3.6018,3.6018,3.6018,3.6018,3.6018,3.6018,3.6018,3.6018,3.6096,3.6462,3.6445,3.6174,3.6155,3.623,3.582,3.5117,3.4707,3.457,3.4277,3.4118,3.4153,3.445,3.4665,3.4629,3.4609,3.459,3.4551,3.4492,3.4492,3.4512,3.4531,3.4531,3.4492,3.4375,3.4176,3.3922,3.3597,3.3386,3.3386,3.3386,3.3386,3.3386,3.3386,3.3386,3.3386,3.3386,3.3386,3.3386,3.3386,3.3386,3.3386,3.3386,3.3386,3.3386,3.3386,3.3386,3.3386,3.3386,3.3386,3.3386,3.3386,3.3386,4.9574,4.9493,4.9412,4.9396,4.938,4.9396,4.9396,4.9373,4.913,4.8894,4.8477,4.787,4.6784,4.5074,4.6264,4.613,4.4863,4.4212,4.3414,4.2927,4.284,4.291,4.2945,4.2962,4.1421,4.2052,4.3552,4.4829,4.5786,4.6891,4.7497,4.7497,4.7497,4.7186,4.6767,4.5207,4.3461,4.1909,4.0574,3.9227,3.7733,3.707,3.6181,3.6018,3.6018,3.6018,3.6018,3.6018,3.6018,3.6018,3.6018,3.6018,3.6018,3.6018,3.6018,3.6018,3.6018,3.6018,3.6018,3.6018,3.6018,3.6018,3.6252,3.6233,3.6096,3.6116,3.5996,3.5605,3.5039,3.4743,3.4473,3.391,3.3652,3.4,3.4333,3.4293,3.4258,3.418,3.4101,3.3945,3.3793,3.3793,3.3812,3.3906,3.4043,3.4023,3.4062,3.3883,3.3707,3.3519,3.3418,3.3449,3.3465,3.3386,3.3386,3.3386,3.3386,3.3386,3.3386,3.3386,3.3386,3.3386,3.3386,3.3386,3.3386,3.3386,3.3386,3.3386,3.3386,3.3386,3.3386,3.3386,3.3386,3.3386,3.3386]}]]